[[{"header":{"parameterUnit":"m.s-1","parameterCategory":1,"la1":30.6,"la2":28.766,"lo1":-90.7593,"lo2":-88.6598,"dy":0.0162,"dx":0.0183,"nx":116,"ny":114,"refTime":"2023-08-01T12:00:00:Z","depth":0,"parameterNumber":2,"parameterNumberName":"U-component_of_WINDS"},"data":[0.0,0.0,0.0,0.0,0.0,0.0,0.0,0.0,0.0,0.0,0.0,0.0,0.0,0.0,0.0,0.0,0.0,0.0,0.0,0.0,0.0,0.0,0.0,0.0,0.0,0.0,0.0,0.0,0.0,0.0,0.0,0.0,0.0,0.0,0.0,0.0,0.0,0.0,0.0,0.0,0.0,0.0,0.0,0.0,0.0,0.0,0.0,0.0,0.0,0.0,0.0,0.0,0.0,0.0,0.0,0.0,0.0,0.0,0.0,0.0,0.0,0.0,0.0,0.0,0.0,0.0,0.0,0.0,0.0,0.0,0.0,0.0,0.0,0.0,0.0,0.0,0.0,0.0,0.0,0.0,0.0,0.0,0.0,0.0,0.0,0.0,0.0,0.0,0.0,0.0,0.0,0.0,0.0,0.0,0.0,0.0,0.0,0.0,0.0,0.0,0.0,0.0,0.0,0.0,0.0,0.0,0.0,0.0,0.0,0.0,0.0,0.0,0.0,0.0,0.0,0.0,0.0,0.0,0.0,0.0,0.0,0.0,0.0,0.0,0.0,0.0,0.0,0.0,0.0,0.0,0.0,0.0,0.0,0.0,0.0,0.0,0.0,0.0,0.0,0.0,0.0,0.0,0.0,0.0,0.0,0.0,0.0,0.0,0.0,0.0,0.0,0.0,0.0,0.0,0.0,0.0,0.0,0.0,0.0,0.0,0.0,0.0,0.0,0.0,0.0,0.0,0.0,0.0,0.0,0.0,0.0,0.0,0.0,0.0,0.0,0.0,0.0,0.0,0.0,0.0,0.0,0.0,0.0,0.0,0.0,0.0,0.0,0.0,0.0,0.0,0.0,0.0,0.0,0.0,0.0,0.0,0.0,0.0,0.0,0.0,0.0,0.0,0.0,0.0,0.0,0.0,0.0,0.0,0.0,0.0,0.0,0.0,0.0,0.0,0.0,0.0,0.0,0.0,0.0,0.0,0.0,0.0,0.0,0.0,0.0,0.0,0.0,0.0,0.0,0.0,0.0,0.0,0.0,0.0,0.0,0.0,0.0,0.0,0.0,0.0,0.0,0.0,0.0,0.0,0.0,0.0,0.0,0.0,0.0,0.0,0.0,0.0,0.0,0.0,0.0,0.0,0.0,0.0,0.0,0.0,0.0,0.0,0.0,0.0,0.0,0.0,0.0,0.0,0.0,0.0,0.0,0.0,0.0,0.0,0.0,0.0,0.0,0.0,0.0,0.0,0.0,0.0,0.0,0.0,0.0,0.0,0.0,0.0,0.0,0.0,0.0,0.0,0.0,0.0,0.0,0.0,0.0,0.0,0.0,0.0,0.0,0.0,0.0,0.0,0.0,0.0,0.0,0.0,0.0,0.0,0.0,0.0,0.0,0.0,0.0,0.0,0.0,0.0,0.0,0.0,0.0,0.0,0.0,0.0,0.0,0.0,0.0,0.0,0.0,0.0,0.0,0.0,0.0,0.0,0.0,0.0,0.0,0.0,0.0,0.0,0.0,0.0,0.0,0.0,0.0,0.0,0.0,0.0,0.0,0.0,0.0,0.0,0.0,0.0,0.0,0.0,0.0,0.0,0.0,0.0,0.0,0.0,0.0,0.0,0.0,0.0,0.0,0.0,0.0,0.0,0.0,0.0,0.0,0.0,0.0,0.0,0.0,0.0,0.0,0.0,0.0,0.0,0.0,0.0,0.0,0.0,0.0,0.0,0.0,0.0,0.0,0.0,0.0,0.0,0.0,0.0,0.0,0.0,0.0,0.0,0.0,0.0,0.0,0.0,0.0,0.0,0.0,0.0,0.0,0.0,0.0,0.0,0.0,0.0,0.0,0.0,0.0,0.0,0.0,0.0,0.0,0.0,0.0,0.0,0.0,0.0,0.0,0.0,0.0,0.0,0.0,0.0,0.0,0.0,0.0,0.0,0.0,0.0,0.0,0.0,0.0,0.0,0.0,0.0,0.0,0.0,0.0,0.0,0.0,0.0,0.0,0.0,0.0,0.0,0.0,0.0,0.0,0.0,0.0,0.0,0.0,0.0,0.0,0.0,0.0,0.0,0.0,0.0,0.0,0.0,0.0,0.0,0.0,0.0,0.0,0.0,0.0,0.0,0.0,0.0,0.0,0.0,0.0,0.0,0.0,0.0,0.0,0.0,0.0,0.0,0.0,0.0,0.0,0.0,0.0,0.0,0.0,0.0,0.0,0.0,0.0,0.0,0.0,0.0,0.0,0.0,0.0,0.0,0.0,0.0,0.0,0.0,0.0,0.0,0.0,0.0,0.0,0.0,0.0,0.0,0.0,0.0,0.0,0.0,0.0,0.0,0.0,0.0,0.0,0.0,0.0,0.0,0.0,0.0,0.0,0.0,0.0,0.0,0.0,0.0,0.0,0.0,0.0,0.0,0.0,0.0,0.0,0.0,0.0,0.0,0.0,0.0,0.0,0.0,0.0,0.0,0.0,0.0,0.0,0.0,0.0,0.0,0.0,0.0,0.0,0.0,0.0,0.0,0.0,0.0,0.0,0.0,0.0,0.0,0.0,0.0,0.0,0.0,0.0,0.0,0.0,0.0,0.0,0.0,0.0,0.0,0.0,0.0,0.0,0.0,0.0,0.0,0.0,0.0,0.0,0.0,0.0,0.0,0.0,0.0,0.0,0.0,0.0,0.0,0.0,0.0,0.0,0.0,0.0,0.0,0.0,0.0,0.0,0.0,0.0,0.0,0.0,0.0,0.0,0.0,0.0,0.0,0.0,0.0,0.0,0.0,0.0,0.0,0.0,0.0,0.0,0.0,0.0,0.0,0.0,0.0,0.0,0.0,0.0,0.0,0.0,0.0,0.0,0.0,0.0,0.0,0.0,0.0,0.0,0.0,0.0,0.0,0.0,0.0,0.0,0.0,0.0,0.0,0.0,0.0,0.0,0.0,0.0,0.0,0.0,0.0,0.0,0.0,0.0,0.0,0.0,0.0,0.0,0.0,0.0,0.0,0.0,0.0,0.0,0.0,0.0,0.0,0.0,0.0,0.0,0.0,0.0,0.0,0.0,0.0,0.0,0.0,0.0,0.0,0.0,0.0,0.0,0.0,0.0,0.0,0.0,0.0,0.0,0.0,0.0,0.0,0.0,0.0,0.0,0.0,0.0,0.0,0.0,0.0,0.0,0.0,0.0,0.0,0.0,0.0,0.0,0.0,0.0,0.0,0.0,0.0,0.0,0.0,0.0,0.0,0.0,0.0,0.0,0.0,0.0,0.0,0.0,0.0,0.0,0.0,0.0,0.0,0.0,0.0,0.0,0.0,0.0,0.0,0.0,0.0,0.0,0.0,0.0,0.0,0.0,0.0,0.0,0.0,0.0,0.0,0.0,0.0,0.0,0.0,0.0,0.0,0.0,0.0,0.0,0.0,0.0,0.0,0.0,0.0,0.0,0.0,0.0,0.0,0.0,0.0,0.0,0.0,0.0,0.0,0.0,0.0,0.0,0.0,0.0,0.0,0.0,0.0,0.0,0.0,0.0,0.0,0.0,0.0,0.0,0.0,0.0,0.0,0.0,0.0,0.0,0.0,0.0,0.0,0.0,0.0,0.0,0.0,0.0,0.0,0.0,0.0,0.0,0.0,0.0,0.0,0.0,0.0,0.0,0.0,0.0,0.0,0.0,0.0,0.0,0.0,0.0,0.0,0.0,0.0,0.0,0.0,0.0,0.0,0.0,0.0,0.0,0.0,0.0,0.0,0.0,0.0,0.0,0.0,0.0,0.0,0.0,0.0,0.0,0.0,0.0,0.0,0.0,0.0,0.0,0.0,0.0,0.0,0.0,0.0,0.0,0.0,0.0,0.0,0.0,0.0,0.0,0.0,0.0,0.0,0.0,0.0,0.0,0.0,0.0,0.0,0.0,0.0,0.0,0.0,0.0,0.0,0.0,0.0,0.0,0.0,0.0,0.0,0.0,0.0,0.0,0.0,0.0,0.0,0.0,0.0,0.0,0.0,0.0,0.0,0.0,0.0,0.0,0.0,0.0,0.0,0.0,0.0,0.0,0.0,0.0,0.0,0.0,0.0,0.0,0.0,0.0,0.0,0.0,0.0,0.0,0.0,0.0,0.0,0.0,0.0,0.0,0.0,0.0,0.0,0.0,0.0,0.0,0.0,0.0,0.0,0.0,0.0,0.0,0.0,0.0,0.0,0.0,0.0,0.0,0.0,0.0,0.0,0.0,0.0,0.0,0.0,0.0,0.0,0.0,0.0,0.0,0.0,0.0,0.0,0.0,0.0,0.0,0.0,0.0,0.0,0.0,0.0,0.0,0.0,0.0,0.0,0.0,0.0,0.0,0.0,0.0,0.0,0.0,0.0,0.0,0.0,0.0,0.0,0.0,0.0,0.0,0.0,0.0,0.0,0.0,0.0,0.0,0.0,0.0,0.0,0.0,0.0,0.0,0.0,0.0,0.0,0.0,0.0,0.0,0.0,0.0,0.0,0.0,0.0,0.0,0.0,0.0,0.0,0.0,0.0,0.0,0.0,0.0,0.0,0.0,0.0,0.0,0.0,0.0,0.0,0.0,0.0,0.0,0.0,0.0,0.0,0.0,0.0,0.0,0.0,0.0,0.0,0.0,0.0,0.0,0.0,0.0,0.0,0.0,0.0,0.0,0.0,0.0,0.0,0.0,0.0,0.0,0.0,0.0,0.0,0.0,0.0,0.0,0.0,0.0,0.0,0.0,0.0,0.0,0.0,0.0,0.0,0.0,0.0,0.0,0.0,0.0,0.0,0.0,0.0,0.0,0.0,0.0,0.0,0.0,0.0,0.0,0.0,0.0,0.0,0.0,0.0,0.0,0.0,0.0,0.0,0.0,0.0,0.0,0.0,0.0,0.0,0.0,0.0,0.0,0.0,0.0,0.0,0.0,0.0,0.0,0.0,0.0,0.0,0.0,0.0,0.0,0.0,0.0,0.0,0.0,0.0,0.0,0.0,0.0,0.0,0.0,0.0,0.0,0.0,0.0,0.0,0.0,0.0,0.0,0.0,0.0,0.0,0.0,0.0,0.0,0.0,0.0,0.0,0.0,0.0,0.0,0.0,0.0,0.0,0.0,0.0,0.0,0.0,0.0,0.0,0.0,0.0,0.0,0.0,0.0,0.0,0.0,0.0,0.0,0.0,0.0,0.0,0.0,0.0,0.0,0.0,0.0,0.0,0.0,0.0,0.0,0.0,0.0,0.0,0.0,0.0,0.0,0.0,0.0,0.0,0.0,0.0,0.0,0.0,0.0,0.0,0.0,0.0,0.0,0.0,0.0,0.0,0.0,0.0,0.0,0.0,0.0,0.0,0.0,0.0,0.0,0.0,0.0,0.0,0.0,0.0,0.0,0.0,0.0,0.0,0.0,0.0,0.0,0.0,0.0,0.0,0.0,0.0,0.0,0.0,0.0,0.0,0.0,0.0,0.0,0.0,0.0,0.0,0.0,0.0,0.0,0.0,0.0,0.0,0.0,0.0,0.0,0.0,0.0,0.0,0.0,0.0,0.0,0.0,0.0,0.0,0.0,0.0,0.0,0.0,0.0,0.0,0.0,0.0,0.0,0.0,0.0,0.0,0.0,0.0,0.0,0.0,0.0,0.0,0.0,0.0,0.0,0.0,0.0,0.0,0.0,0.0,0.0,0.0,0.0,0.0,0.0,0.0,0.0,0.0,0.0,0.0,0.0,0.0,0.0,0.0,0.0,0.0,0.0,0.0,0.0,0.0,0.0,0.0,0.0,0.0,0.0,0.0,0.0,0.0,0.0,0.0,0.0,0.0,0.0,0.0,0.0,0.0,0.0,0.0,0.0,0.0,0.0,0.0,0.0,0.0,0.0,0.0,0.0,0.0,0.0,0.0,0.0,0.0,0.0,0.0,0.0,0.0,0.0,0.0,0.0,0.0,0.0,0.0,0.0,0.0,0.0,0.0,0.0,0.0,0.0,0.0,0.0,0.0,0.0,0.0,0.0,0.0,0.0,0.0,0.0,0.0,0.0,0.0,0.0,0.0,0.0,0.0,0.0,0.0,0.0,0.0,0.0,0.0,0.0,0.0,0.0,0.0,0.0,0.0,0.0,0.0,0.0,0.0,-5.4111,0.0,0.0,0.0,0.0,0.0,0.0,0.0,0.0,0.0,0.0,0.0,0.0,0.0,0.0,0.0,0.0,0.0,0.0,0.0,0.0,0.0,0.0,0.0,0.0,0.0,0.0,0.0,0.0,0.0,0.0,0.0,0.0,0.0,0.0,0.0,0.0,0.0,0.0,0.0,0.0,0.0,0.0,0.0,0.0,0.0,0.0,0.0,0.0,0.0,0.0,0.0,0.0,0.0,0.0,0.0,0.0,0.0,0.0,0.0,0.0,0.0,0.0,0.0,0.0,0.0,0.0,0.0,0.0,0.0,0.0,0.0,0.0,0.0,0.0,0.0,0.0,0.0,0.0,0.0,0.0,0.0,0.0,0.0,0.0,0.0,0.0,0.0,0.0,0.0,0.0,0.0,0.0,0.0,0.0,0.0,0.0,0.0,0.0,0.0,0.0,0.0,0.0,0.0,0.0,0.0,0.0,0.0,0.0,0.0,0.0,0.0,0.0,0.0,0.0,0.0,0.0,-5.3396,0.0,0.0,0.0,0.0,0.0,0.0,0.0,0.0,0.0,0.0,0.0,0.0,0.0,0.0,0.0,0.0,0.0,0.0,0.0,0.0,0.0,0.0,0.0,0.0,0.0,0.0,0.0,0.0,0.0,0.0,0.0,0.0,0.0,0.0,0.0,0.0,0.0,0.0,0.0,0.0,0.0,0.0,0.0,0.0,0.0,0.0,0.0,0.0,0.0,0.0,0.0,0.0,0.0,0.0,0.0,0.0,0.0,0.0,0.0,0.0,0.0,0.0,0.0,0.0,0.0,0.0,0.0,0.0,0.0,0.0,0.0,0.0,0.0,0.0,0.0,0.0,0.0,0.0,0.0,0.0,0.0,0.0,0.0,0.0,0.0,0.0,0.0,0.0,0.0,0.0,0.0,0.0,0.0,0.0,0.0,0.0,0.0,0.0,0.0,0.0,0.0,0.0,0.0,0.0,0.0,0.0,0.0,0.0,-5.5485,-5.5275,-5.4758,-5.4535,-5.424,-5.3851,-5.3582,-5.3357,-5.3185,-5.3185,0.0,0.0,0.0,0.0,0.0,0.0,0.0,0.0,0.0,0.0,0.0,0.0,0.0,0.0,0.0,0.0,0.0,0.0,0.0,0.0,0.0,0.0,0.0,0.0,0.0,0.0,0.0,0.0,0.0,0.0,0.0,0.0,0.0,0.0,0.0,0.0,0.0,0.0,-5.1157,-5.1799,-5.2115,-5.2171,0.0,0.0,0.0,0.0,0.0,0.0,0.0,0.0,0.0,0.0,0.0,0.0,0.0,0.0,0.0,0.0,0.0,0.0,0.0,0.0,0.0,0.0,0.0,0.0,0.0,0.0,0.0,0.0,0.0,0.0,0.0,0.0,0.0,0.0,0.0,0.0,0.0,0.0,0.0,0.0,0.0,0.0,0.0,0.0,-5.573,-5.5876,0.0,0.0,0.0,0.0,0.0,0.0,0.0,0.0,0.0,0.0,0.0,0.0,0.0,-5.5703,-5.5703,-5.5703,-5.5673,-5.564,-5.5159,-5.4832,-5.4609,-5.4071,-5.3659,-5.3402,-5.3341,0.0,-5.3185,-5.3185,0.0,0.0,0.0,0.0,0.0,0.0,0.0,0.0,0.0,0.0,0.0,0.0,0.0,0.0,0.0,0.0,0.0,0.0,0.0,0.0,0.0,0.0,0.0,0.0,0.0,0.0,0.0,0.0,0.0,0.0,0.0,0.0,0.0,0.0,0.0,0.0,-5.1117,-5.0959,-5.0871,-5.1192,-5.1297,-5.1183,-5.0073,-4.9889,-5.0304,-4.9118,0.0,0.0,0.0,0.0,0.0,0.0,0.0,0.0,0.0,0.0,0.0,0.0,0.0,0.0,0.0,0.0,0.0,0.0,0.0,0.0,0.0,0.0,0.0,0.0,0.0,0.0,0.0,0.0,0.0,0.0,0.0,0.0,0.0,0.0,0.0,0.0,0.0,0.0,0.0,-5.5402,-5.6088,-5.6512,-5.6896,-5.7279,0.0,0.0,0.0,0.0,0.0,0.0,0.0,0.0,0.0,-5.5703,-5.5703,-5.5703,-5.5703,-5.5703,-5.5531,-5.5198,-5.5124,-5.4727,-5.4106,-5.3944,-5.3661,-5.3297,-5.3254,-5.323,-5.3185,-5.3185,-5.3185,-5.3185,0.0,0.0,0.0,0.0,-5.2868,-5.2338,0.0,0.0,0.0,0.0,0.0,0.0,0.0,0.0,0.0,0.0,0.0,0.0,0.0,0.0,0.0,-5.1385,0.0,0.0,0.0,0.0,0.0,0.0,0.0,0.0,0.0,0.0,0.0,0.0,-5.1175,-5.1063,-5.0945,-5.0913,-5.0726,-5.0344,-4.8778,-4.8541,-4.9182,-4.8046,-4.7054,0.0,0.0,0.0,0.0,0.0,0.0,0.0,0.0,0.0,0.0,0.0,0.0,0.0,0.0,0.0,0.0,0.0,0.0,0.0,0.0,0.0,0.0,0.0,0.0,0.0,0.0,0.0,0.0,0.0,0.0,0.0,0.0,0.0,0.0,0.0,0.0,0.0,0.0,-5.5574,-5.6329,-5.7333,-5.7436,-5.772,0.0,0.0,0.0,0.0,0.0,0.0,-5.6703,-5.6472,-5.6261,-5.603,-5.603,-5.5934,-5.5703,-5.5703,-5.543,-5.4924,-5.5064,-5.4651,-5.3774,-5.3795,-5.3623,-5.3256,-5.3209,-5.3185,-5.3185,-5.3185,-5.3185,-5.3185,-5.3185,-5.3185,-5.3185,-5.3185,-5.2934,-5.2518,0.0,0.0,0.0,0.0,0.0,0.0,0.0,0.0,0.0,0.0,0.0,0.0,0.0,0.0,-5.1365,-5.1302,-5.1318,-5.1274,0.0,0.0,0.0,0.0,0.0,0.0,0.0,0.0,0.0,-5.1301,-5.1224,-5.1168,-5.1081,-5.0963,-5.0442,-4.9622,-4.8572,-4.799,-4.7739,-4.6581,-4.5919,-4.5696,0.0,0.0,0.0,0.0,0.0,0.0,0.0,0.0,0.0,0.0,0.0,0.0,0.0,0.0,0.0,0.0,0.0,0.0,0.0,0.0,0.0,0.0,0.0,0.0,0.0,0.0,0.0,0.0,0.0,0.0,0.0,0.0,0.0,0.0,0.0,0.0,0.0,0.0,0.0,-5.8227,-5.8324,0.0,0.0,0.0,0.0,-6.0608,-5.9838,-5.9358,-5.9319,-5.8588,-5.778,-5.6964,-5.6926,-5.6541,-5.5703,-5.5703,-5.5562,-5.5275,-5.4838,-5.4404,-5.3961,-5.3525,-5.3295,-5.3206,-5.3206,-5.3185,-5.3185,-5.3185,-5.3185,-5.3185,-5.3185,-5.3185,-5.3185,-5.3185,-5.3185,-5.3017,0.0,0.0,0.0,0.0,0.0,0.0,0.0,0.0,0.0,0.0,0.0,0.0,0.0,-5.0366,-5.133,-5.1299,-5.1266,-5.1207,-5.1141,0.0,0.0,0.0,0.0,0.0,0.0,0.0,-5.13,-5.1308,-5.1312,-5.1263,-5.1165,-5.1123,-5.0551,-4.956,-4.8647,-4.784,-4.7107,-4.5784,-4.5072,-4.4881,-4.5485,-4.5732,0.0,0.0,0.0,0.0,0.0,0.0,0.0,0.0,0.0,0.0,0.0,0.0,0.0,0.0,0.0,0.0,0.0,0.0,0.0,0.0,0.0,0.0,0.0,0.0,0.0,0.0,0.0,0.0,0.0,0.0,0.0,0.0,0.0,0.0,0.0,0.0,0.0,-5.8291,-5.8383,0.0,-6.0204,-6.0608,-6.0569,-6.0012,-5.9685,-5.9281,-5.8761,-5.8473,-5.8165,-5.7857,-5.728,-5.6849,-5.6541,-5.5808,-5.5282,-5.4966,-5.4604,-5.4157,-5.3661,-5.3502,-5.3355,-5.3185,-5.3185,-5.3185,-5.3185,-5.3185,-5.3185,-5.3185,-5.3185,-5.3185,-5.3185,-5.3185,-5.2977,-5.2586,0.0,0.0,0.0,0.0,0.0,0.0,0.0,0.0,0.0,0.0,0.0,-4.8901,-4.9296,-5.0516,-5.1291,-5.1274,-5.1207,-5.1132,-5.1043,0.0,0.0,0.0,0.0,0.0,0.0,-5.1245,-5.1291,-5.1338,-5.1386,-5.1346,-5.1266,-5.1225,-5.0515,-4.9278,-4.8604,-4.7643,-4.6463,-4.5398,-4.4776,-4.4549,-4.477,-4.4859,-4.4952,0.0,0.0,0.0,0.0,0.0,0.0,0.0,0.0,0.0,0.0,0.0,0.0,0.0,0.0,0.0,0.0,0.0,0.0,0.0,0.0,0.0,0.0,0.0,0.0,0.0,0.0,0.0,0.0,0.0,0.0,0.0,0.0,0.0,0.0,0.0,-5.6629,-5.8354,-5.8153,-5.8511,-6.0204,-6.0358,-6.0242,-5.9954,-5.9935,-5.9704,-5.9165,-5.9146,-5.9011,-5.8704,-5.8146,-5.7703,-5.7434,-5.6555,-5.5943,-5.5644,-5.5206,-5.4764,-5.4312,-5.423,-5.4144,-5.4014,-5.4014,-5.3867,-5.3592,-5.3295,-5.3041,-5.2821,-5.3075,-5.3185,-5.3185,-5.3185,-5.2868,-5.2291,0.0,0.0,0.0,0.0,0.0,0.0,0.0,0.0,0.0,0.0,-4.8107,-4.9114,-5.0095,-5.0851,-5.1277,-5.1207,-5.1127,-5.1037,-5.0906,-5.0773,0.0,0.0,0.0,0.0,-5.1181,-5.1211,-5.1253,-5.1389,-5.1404,-5.1406,-5.1404,-5.1266,-5.0314,-4.869,-4.8424,-4.7388,-4.5766,-4.5371,-4.5052,-4.4751,-4.4221,-4.402,-4.4113,0.0,0.0,0.0,0.0,0.0,0.0,0.0,0.0,0.0,0.0,0.0,0.0,0.0,0.0,0.0,0.0,0.0,0.0,0.0,0.0,0.0,0.0,0.0,0.0,0.0,0.0,0.0,0.0,0.0,0.0,0.0,0.0,0.0,-5.7529,-5.6705,-5.6649,-5.8453,-5.7688,-5.7657,-5.93,-5.9454,-5.9819,-6.0666,-6.0723,-6.0723,-6.0723,-6.0723,-6.0319,-5.9492,-5.9435,-5.905,-5.828,-5.7832,-5.7478,-5.7198,-5.6607,-5.6138,-5.5824,-5.561,-5.5541,-5.5519,-5.5519,-5.5078,-5.4308,-5.3537,-5.2747,-5.2105,-5.2839,-5.3133,-5.3133,-5.3133,-5.2795,-5.2154,0.0,0.0,0.0,0.0,0.0,0.0,0.0,0.0,0.0,0.0,-4.8557,-4.9738,-5.0153,-5.0818,-5.1223,-5.1207,-5.1054,-5.0894,-5.0764,0.0,0.0,0.0,0.0,0.0,-5.1056,-5.1147,-5.1229,-5.1241,-5.1351,-5.1405,-5.1405,-5.1357,-5.041,-4.8693,-4.863,-4.7545,-4.5773,-4.5423,-4.5063,-4.4688,-4.4416,0.0,-4.4229,0.0,0.0,0.0,0.0,0.0,0.0,0.0,0.0,0.0,0.0,0.0,0.0,0.0,0.0,0.0,0.0,0.0,0.0,0.0,0.0,0.0,0.0,0.0,0.0,0.0,0.0,0.0,0.0,0.0,0.0,0.0,0.0,-5.655,-5.6679,-5.6339,-5.6491,-5.7625,-5.7312,-5.7426,-5.8531,-5.8627,-5.8723,-5.8973,-5.8992,-5.8992,-5.8992,-5.8992,-5.8877,-5.8646,-5.8011,-5.758,-5.7368,-5.6196,-5.5563,-5.5474,-5.478,-5.4326,-5.4146,-5.4002,-5.3894,-5.3867,-5.3867,-5.3739,-5.3518,-5.3277,-5.3057,-5.2784,-5.183,-5.1463,-5.1463,-5.1463,-5.0886,-4.9991,0.0,0.0,0.0,0.0,0.0,0.0,0.0,0.0,0.0,0.0,-4.9133,-5.0052,-5.0557,-5.0992,-5.1227,-5.1202,-5.0672,-5.0299,-5.0161,0.0,0.0,0.0,0.0,-5.0983,-5.1043,-5.1113,-5.1187,-5.1241,-5.1325,-5.1354,-5.1363,-5.1387,-5.0459,-4.8743,-4.8701,-4.7659,-4.5865,-4.5588,-4.5314,-4.5052,0.0,0.0,-4.4265,-4.4269,-4.4199,-4.4177,-4.4942,-4.5378,-4.5679,-4.6477,0.0,0.0,0.0,0.0,0.0,0.0,0.0,0.0,0.0,0.0,0.0,0.0,0.0,0.0,0.0,0.0,0.0,0.0,0.0,0.0,0.0,0.0,0.0,0.0,-5.6606,-5.6555,-5.6443,-5.6246,-5.6291,-5.679,-5.6616,-5.6799,-5.7665,-5.7761,-5.7915,-5.828,-5.83,-5.83,-5.83,-5.83,-5.83,-5.83,-5.7819,-5.753,-5.753,-5.642,-5.5849,-5.5834,-5.5007,-5.4574,-5.4515,-5.4331,-5.4243,-5.4216,-5.4216,-5.4014,-5.3683,-5.3332,-5.3004,0.0,0.0,0.0,0.0,0.0,-4.9603,-4.8838,0.0,0.0,0.0,0.0,0.0,0.0,0.0,0.0,0.0,0.0,0.0,-5.0242,-5.1108,-5.1243,-5.1253,-5.1229,-5.0222,-4.9546,0.0,0.0,0.0,-5.0635,-5.0789,-5.0932,-5.1043,-5.1056,-5.1114,-5.1233,-5.1278,-5.1286,-5.1274,-5.1343,-5.0468,-4.8807,-4.8738,-4.7692,-4.6,-4.579,-4.5645,-4.5522,0.0,0.0,-4.4308,-4.46,-4.4513,-4.4308,-4.4624,-4.5057,-4.5515,-4.583,0.0,0.0,0.0,0.0,0.0,0.0,0.0,0.0,0.0,0.0,0.0,0.0,0.0,0.0,0.0,0.0,0.0,0.0,0.0,0.0,0.0,0.0,0.0,0.0,-5.6606,-5.6606,-5.6606,-5.6314,-5.6116,-5.6097,-5.588,-5.6024,-5.6772,-5.6849,-5.7165,-5.7953,-5.8011,-5.8011,-5.8011,0.0,0.0,0.0,0.0,-5.8011,-5.8011,-5.7353,-5.7024,-5.7008,-5.6069,-5.562,-5.562,-5.5426,-5.5317,-5.5317,-5.5317,-5.4913,-5.4216,-5.35,-5.2729,-5.1977,-5.1885,-5.1773,-5.1425,-4.9729,-4.8717,-4.8171,0.0,0.0,0.0,0.0,0.0,0.0,0.0,0.0,0.0,-4.8929,-4.9944,-5.0759,-5.1156,-5.116,-5.1172,-5.1262,-5.0242,-4.9509,0.0,0.0,-5.0336,-5.0457,-5.0587,-5.0678,-5.0694,-5.0809,-5.0877,-5.0905,-5.1053,-5.1138,-5.1141,-5.1257,-5.0412,-4.8805,-4.8799,-4.7745,-4.5985,-4.5782,-4.5508,0.0,0.0,0.0,-4.4827,-4.4732,-4.4674,-4.4637,-4.4908,-4.5125,-4.5292,-4.5572,-4.6254,-4.7136,-4.801,0.0,0.0,0.0,0.0,0.0,0.0,0.0,0.0,0.0,0.0,0.0,0.0,0.0,0.0,0.0,0.0,0.0,0.0,0.0,0.0,-5.6606,-5.6606,-5.6606,-5.6606,-5.6406,-5.6212,-5.611,-5.5951,-5.5895,-5.5955,-5.5953,-5.6011,-5.6184,-5.6203,-5.6203,-5.6203,-5.6203,-5.6203,-5.6203,-5.6203,-5.6203,-5.6203,-5.5581,-5.5265,-5.5265,0.0,0.0,-5.3961,-5.3771,-5.3665,-5.3665,-5.3665,-5.3592,-5.3427,-5.3259,-5.2729,-5.194,-5.1279,-5.0378,-4.9343,-4.859,-4.7606,-4.6568,0.0,0.0,0.0,0.0,0.0,0.0,0.0,0.0,0.0,0.0,-4.9689,-5.0046,-5.0402,-5.0114,-4.9928,-4.9991,-4.9367,0.0,0.0,-4.9569,-5.0265,-5.0726,-5.0758,-5.0767,-5.0789,-5.0781,-5.0769,-5.0798,-5.0998,-5.1054,-5.0951,-5.1186,-5.0357,-4.8652,-4.8767,-4.7779,-4.6045,-4.5915,-4.5678,0.0,0.0,0.0,-4.5229,-4.5061,-4.4893,-4.4788,-4.5135,-4.5167,-4.5096,-4.54,-4.6071,-4.6954,-4.7828,-4.8971,-5.0289,0.0,0.0,0.0,0.0,0.0,0.0,0.0,0.0,0.0,0.0,0.0,0.0,0.0,0.0,-5.6606,0.0,0.0,-5.6606,-5.6606,-5.6606,-5.6606,-5.6606,-5.6506,-5.6363,-5.6122,-5.5982,-5.5855,-5.5705,-5.5703,-5.5876,-5.6329,-5.6349,-5.653,-5.6973,-5.6588,-5.6349,-5.6349,-5.5934,-5.5629,-5.5497,-5.5037,-5.4682,-5.4441,-5.3795,-5.3461,-5.34,-5.3251,-5.3185,-5.3185,-5.3185,-5.3185,-5.3185,-5.3185,-5.2968,-5.2564,-5.216,-5.0772,-4.8923,-4.8448,-4.7473,-4.6361,0.0,0.0,0.0,0.0,0.0,0.0,0.0,0.0,0.0,0.0,0.0,-4.9096,-4.9512,-4.9001,-4.8582,0.0,0.0,0.0,0.0,-4.9296,-5.0235,-5.1036,-5.0928,-5.0867,-5.0898,-5.0772,-5.0728,-5.0761,-5.0985,-5.1011,-5.087,-5.1167,-5.0323,-4.8569,-4.8708,-4.7772,-4.6093,-4.6001,0.0,0.0,0.0,0.0,-4.5531,-4.5429,-4.521,-4.5014,-4.5341,-4.5292,-4.512,-4.5381,-4.6061,-4.6935,-4.7865,-4.8721,-4.9682,-5.1393,-5.19,0.0,0.0,0.0,0.0,0.0,0.0,0.0,0.0,0.0,-5.6514,-5.6338,-5.6319,-5.626,-5.6104,-5.6207,-5.6326,-5.6326,-5.6484,-5.6606,-5.6606,-5.6606,-5.6485,-5.6148,-5.6005,-5.588,-5.5716,-5.5838,-5.6252,-5.6945,-5.7157,-5.755,-5.8261,-5.7473,-5.7003,-5.7003,-5.6145,-5.5573,-5.5301,-5.4966,-5.4554,-5.4102,-5.3681,-5.342,-5.3297,-5.323,-5.3185,-5.3185,-5.3185,-5.3185,-5.3185,-5.3185,-5.3185,-5.3185,-5.31,-5.1656,-4.959,-4.9021,-4.7963,-4.682,0.0,0.0,0.0,0.0,0.0,0.0,0.0,0.0,0.0,0.0,0.0,0.0,0.0,0.0,0.0,0.0,0.0,0.0,-4.838,-4.9889,-5.0858,-5.0918,-5.0782,-5.0677,-5.0567,-5.0703,-5.0728,-5.0625,-5.0937,-5.1093,-5.1068,-5.1219,-5.04,-4.8753,-4.8724,-4.7734,-4.6092,-4.5963,0.0,0.0,0.0,0.0,-4.5684,-4.5668,-4.5637,-4.5615,-4.5658,-4.5681,-4.5715,-4.5737,-4.6324,-4.7213,-4.8083,-4.8922,-4.9772,-5.0888,0.0,-5.1522,-5.246,-5.3299,-5.407,-5.4898,-5.5186,-5.5463,0.0,0.0,-5.6207,-5.5428,-5.5272,-5.5058,-5.434,-5.4837,-5.5363,-5.5363,-5.6065,-5.6606,-5.6606,-5.6606,-5.6485,-5.6148,-5.6084,-5.5975,-5.5726,-5.6406,-5.6887,-5.6983,-5.7723,-5.8204,-5.83,-5.7473,-5.7003,-5.7003,-5.6145,-5.5573,-5.5301,-5.4966,-5.4554,-5.4102,-5.3681,-5.342,-5.3297,-5.323,-5.3185,-5.3185,-5.3185,-5.3185,-5.3185,-5.3185,-5.3185,-5.3143,-5.2694,-5.2024,-5.1237,-5.0463,-4.9073,-4.7596,0.0,0.0,0.0,0.0,0.0,0.0,0.0,0.0,0.0,0.0,0.0,0.0,0.0,0.0,0.0,0.0,0.0,0.0,-4.8565,-5.0231,-5.1206,-5.1131,-5.1003,-5.0921,-5.0844,-5.0817,-5.0778,-5.0722,-5.0972,-5.1043,-5.0919,-5.065,-4.985,-4.8617,-4.8158,-4.7212,-4.5982,-4.5923,0.0,0.0,0.0,0.0,-4.5708,-4.5708,-4.5766,-4.5848,-4.5745,-4.5719,0.0,0.0,-4.6623,-4.7809,-4.8218,-4.9251,-5.0403,-5.0946,-5.1122,0.0,-5.1665,-5.2422,-5.315,-5.3453,-5.395,-5.4436,-5.4806,-5.4927,-5.4831,-5.448,-5.4402,-5.4305,-5.3954,-5.4612,-5.5204,0.0,-5.5987,-5.6606,-5.6606,-5.6606,-5.6485,-5.6148,-5.6544,-5.6753,-5.6487,-5.6791,-5.7407,-5.8377,-5.88,-5.9223,-5.9723,-5.8473,-5.7761,-5.7761,-5.6415,-5.5485,-5.5009,-5.4783,-5.4373,-5.3757,-5.3502,-5.3318,-5.3251,-5.3206,-5.3185,-5.3185,-5.3185,-5.3185,-5.3185,-5.3185,-5.3185,-5.3185,-5.2955,-5.2338,-5.1515,-5.0872,-4.966,-4.8327,0.0,0.0,0.0,0.0,0.0,0.0,0.0,0.0,0.0,0.0,0.0,0.0,0.0,0.0,0.0,0.0,0.0,0.0,0.0,-5.0188,-5.1124,-5.1316,-5.1238,0.0,-5.1106,-5.0996,-5.0914,-5.0877,-5.1074,-5.1075,-5.0924,-5.0505,-4.9651,-4.8472,-4.7904,-4.6986,-4.5838,-4.5837,0.0,0.0,0.0,0.0,-4.5761,-4.5771,-4.5861,-4.5986,-4.5867,-4.5809,0.0,0.0,-4.7152,-4.8399,-4.8657,-4.9744,-5.0953,-5.1089,-5.112,-5.1139,-5.1201,-5.1658,-5.2188,-5.2366,-5.2908,-5.3485,-5.3719,-5.3808,-5.3779,-5.3545,-5.3487,-5.3428,-5.3195,-5.388,-5.453,-5.4764,-5.5591,-5.6274,-5.6536,-5.6575,-5.653,-5.6472,-5.7023,-5.7482,-5.7681,-5.7684,-5.8184,-5.9415,-5.9723,-6.0127,-6.0762,-5.9415,-5.8531,-5.8319,-5.6838,-5.5648,-5.4806,-5.4674,-5.4221,-5.3499,-5.3359,-5.3274,-5.3185,-5.3185,-5.3185,-5.3185,-5.3185,-5.3185,-5.3185,-5.3185,-5.3185,-5.3185,-5.3185,-5.2631,-5.1768,-5.121,-5.0208,-4.912,0.0,0.0,0.0,0.0,0.0,0.0,0.0,0.0,0.0,0.0,0.0,0.0,0.0,0.0,0.0,0.0,0.0,0.0,0.0,-4.9648,-5.0527,-5.1359,-5.1397,-5.1291,-5.1092,-5.1226,-5.1218,-5.1099,-5.123,-5.1284,-5.1288,-5.113,-5.015,-4.8482,-4.8346,-4.7315,-4.5717,-4.5717,0.0,0.0,0.0,0.0,-4.5906,-4.5978,-4.5997,-4.6012,-4.6064,0.0,0.0,0.0,-4.7947,-4.8823,-4.9607,-5.0508,0.0,-5.1202,-5.1204,-5.1206,-5.1211,-5.123,-5.1429,-5.2211,-5.2426,-5.2665,-5.35,-5.3695,-5.3468,-5.2626,-5.2451,-5.2218,-5.1422,-5.1983,-5.2855,-5.3706,-5.4591,-5.5451,-5.6384,-5.6504,-5.6714,-5.7282,-5.7373,-5.7928,0.0,-5.9415,-5.9454,-5.9492,-6.0281,-6.0762,-6.08,-5.9954,-5.9108,-5.8319,-5.7434,-5.6261,-5.4806,-5.4674,-5.4221,-5.3499,-5.3359,-5.3274,-5.3185,-5.3185,-5.3185,-5.3185,-5.3185,-5.3185,-5.3185,-5.3185,-5.3185,-5.3185,-5.3185,-5.2868,-5.2315,-5.1775,-5.0893,-4.9959,0.0,0.0,0.0,0.0,0.0,0.0,0.0,0.0,0.0,0.0,0.0,0.0,0.0,0.0,0.0,0.0,0.0,0.0,0.0,-5.0424,-5.1085,-5.1387,-5.1406,-5.1363,-5.1293,-5.1343,-5.133,-5.1222,-5.1273,-5.1241,-5.1151,-5.0475,-4.9492,-4.8273,-4.7649,-4.6706,-4.5563,-4.5563,0.0,0.0,0.0,0.0,-4.5769,-4.5793,-4.5908,-4.6072,0.0,0.0,0.0,0.0,-4.7986,-4.8855,-4.9699,-5.0584,-5.1288,-5.1225,-5.1191,-5.1204,-5.1194,-5.1192,-5.1264,-5.1538,-5.161,-5.1688,-5.1979,-5.2037,-5.196,-5.1668,-5.161,-5.1513,-5.126,-5.1919,-5.2792,-5.3662,-5.4528,-5.54,-5.6309,-5.6468,-5.6717,-5.7273,-5.7882,0.0,0.0,0.0,0.0,-6.0319,-6.0627,-6.08,-6.08,-5.9973,-5.9127,-5.8338,-5.742,-5.6199,-5.4674,-5.4535,-5.4103,-5.3359,-5.3274,-5.3209,-5.3185,-5.3185,-5.3185,-5.3185,-5.3185,-5.3185,-5.3185,-5.3185,-5.3185,-5.3185,-5.3185,-5.2868,-5.2384,-5.2197,-5.1449,-5.0481,0.0,0.0,0.0,0.0,0.0,0.0,0.0,0.0,0.0,0.0,0.0,0.0,0.0,0.0,0.0,0.0,0.0,0.0,0.0,0.0,-5.1017,-5.1378,-5.1403,-5.1406,-5.1398,-5.1373,-5.1341,-5.1301,-5.1245,-5.1189,-5.1076,-5.0233,-4.9327,-4.8364,-4.7348,-4.6396,0.0,0.0,0.0,0.0,0.0,0.0,-4.5715,-4.5786,-4.5908,0.0,0.0,0.0,0.0,0.0,-4.8275,-4.8942,-5.0127,-5.0878,-5.1291,-5.1255,-5.1222,-5.1196,-5.12,-5.1202,-5.1202,-5.1202,-5.1202,-5.119,-5.114,-5.1128,-5.1121,-5.1042,-5.1082,-5.1128,-5.1128,-5.1622,-5.241,-5.3577,-5.4231,-5.502,-5.6203,-5.6678,-5.7093,-5.7653,-5.8568,-5.9332,0.0,0.0,0.0,-6.0762,-6.08,-6.08,-6.08,-6.0262,-5.9442,-5.8304,-5.7674,-5.6454,-5.4579,-5.4458,-5.4015,-5.3274,-5.3227,-5.3185,-5.3185,-5.3185,-5.3185,-5.3185,-5.3185,-5.3185,-5.3185,-5.3185,-5.3185,-5.3185,-5.3185,-5.2995,-5.2631,-5.2268,-5.1676,-5.1017,0.0,0.0,0.0,0.0,0.0,0.0,0.0,0.0,0.0,0.0,0.0,0.0,0.0,0.0,0.0,0.0,0.0,0.0,0.0,0.0,0.0,-5.1347,-5.1376,-5.1386,-5.1402,-5.1343,-5.1308,-5.1306,-5.1169,-5.1093,-5.1074,-5.036,-4.9571,-4.8677,-4.7386,-4.6354,0.0,0.0,0.0,0.0,0.0,0.0,-4.5712,-4.5904,0.0,0.0,0.0,0.0,0.0,0.0,0.0,-4.9215,-5.0878,-5.1361,-5.1299,-5.1295,-5.1246,-5.1208,-5.1202,-5.1202,-5.1196,-5.1196,-5.119,-5.1146,-5.1027,-5.0978,-5.0929,-5.075,-5.0863,-5.0978,0.0,0.0,-5.1721,-5.3352,-5.363,-5.4237,-5.5981,-5.6978,-5.7768,0.0,0.0,0.0,0.0,0.0,0.0,-6.0788,0.0,-6.08,-6.0788,-6.08,-6.0015,-5.8323,-5.8215,-5.7021,-5.4578,-5.4411,-5.3962,-5.3185,-5.3185,-5.3185,-5.3185,-5.3185,-5.3185,-5.3185,-5.3185,-5.3185,-5.3185,-5.3185,-5.3185,-5.3185,-5.3185,-5.3185,-5.306,-5.2036,-5.1601,-5.1525,0.0,0.0,0.0,0.0,0.0,0.0,0.0,0.0,0.0,0.0,0.0,0.0,0.0,0.0,0.0,0.0,0.0,0.0,0.0,0.0,0.0,0.0,0.0,0.0,0.0,0.0,0.0,0.0,0.0,-5.1018,-5.084,-4.9681,-4.8628,0.0,-4.6519,-4.5524,0.0,0.0,0.0,0.0,0.0,-4.5457,-4.5715,0.0,0.0,0.0,0.0,0.0,0.0,0.0,0.0,0.0,-5.1268,-5.1386,-5.1342,-5.1241,-5.1203,-5.1191,-5.1206,-5.1202,-5.1184,-5.1088,-5.1048,-5.1,-5.0819,-5.0775,-5.0758,-5.0705,-5.075,-5.0775,0.0,0.0,0.0,-5.2412,-5.2673,0.0,-5.4948,-5.5927,0.0,-5.8131,0.0,-5.9875,-6.0559,-6.0629,0.0,0.0,-6.0704,-6.0697,-6.0655,-6.0704,-6.0205,-5.9063,-5.8393,-5.7167,-5.5343,-5.4112,-5.34,-5.3185,-5.3185,-5.3185,-5.3185,-5.3185,-5.3185,-5.3185,-5.3185,-5.3185,-5.3185,-5.3185,-5.3185,-5.3185,-5.3185,-5.3185,-5.3121,-5.2431,-5.1939,-5.1525,0.0,0.0,0.0,0.0,0.0,0.0,0.0,0.0,0.0,0.0,0.0,0.0,0.0,0.0,0.0,0.0,0.0,0.0,0.0,0.0,0.0,0.0,0.0,0.0,0.0,0.0,0.0,0.0,0.0,0.0,0.0,-4.9476,-4.8663,-4.7939,-4.6439,-4.5518,0.0,0.0,0.0,0.0,0.0,0.0,0.0,0.0,0.0,0.0,0.0,0.0,0.0,0.0,0.0,-5.1367,-5.1364,-5.1334,-5.1295,-5.1229,0.0,-5.1196,-5.1133,-5.1115,-5.1075,-5.0902,-5.0871,-5.0819,-5.0653,-5.0596,-5.0606,-5.0538,-5.0577,0.0,-5.0596,-5.0761,0.0,0.0,0.0,0.0,-5.3962,-5.5205,-5.6383,0.0,-5.8718,0.0,-6.0482,-6.0552,-6.0552,0.0,-6.0629,-6.0642,-6.0604,-6.0642,-6.0227,-5.9288,-5.8438,-5.7039,-5.5055,-5.3805,-5.3185,-5.3185,-5.3185,-5.3185,-5.3185,-5.3185,-5.3185,-5.3185,0.0,-5.3185,-5.3185,-5.3185,-5.3185,-5.3185,-5.3185,-5.3185,-5.3121,-5.2338,-5.1866,-5.1493,0.0,0.0,0.0,0.0,0.0,0.0,0.0,0.0,0.0,0.0,0.0,0.0,0.0,0.0,0.0,0.0,0.0,0.0,0.0,0.0,0.0,0.0,0.0,0.0,0.0,0.0,0.0,0.0,0.0,0.0,0.0,0.0,0.0,0.0,0.0,0.0,0.0,0.0,0.0,0.0,0.0,0.0,0.0,0.0,0.0,0.0,0.0,0.0,0.0,0.0,-4.9842,-5.1295,-5.1288,-5.1229,-5.1187,-5.1187,-5.1166,-5.1108,-5.1027,-5.0978,-5.0914,-5.0724,-5.067,-5.0633,-5.0507,-5.0466,-5.0442,-5.0317,0.0,-5.0466,-5.0466,-5.0587,-5.092,-5.1672,0.0,-5.2124,-5.2982,-5.4545,-5.5883,-5.6687,-5.8354,-5.9713,-6.0422,-6.0485,-6.0485,-6.0485,-6.0539,-6.0578,-6.0578,-6.0578,-6.0124,-5.9063,-5.8142,-5.6582,-5.4315,-5.358,-5.3185,-5.3185,-5.3185,-5.3185,-5.3185,-5.3185,-5.3185,-5.3185,-5.3185,-5.3185,-5.3185,-5.3185,-5.3185,-5.3185,-5.3185,-5.3185,-5.3082,-5.2084,-5.1651,-5.1449,0.0,0.0,0.0,0.0,0.0,0.0,0.0,0.0,0.0,0.0,-4.52,-4.5557,0.0,0.0,0.0,0.0,0.0,0.0,0.0,0.0,0.0,0.0,0.0,0.0,0.0,0.0,0.0,0.0,0.0,0.0,0.0,0.0,0.0,0.0,0.0,0.0,0.0,0.0,0.0,0.0,0.0,0.0,0.0,0.0,0.0,0.0,0.0,0.0,0.0,0.0,-4.9811,-5.1291,-5.1223,-5.1139,-5.1049,-5.1164,-5.1004,-5.0827,-5.0963,-5.0879,-5.0724,-5.0567,-5.0528,-5.0507,-5.0374,-5.0329,0.0,0.0,-5.0325,-5.0329,-5.0329,-5.0434,-5.0586,-5.0739,-5.0846,-5.12,-5.1951,-5.3507,-5.5082,0.0,-5.8125,0.0,-6.034,-6.0417,0.0,0.0,-6.0431,-6.0431,-6.0431,-6.0485,-5.9777,-5.8181,-5.6702,-5.5407,-5.4315,-5.358,-5.3185,-5.3185,-5.3185,-5.3185,-5.3185,-5.3185,-5.3185,-5.3185,-5.3185,0.0,-5.3185,-5.3185,-5.3185,-5.3185,-5.3185,-5.3185,-5.3103,-5.2477,-5.1988,-5.1411,0.0,0.0,0.0,0.0,0.0,0.0,0.0,-4.5405,-4.6136,-4.5816,-4.6464,-4.6695,-4.6102,-4.6465,0.0,0.0,0.0,0.0,0.0,0.0,0.0,0.0,0.0,0.0,0.0,0.0,0.0,0.0,0.0,0.0,0.0,0.0,0.0,0.0,0.0,0.0,0.0,0.0,0.0,0.0,0.0,0.0,0.0,0.0,0.0,0.0,0.0,0.0,0.0,0.0,-4.9278,-5.047,-5.1021,-5.1041,-5.0879,-5.1056,-5.091,-5.0715,-5.0726,-5.0672,-5.0558,-5.0432,-5.0407,-5.0385,-5.0306,0.0,0.0,0.0,-5.0302,-5.0302,-5.0302,-5.0352,0.0,-5.0407,-5.0445,-5.0619,-5.0966,-5.2457,0.0,0.0,0.0,0.0,0.0,0.0,-6.0403,-6.0403,-6.0403,-6.0403,-6.0403,-6.001,-5.9207,-5.7944,-5.6539,-5.5324,-5.4315,-5.3738,-5.3359,-5.3185,-5.3185,-5.3185,-5.3185,-5.3185,-5.3185,-5.3185,-5.3185,0.0,-5.3185,-5.3185,-5.3185,-5.3185,-5.3185,-5.3185,-5.3088,-5.2136,-5.1612,-5.1203,0.0,0.0,0.0,0.0,0.0,0.0,0.0,-4.5789,-4.6567,-4.6766,-4.7439,-4.7781,-4.7458,-4.7169,-4.7281,0.0,0.0,0.0,0.0,0.0,0.0,0.0,0.0,0.0,0.0,0.0,0.0,0.0,0.0,0.0,0.0,0.0,0.0,0.0,0.0,0.0,0.0,0.0,0.0,0.0,0.0,0.0,0.0,0.0,0.0,0.0,0.0,0.0,0.0,0.0,-4.848,-4.9365,-5.0498,-5.0747,-5.0678,-5.0871,-5.0778,-5.0606,-5.0527,-5.0476,-5.0432,-5.0337,-5.0302,-5.0302,-5.0302,-5.0302,0.0,-5.0302,-5.0302,-5.0302,-5.0302,-5.0302,-5.0302,0.0,-5.0302,-5.0302,0.0,0.0,0.0,0.0,0.0,0.0,0.0,0.0,0.0,-6.0403,-6.0403,-6.0313,-6.0122,-5.9319,-5.8479,-5.7638,-5.6444,-5.5334,-5.4315,-5.3907,-5.3524,-5.3185,-5.3185,-5.3185,-5.3185,-5.3185,-5.3185,-5.3185,-5.3185,0.0,0.0,-5.3185,-5.3185,-5.3167,-5.3023,-5.2949,-5.2797,-5.1573,-5.1048,-5.0765,0.0,0.0,0.0,0.0,0.0,0.0,0.0,-4.4902,-4.583,-4.6696,-4.7457,-4.814,-4.8737,-4.81,-4.7963,0.0,0.0,0.0,0.0,0.0,0.0,0.0,0.0,0.0,0.0,0.0,0.0,0.0,0.0,0.0,0.0,0.0,0.0,0.0,0.0,0.0,0.0,0.0,0.0,0.0,0.0,0.0,0.0,0.0,0.0,0.0,0.0,0.0,0.0,0.0,0.0,-4.8318,-4.9337,-5.0046,-5.0557,-5.0698,0.0,0.0,-5.0466,-5.041,-5.0325,-5.0302,-5.0302,-5.0302,-5.0302,0.0,-5.0302,-5.0302,-5.0302,-5.0302,-5.0302,-5.0302,-5.0302,-5.0302,0.0,-5.0302,0.0,0.0,0.0,0.0,0.0,0.0,0.0,0.0,0.0,-6.0403,-6.0403,-6.0045,-5.9262,-5.8459,-5.76,-5.6753,-5.5556,-5.4714,-5.4296,-5.3907,-5.3524,-5.3185,-5.3185,-5.3185,-5.3185,-5.3185,-5.3185,-5.3185,-5.3185,0.0,0.0,-5.3185,-5.3185,-5.3133,-5.2399,-5.2105,-5.2013,-5.1147,-5.0526,-4.9973,0.0,0.0,0.0,0.0,0.0,0.0,-4.3988,-4.5169,-4.6256,-4.6742,-4.7836,-4.8688,-4.897,-4.8698,-4.8752,0.0,0.0,0.0,0.0,0.0,0.0,0.0,0.0,0.0,0.0,0.0,0.0,-4.9993,-4.9453,0.0,0.0,0.0,0.0,0.0,0.0,0.0,0.0,0.0,0.0,0.0,0.0,0.0,0.0,0.0,0.0,0.0,0.0,0.0,0.0,0.0,0.0,0.0,-4.8814,-4.9435,0.0,0.0,-5.0453,-5.0314,-5.0363,-5.034,-5.0248,-5.0051,-5.0144,-5.0181,-4.9784,0.0,-4.9993,-4.9993,-4.9993,-5.0063,-5.0248,-5.0302,-5.0302,0.0,0.0,0.0,0.0,0.0,0.0,0.0,0.0,0.0,0.0,0.0,-6.0179,-5.9663,-5.9625,-5.9033,-5.7676,-5.7791,-5.7504,-5.6625,-5.566,-5.4874,-5.4315,-5.4141,-5.3757,-5.3185,-5.3185,-5.3185,-5.3185,-5.3185,-5.3185,-5.3185,-5.3185,0.0,0.0,-5.2674,-5.2472,-5.2399,-5.1591,-5.1279,-5.1169,-5.0362,-4.9949,-4.964,0.0,0.0,0.0,0.0,0.0,-4.3675,-4.3949,-4.5206,-4.6256,-4.6742,-4.7901,-4.8767,-4.897,-4.9199,-4.9562,-5.0136,0.0,0.0,0.0,0.0,0.0,0.0,0.0,0.0,0.0,0.0,-4.9845,-5.0182,-4.926,-4.8669,0.0,0.0,0.0,0.0,0.0,0.0,0.0,0.0,0.0,0.0,0.0,0.0,0.0,0.0,0.0,0.0,0.0,0.0,0.0,0.0,0.0,0.0,0.0,0.0,0.0,0.0,-5.0355,-5.029,-5.0169,-5.0156,-5.0063,-4.973,-4.983,-4.987,0.0,0.0,-4.9688,-4.9771,-4.9803,-4.9897,-5.0236,-5.0302,-5.0302,0.0,0.0,-5.0302,0.0,0.0,0.0,0.0,0.0,-5.8326,0.0,-5.9816,-5.9759,-5.9153,-5.888,-5.8116,-5.6683,-5.7179,-5.7122,-5.6262,-5.5708,-5.5085,-5.4446,-5.4347,-5.398,-5.3357,-5.3248,-5.3185,-5.3185,-5.3185,-5.3185,-5.3206,-5.2968,0.0,0.0,-5.1977,-5.1646,-5.1555,-5.0747,-5.0453,-5.0343,-4.9517,-4.9225,-4.9133,0.0,0.0,0.0,0.0,0.0,0.0,-4.3949,-4.4617,-4.5536,-4.6638,-4.7456,-4.8193,-4.894,-4.9644,-5.0293,-5.0841,0.0,0.0,0.0,0.0,0.0,0.0,0.0,0.0,0.0,0.0,-5.0681,-5.1087,-4.9541,-4.8389,-4.7607,-4.726,-4.625,-4.4727,0.0,0.0,0.0,0.0,0.0,0.0,0.0,0.0,0.0,0.0,0.0,0.0,0.0,0.0,0.0,0.0,0.0,0.0,0.0,0.0,0.0,0.0,-5.0302,-5.0224,-4.9903,-4.9817,-4.9716,-4.9394,-4.9299,-4.9299,0.0,-4.9299,-4.9409,-4.973,-4.9803,-4.9897,-5.0236,-5.0302,-5.0302,-5.0302,0.0,0.0,0.0,0.0,0.0,0.0,0.0,-5.8555,-6.0217,-5.9606,-5.9095,-5.9095,-5.8364,0.0,-5.6645,-5.6619,-5.6243,-5.5441,-5.5403,-5.52,-5.4791,-5.4463,-5.4105,-5.3701,-5.3357,-5.3185,-5.3185,-5.3185,-5.3185,-5.317,0.0,0.0,0.0,-5.1151,-5.082,-5.0729,-4.9941,-4.961,-4.9519,-4.8636,-4.8324,-4.8324,0.0,0.0,0.0,0.0,0.0,0.0,0.0,-4.5058,-4.6064,-4.6708,-4.7869,-4.8719,-4.897,-4.9199,-4.9756,-5.0805,0.0,0.0,0.0,0.0,0.0,0.0,0.0,0.0,0.0,0.0,-5.1208,-5.1581,-5.0301,-4.9137,-4.8053,-4.6838,-4.5718,-4.4673,-4.4121,0.0,0.0,0.0,0.0,0.0,0.0,0.0,0.0,0.0,0.0,0.0,0.0,0.0,0.0,0.0,0.0,0.0,0.0,0.0,0.0,0.0,0.0,0.0,-4.9599,-4.9632,-4.9674,-4.9097,-4.9129,-4.9174,-4.8729,-4.878,-4.9001,-4.908,-4.9302,-4.9556,-4.9903,-5.0144,-5.0302,-5.0302,-5.0302,0.0,0.0,0.0,0.0,-5.2747,-5.4811,-5.6855,0.0,0.0,-5.8039,-5.7447,-5.716,-5.6645,-5.5823,-5.5785,-5.567,-5.5422,-5.5127,-5.481,-5.4463,-5.4069,-5.3719,-5.3357,-5.3251,-5.3185,-5.3167,-5.2637,-5.238,0.0,0.0,0.0,0.0,-5.0306,-4.9996,-4.9904,-4.904,-4.871,-4.8673,-4.8398,-4.8306,-4.8306,0.0,0.0,0.0,0.0,0.0,0.0,0.0,-4.4625,-4.5743,-4.6679,-4.7841,-4.8697,-4.8968,-4.9376,-4.9953,-5.0751,0.0,0.0,0.0,0.0,0.0,0.0,0.0,0.0,0.0,-5.1881,-5.1732,-5.2068,-5.0618,-4.9344,-4.8269,-4.6966,-4.592,-4.5131,-4.4305,0.0,0.0,0.0,0.0,0.0,0.0,0.0,-4.3549,0.0,0.0,0.0,0.0,0.0,0.0,0.0,0.0,0.0,0.0,0.0,0.0,0.0,-4.9253,-4.9784,0.0,-4.9271,-4.9287,-4.8746,-4.8781,0.0,-4.8402,-4.8458,-4.8676,-4.8951,-4.9142,-4.9453,-4.9897,-5.0156,-5.0302,-5.0302,-5.0302,0.0,0.0,0.0,0.0,-5.248,0.0,0.0,0.0,-5.7409,-5.7179,-5.6625,-5.632,-5.5938,-5.5441,-5.5403,-5.5403,-5.5403,-5.5173,-5.484,-5.4495,-5.4104,-5.3757,-5.338,-5.2959,-5.2747,-5.2729,-5.1903,-5.1555,0.0,0.0,0.0,0.0,-4.9444,-4.9095,-4.9058,-4.8508,-4.8306,-4.8306,-4.8306,-4.8306,-4.8306,0.0,0.0,0.0,0.0,0.0,0.0,0.0,0.0,-4.4719,-4.6483,-4.7357,-4.8088,-4.8781,-4.9861,-5.0583,-5.061,0.0,0.0,0.0,0.0,0.0,0.0,0.0,0.0,-5.3701,-5.2664,-5.2258,-5.2494,-5.0616,-4.9226,-4.8288,-4.748,-4.6654,-4.5865,-4.5131,-4.4746,0.0,0.0,0.0,0.0,0.0,0.0,0.0,0.0,0.0,0.0,0.0,0.0,0.0,0.0,0.0,0.0,0.0,0.0,0.0,0.0,0.0,0.0,0.0,-4.8764,-4.8693,0.0,0.0,0.0,-4.8287,-4.8287,0.0,-4.9113,-4.9271,-4.9498,-5.01,-5.0278,-5.0302,-5.0302,-5.0302,-5.0302,0.0,-5.0978,0.0,0.0,-5.5288,0.0,-5.6396,-5.6415,-5.6454,-5.6511,-5.5823,-5.5403,-5.5403,-5.5403,-5.539,-5.539,-5.5333,-5.513,-5.4761,-5.4373,-5.3959,-5.357,-5.2456,-5.1903,-5.1885,-5.1077,-5.071,0.0,0.0,0.0,0.0,-4.8636,-4.8306,-4.8306,-4.8306,-4.8306,-4.8306,-4.8306,-4.8306,-4.8306,0.0,0.0,0.0,0.0,0.0,0.0,0.0,0.0,0.0,0.0,-4.6508,-4.7124,-4.7293,-4.8455,-4.9413,0.0,0.0,0.0,0.0,0.0,0.0,0.0,0.0,0.0,-5.3701,-5.3438,-5.3049,-5.2494,-5.1436,-5.0009,-4.8288,-4.748,-4.6654,-4.5883,-4.57,-4.5242,0.0,0.0,0.0,0.0,0.0,0.0,0.0,0.0,0.0,0.0,-4.3697,-4.3681,0.0,0.0,0.0,0.0,0.0,0.0,0.0,0.0,-4.7758,-4.842,-4.8249,0.0,-4.8623,-4.8172,-4.8072,-4.8092,0.0,-4.8226,-4.8286,-4.8495,-4.8932,-4.9363,-4.9512,-4.9955,-5.0302,-5.0302,-5.0302,-5.0267,-5.017,0.0,0.0,-5.2047,-5.2431,-5.3162,-5.4549,-5.4586,-5.4859,-5.5619,-5.5517,-5.5403,-5.5403,-5.5403,-5.5332,-5.5168,-5.4577,-5.4325,-5.4413,-5.3434,-5.2735,-5.2397,-5.1485,-5.1077,-5.1041,-5.0233,-4.9886,0.0,0.0,0.0,-4.86,-4.8379,-4.8306,-4.8306,-4.8306,-4.8306,-4.8306,-4.8306,-4.8306,-4.8306,0.0,0.0,0.0,0.0,0.0,0.0,0.0,0.0,0.0,0.0,0.0,0.0,0.0,0.0,0.0,0.0,0.0,0.0,0.0,0.0,0.0,0.0,0.0,0.0,-5.3462,-5.3482,-5.3076,-5.2264,-5.1393,-5.0264,-4.8875,-4.801,-4.7387,-4.6985,-4.658,-4.5901,0.0,0.0,0.0,0.0,-4.3835,0.0,0.0,0.0,0.0,0.0,-4.3375,-4.3394,0.0,-4.3446,-4.3394,-4.3396,0.0,0.0,0.0,0.0,-4.7177,-4.8088,-4.7988,-4.817,-4.8307,-4.8053,-4.7992,-4.8012,-4.809,0.0,0.0,0.0,0.0,0.0,0.0,-4.957,-4.9884,0.0,-5.0031,0.0,0.0,0.0,-5.0279,-5.0748,-5.1148,-5.1738,0.0,-5.3017,-5.3593,-5.4498,-5.4569,-5.476,-5.5146,-5.4784,-5.4509,-5.442,-5.3641,-5.3354,-5.3614,-5.2599,-5.1881,-5.1444,-5.0618,-5.0251,-5.0215,-4.937,-4.9003,0.0,0.0,0.0,-4.8306,-4.8306,-4.8306,-4.8306,-4.8306,-4.8306,-4.8306,-4.8306,-4.8306,-4.8306,0.0,0.0,0.0,0.0,0.0,0.0,0.0,0.0,0.0,0.0,0.0,0.0,0.0,0.0,0.0,0.0,0.0,0.0,0.0,0.0,0.0,0.0,0.0,-5.3143,-5.3143,-5.3014,-5.2556,-5.177,-5.0863,-5.0059,-4.9369,-4.8576,-4.8208,-4.8212,-4.7493,-4.6646,0.0,0.0,-4.5252,0.0,-4.436,0.0,0.0,0.0,0.0,0.0,0.0,0.0,0.0,-4.3376,-4.3287,-4.3214,-4.3323,0.0,0.0,0.0,0.0,0.0,-4.7884,-4.7907,-4.7951,-4.7951,-4.7951,-4.7951,0.0,0.0,0.0,0.0,0.0,0.0,0.0,-4.9187,0.0,0.0,0.0,0.0,-4.9912,-4.9978,-5.0005,-4.9912,-5.0631,0.0,-5.1087,-5.1741,-5.2518,-5.3362,-5.3419,-5.3741,-5.4484,-5.3817,-5.3404,-5.3389,-5.2613,-5.2258,-5.2427,-5.1755,-5.1174,-5.064,-4.9794,-4.9408,-4.939,-4.8636,-4.8306,-4.8306,0.0,0.0,-4.8306,-4.8306,-4.8306,-4.8306,-4.8306,-4.8306,-4.8306,-4.8306,-4.8306,-4.8306,0.0,0.0,0.0,0.0,0.0,0.0,0.0,0.0,0.0,0.0,0.0,0.0,0.0,0.0,0.0,0.0,0.0,0.0,0.0,0.0,0.0,0.0,-5.2783,-5.2868,-5.2868,-5.2174,-5.1444,-5.066,-4.9939,-4.9175,-4.841,-4.828,-4.813,-4.8052,-4.7904,-4.735,-4.6541,-4.6521,-4.6068,-4.5268,-4.4577,0.0,0.0,0.0,0.0,0.0,0.0,0.0,0.0,-4.3196,-4.3178,-4.3141,-4.3196,0.0,0.0,0.0,0.0,0.0,-4.7759,-4.7738,-4.7741,-4.7741,-4.7741,-4.778,0.0,0.0,0.0,0.0,0.0,0.0,0.0,-4.9027,-4.9405,0.0,0.0,-4.9759,0.0,0.0,-4.9807,-4.9898,0.0,-5.026,-5.1035,-5.1126,-5.1532,-5.2513,-5.2584,-5.2641,-5.2774,-5.266,-5.2527,-5.2413,-5.1567,-5.1005,-5.0783,-5.0652,-5.0372,-4.9952,-4.897,-4.8508,-4.8508,-4.8361,-4.8306,-4.8306,0.0,-4.8306,-4.8306,-4.8306,-4.8306,-4.8306,-4.8306,-4.8306,-4.8306,-4.8306,-4.8306,-4.8306,0.0,0.0,0.0,0.0,0.0,0.0,0.0,0.0,0.0,0.0,0.0,0.0,0.0,0.0,0.0,0.0,0.0,0.0,0.0,0.0,0.0,-5.1901,-5.2363,-5.2712,-5.2893,-5.2126,-5.1304,-5.0501,-4.9697,-4.8894,-4.809,-4.809,-4.8048,-4.7966,-4.7966,-4.7686,-4.7236,-4.7236,-4.6785,-4.5969,0.0,0.0,0.0,0.0,0.0,0.0,0.0,0.0,0.0,0.0,-4.3086,-4.3012,-4.3123,0.0,0.0,0.0,0.0,0.0,-4.7591,-4.7717,-4.7717,-4.7717,-4.7717,-4.7717,0.0,0.0,0.0,0.0,0.0,0.0,0.0,0.0,-4.8795,-4.9115,0.0,-4.9418,-4.9648,-4.9692,-4.9692,0.0,0.0,-4.9843,-5.0206,-5.0184,-5.0527,-5.1413,-5.1484,-5.1673,-5.2111,-5.1715,-5.1439,-5.1396,-5.0572,-5.0081,-4.9923,-4.9824,-4.9551,-4.9141,-4.8528,-4.8267,-4.8306,-4.8306,-4.8306,-4.8306,0.0,-4.8306,-4.8306,-4.8306,-4.8306,-4.8306,-4.8306,-4.8031,-4.759,-4.7168,-4.7003,-4.7003,0.0,0.0,0.0,0.0,0.0,0.0,0.0,0.0,0.0,0.0,0.0,0.0,0.0,0.0,0.0,0.0,0.0,0.0,0.0,0.0,-5.1086,-5.1285,-5.1882,-5.2345,-5.2594,-5.1809,-5.1006,-5.0206,-4.932,-4.8571,-4.797,-4.797,-4.7927,-4.7861,-4.7861,-4.7798,-4.7717,-4.7717,-4.7355,-4.6703,0.0,0.0,0.0,0.0,0.0,0.0,0.0,0.0,0.0,0.0,0.0,0.0,0.0,0.0,0.0,-4.5055,-4.587,-4.6685,-4.7482,-4.7717,-4.7753,-4.7913,0.0,0.0,0.0,0.0,0.0,0.0,0.0,0.0,0.0,-4.7931,0.0,-4.8819,-4.8957,-4.9094,-4.9345,-4.9548,-4.9608,-4.9505,-4.9578,-4.9608,-4.9524,-4.9509,-4.9753,-5.0372,-5.041,-5.0691,-5.1311,-5.0748,-5.041,-5.041,-4.9809,-4.9509,-4.9509,-4.9262,-4.8976,-4.8623,-4.8382,-4.8286,-4.8286,-4.8287,-4.8306,-4.8306,-4.8306,-4.8196,-4.8012,-4.8012,-4.7921,-4.7737,-4.7737,-4.737,-4.6727,-4.6122,-4.5902,-4.5902,0.0,0.0,0.0,0.0,0.0,0.0,0.0,0.0,0.0,0.0,0.0,0.0,0.0,0.0,0.0,0.0,0.0,0.0,0.0,0.0,-5.0528,-5.1267,-5.1357,-5.1398,-5.142,-5.0623,-4.9825,-4.9025,-4.8333,-4.7956,-4.7902,-4.7902,-4.784,-4.7699,-4.7699,-4.7717,-4.7717,-4.7717,-4.7681,-4.7482,-4.5924,0.0,0.0,0.0,0.0,0.0,0.0,0.0,0.0,0.0,0.0,0.0,0.0,0.0,-4.4258,-4.5055,-4.587,-4.6685,-4.7482,-4.7717,-4.788,-4.8619,-4.8239,0.0,-4.7717,-4.7717,0.0,-4.7717,0.0,0.0,0.0,-4.7931,-4.8212,-4.8569,-4.8837,-4.9027,-4.9044,0.0,-4.9505,-4.949,-4.9524,-4.9505,-4.9509,-4.9509,-4.9527,-4.9584,-4.9584,-4.9602,-4.9678,-4.9621,-4.9584,-4.9584,-4.9527,-4.9509,-4.9509,-4.9179,-4.8906,-4.8676,-4.8623,-4.8439,-4.8207,-4.8286,-4.8306,-4.8306,-4.8306,-4.7865,-4.7186,-4.7186,-4.6746,-4.6067,-4.6067,-4.603,-4.5975,-4.592,-4.5902,-4.5902,0.0,0.0,0.0,0.0,0.0,0.0,0.0,0.0,0.0,0.0,0.0,0.0,0.0,0.0,0.0,0.0,0.0,0.0,0.0,0.0,-4.9492,-4.98,-5.076,-5.0832,-4.9836,-5.0029,-4.9782,-4.902,-4.8179,-4.7798,-4.7798,-4.7798,-4.7759,-4.7717,-4.7717,-4.7717,-4.7717,-4.7717,-4.7717,-4.7572,-4.5943,-4.5291,0.0,0.0,0.0,0.0,0.0,0.0,0.0,0.0,-4.2901,-4.2901,0.0,-4.3118,-4.3607,-4.491,-4.5526,-4.6051,-4.7355,-4.7717,-4.7877,-4.8692,-4.8656,0.0,0.0,-4.8438,-4.8438,-4.8438,-4.804,0.0,0.0,0.0,-4.7951,-4.8231,-4.855,-4.8802,-4.8974,-4.9279,-4.9509,-4.9509,-4.9509,-4.9509,-4.9509,-4.9509,-4.9509,-4.9509,-4.9509,-4.9509,-4.9509,-4.9509,-4.9509,-4.9509,-4.9509,-4.9509,-4.9509,-4.9179,-4.8629,-4.7901,-4.8255,-4.8343,-4.8169,-4.7714,-4.7496,-4.7516,-4.7021,-4.6636,-4.6361,-4.6361,-4.6177,-4.5847,-4.5351,-4.5149,-4.5094,-4.458,-4.4397,-4.4397,0.0,0.0,0.0,0.0,0.0,0.0,0.0,0.0,0.0,0.0,0.0,0.0,0.0,0.0,0.0,0.0,0.0,0.0,0.0,-4.8656,-4.8619,-4.8891,-4.9963,-5.0035,-4.8909,-4.9485,-4.9419,-4.8659,-4.8013,-4.7717,-4.7717,-4.7717,-4.7717,-4.7717,-4.7717,-4.7717,-4.7717,-4.7717,-4.7717,-4.7572,-4.5943,-4.5291,0.0,0.0,0.0,0.0,0.0,0.0,0.0,0.0,-4.2901,-4.2901,0.0,0.0,0.0,0.0,-4.491,-4.5218,-4.6576,-4.7319,-4.7823,-4.8366,0.0,0.0,-4.8945,-4.8891,-4.8891,-4.8891,-4.8456,0.0,0.0,0.0,0.0,0.0,-4.8249,-4.8495,-4.8695,-4.8993,-4.9246,-4.9345,-4.9345,-4.9377,-4.9493,-4.9509,-4.9509,-4.9509,-4.9509,0.0,0.0,-4.9509,-4.9509,-4.9509,-4.9509,-4.9509,-4.9509,-4.8998,-4.8288,-4.7404,-4.7537,-4.7516,-4.7341,-4.6851,-4.6652,-4.6653,-4.6122,-4.5755,-4.5516,-4.5516,-4.5369,-4.5094,-4.4544,-4.4323,-4.425,-4.3699,-4.3515,-4.3497,0.0,0.0,0.0,0.0,0.0,0.0,0.0,0.0,0.0,0.0,0.0,0.0,0.0,0.0,0.0,0.0,0.0,0.0,-4.8891,-4.8152,-4.8058,-4.8837,-4.8891,-4.8891,-4.8891,-4.8891,-4.8493,-4.7717,-4.7717,-4.7717,-4.7717,-4.7717,-4.7717,-4.7717,-4.7717,-4.7717,-4.7717,-4.7717,-4.7717,-4.7554,-4.5943,-4.5291,-4.511,0.0,0.0,0.0,0.0,0.0,0.0,0.0,-4.2901,-4.2901,0.0,0.0,0.0,0.0,-4.4095,-4.4277,-4.5091,-4.6468,-4.7681,0.0,0.0,0.0,-4.9075,-4.8891,-4.8909,-4.8891,0.0,-4.8637,-4.7862,0.0,0.0,-4.7717,-4.7931,-4.8114,-4.8114,-4.8383,-4.8695,-4.8957,-4.8991,-4.9127,-4.9459,-4.9509,-4.9509,-4.9509,0.0,0.0,0.0,-4.9509,-4.9509,-4.9509,-4.949,-4.949,-4.949,-4.8626,-4.7924,-4.7367,-4.65,-4.5883,-4.5504,-4.5697,-4.5791,-4.5791,-4.5847,-4.5424,-4.4691,-4.4691,-4.4213,-4.3515,-4.3515,-4.3515,-4.3515,-4.3515,-4.3515,-4.3497,0.0,0.0,0.0,0.0,0.0,0.0,0.0,0.0,0.0,0.0,0.0,0.0,0.0,0.0,0.0,0.0,0.0,0.0,-4.8098,-4.7823,-4.7826,-4.8061,-4.8583,-4.8637,-4.8079,-4.8058,-4.7932,-4.7717,-4.7717,-4.7717,-4.7717,-4.7717,-4.7717,-4.7717,-4.7717,-4.7717,-4.7717,-4.7717,-4.7373,-4.6757,-4.5725,-4.4965,-4.4331,0.0,0.0,0.0,0.0,0.0,0.0,0.0,0.0,0.0,0.0,0.0,0.0,-4.386,-4.4095,-4.4385,-4.578,-4.6087,0.0,-4.7428,0.0,0.0,0.0,0.0,0.0,0.0,0.0,-4.8637,-4.7862,0.0,0.0,-4.7717,-4.7931,-4.8114,-4.8114,-4.8383,-4.8623,-4.8713,-4.8889,-4.9044,-4.9146,-4.9361,-4.9509,0.0,0.0,0.0,0.0,-4.9509,-4.9509,-4.9509,-4.8908,-4.8589,-4.8589,-4.7539,-4.6576,-4.5722,-4.522,-4.515,-4.5467,-4.498,-4.482,-4.4931,-4.4382,-4.4032,-4.3864,-4.3864,-4.3718,-4.3515,-4.3515,-4.3515,-4.3515,-4.3515,-4.3463,-4.3411,0.0,0.0,0.0,0.0,0.0,0.0,0.0,0.0,0.0,0.0,0.0,0.0,0.0,0.0,0.0,0.0,0.0,0.0,0.0,0.0,-4.7717,-4.7717,-4.8149,-4.8185,-4.7717,-4.7717,-4.7717,-4.7717,-4.7717,-4.7717,-4.7717,-4.7717,-4.7717,-4.7717,-4.7717,-4.7717,-4.7717,-4.7717,-4.7246,-4.6432,-4.5617,-4.482,-4.4005,0.0,0.0,0.0,0.0,0.0,0.0,0.0,0.0,0.0,0.0,0.0,0.0,-4.3462,-4.3607,-4.3824,-4.4802,-4.5182,0.0,-4.6106,-4.6395,-4.6504,-4.6504,0.0,0.0,0.0,0.0,-4.8275,-4.7787,-4.7717,0.0,-4.7717,-4.7847,-4.7933,-4.7933,-4.8131,-4.8288,-4.8383,-4.855,-4.873,-4.8974,0.0,0.0,0.0,0.0,0.0,0.0,-4.9171,-4.8983,-4.8983,-4.8157,-4.7725,-4.7725,-4.6693,-4.582,-4.5097,-4.448,-4.4345,-4.4599,-4.4069,-4.3906,-4.3962,-4.3578,-4.3446,-4.3515,-4.3515,-4.3515,-4.3515,-4.3515,-4.3515,-4.3515,-4.3515,-4.3464,-4.3394,0.0,0.0,0.0,0.0,0.0,0.0,0.0,0.0,0.0,0.0,0.0,0.0,0.0,0.0,0.0,0.0,0.0,0.0,0.0,0.0,-4.7717,-4.7717,-4.7717,-4.7717,-4.7717,-4.7717,-4.7717,-4.7717,-4.7717,-4.7717,-4.7717,-4.7717,-4.7717,-4.7717,-4.7717,-4.7717,-4.7717,-4.7606,-4.7138,-4.6323,-4.5508,-4.4711,-4.3896,-4.3172,0.0,0.0,0.0,0.0,0.0,0.0,0.0,0.0,0.0,0.0,-4.2825,-4.2787,-4.2769,-4.2787,-4.2859,0.0,0.0,-4.42,-4.5108,0.0,-4.6178,-4.6178,-4.6232,-4.645,0.0,-4.7482,-4.7482,-4.7554,-4.7591,-4.7591,-4.7663,-4.7717,-4.7717,-4.7717,-4.7785,-4.8035,0.0,0.0,0.0,0.0,0.0,0.0,0.0,0.0,-4.9234,-4.8498,-4.8082,-4.8082,-4.7293,-4.688,-4.688,-4.6017,-4.5469,-4.519,-4.4177,-4.3562,-4.3285,-4.3142,-4.3086,-4.3104,-4.3323,-4.3429,-4.3497,-4.3497,-4.3515,-4.3515,-4.3515,-4.3515,-4.3515,-4.3515,-4.3464,-4.3358,0.0,0.0,0.0,0.0,0.0,0.0,0.0,0.0,0.0,0.0,0.0,0.0,0.0,0.0,0.0,0.0,0.0,0.0,0.0,0.0,-4.7717,-4.7717,-4.7717,-4.7717,-4.7717,-4.7717,-4.7717,-4.7717,-4.7717,-4.7717,-4.7717,-4.7717,-4.7717,-4.7717,-4.7717,-4.7717,-4.7663,-4.7029,-4.6287,-4.549,-4.4675,-4.3878,-4.3155,-4.2973,-4.2901,0.0,0.0,0.0,0.0,0.0,0.0,0.0,-4.2458,-4.2358,-4.2279,-4.1909,-4.1785,-4.1948,0.0,-4.2532,0.0,0.0,-4.3606,-4.3661,-4.3661,-4.3661,-4.4204,-4.6106,-4.6142,-4.5816,-4.5816,-4.6341,-4.6757,-4.6757,-4.7301,-4.7717,-4.7717,-4.7717,-4.772,-4.7765,0.0,0.0,0.0,0.0,0.0,0.0,0.0,0.0,-4.7258,-4.726,-4.7256,-4.7256,-4.643,-4.5979,-4.5979,-4.5172,-4.4626,0.0,-4.3899,-4.3562,-4.3285,-4.305,-4.2994,-4.3104,-4.3323,-4.3412,-4.3429,-4.348,-4.3515,-4.3515,-4.3515,-4.3515,-4.3515,-4.3515,-4.3393,-4.3233,0.0,0.0,0.0,0.0,0.0,0.0,0.0,0.0,0.0,0.0,0.0,0.0,0.0,0.0,0.0,0.0,0.0,0.0,0.0,0.0,0.0,0.0,-4.7717,-4.7717,-4.7717,-4.7717,-4.7717,-4.7717,-4.7717,0.0,0.0,0.0,0.0,-4.7717,-4.7717,-4.7717,-4.7663,-4.6848,-4.6051,-4.5236,-4.4421,-4.3607,-4.2901,-4.2901,-4.2901,-4.2901,-4.2901,0.0,0.0,0.0,0.0,0.0,0.0,0.0,-4.1825,-4.1569,-4.1503,-4.1591,0.0,0.0,0.0,0.0,0.0,0.0,0.0,-4.2749,-4.3263,-4.4512,-4.4747,-4.4838,-4.5236,-4.5635,-4.5924,-4.5924,-4.6287,-4.6558,-4.6558,-4.6558,-4.6703,0.0,0.0,0.0,0.0,0.0,0.0,0.0,0.0,-4.7047,-4.6619,-4.634,-4.6237,-4.6373,-4.5566,-4.5134,-4.5134,-4.457,-4.4248,-4.4109,-4.3712,-4.3373,-4.3087,-4.2957,-4.2975,-4.3104,-4.3215,-4.3305,-4.3412,-4.3446,-4.3463,-4.3515,-4.3515,-4.3515,-4.3497,-4.3463,-4.334,-4.3196,0.0,0.0,0.0,0.0,0.0,0.0,0.0,0.0,0.0,0.0,0.0,0.0,0.0,0.0,0.0,0.0,0.0,0.0,0.0,0.0,0.0,0.0,-4.7717,-4.7717,-4.7717,-4.7717,-4.7717,-4.7717,0.0,0.0,0.0,0.0,0.0,-4.7717,0.0,-4.7717,-4.7645,-4.6703,-4.5906,-4.5218,-4.4258,-4.348,-4.2901,-4.2901,-4.2901,-4.2901,-4.2901,-4.2901,-4.2901,-4.2901,0.0,0.0,0.0,0.0,-4.1459,-4.1303,-4.1258,-4.1258,0.0,0.0,0.0,0.0,0.0,0.0,0.0,0.0,0.0,0.0,-4.3425,-4.4095,-4.4765,-4.5001,-4.5091,-4.5091,-4.52,-4.5291,-4.5291,-4.5291,0.0,0.0,0.0,0.0,0.0,0.0,0.0,0.0,0.0,-4.5993,-4.6027,-4.5422,-4.5189,-4.5434,-4.4824,-4.4501,-4.4501,-4.4229,-4.4091,-4.4091,-4.3562,-4.316,-4.2901,-4.2901,-4.2957,-4.3067,-4.3086,-4.3196,-4.3376,-4.3394,-4.3446,-4.3515,-4.3515,-4.3515,-4.3497,-4.3411,-4.3323,-4.3196,0.0,0.0,0.0,0.0,0.0,0.0,0.0,0.0,0.0,0.0,0.0,0.0,0.0,0.0,0.0,0.0,0.0,0.0,0.0,0.0,0.0,0.0,-4.7717,-4.7717,-4.7717,-4.7717,-4.7717,0.0,0.0,0.0,0.0,0.0,0.0,-4.7717,0.0,-4.7717,-4.7609,-4.6106,-4.5399,-4.5164,-4.3661,-4.301,-4.2901,-4.2901,-4.2901,-4.2901,-4.2901,-4.2901,-4.2901,-4.2901,-4.2863,0.0,0.0,0.0,-4.1326,-4.0531,-4.0279,-4.0279,0.0,0.0,0.0,0.0,0.0,0.0,0.0,0.0,0.0,0.0,0.0,-4.31,-4.319,-4.3788,-4.4258,-4.4258,-4.4838,-4.5291,0.0,0.0,0.0,0.0,0.0,0.0,0.0,0.0,0.0,0.0,-4.4873,-4.4733,-4.3774,-4.4061,-4.4274,-4.4304,-4.442,-4.4501,-4.4501,-4.4229,-4.4091,-4.4091,-4.3562,-4.316,-4.2901,-4.2901,-4.2919,-4.2938,-4.3049,-4.3142,-4.3233,-4.334,-4.3446,-4.3515,-4.3515,-4.3515,-4.3497,-4.3411,-4.3323,-4.3196,0.0,0.0,0.0,0.0,0.0,0.0,0.0,0.0,0.0,0.0,0.0,0.0,0.0,0.0,0.0,-4.7717,0.0,0.0,0.0,0.0,0.0,-4.8366,-4.8366,-4.8149,-4.7717,-4.7717,0.0,0.0,0.0,0.0,0.0,-4.7129,-4.7258,0.0,0.0,0.0,0.0,-4.5979,-4.5291,-4.5164,-4.3534,-4.2901,-4.2955,-4.3389,-4.357,-4.3625,-4.4077,-4.3951,-4.357,-4.357,-4.309,-4.2398,-4.17,0.0,0.0,0.0,-4.0096,0.0,-4.0096,0.0,0.0,0.0,0.0,0.0,0.0,0.0,0.0,0.0,0.0,0.0,0.0,0.0,0.0,0.0,0.0,0.0,0.0,0.0,0.0,0.0,0.0,0.0,0.0,0.0,0.0,0.0,-4.367,-4.3669,-4.3321,-4.351,-4.3775,-4.4075,-4.4214,-4.4335,-4.4501,-4.4079,-4.3728,-4.3424,-4.3196,-4.3013,-4.2901,-4.2901,-4.2901,-4.2901,-4.2957,-4.3068,-4.3196,-4.3269,-4.3358,-4.3446,-4.3446,-4.3393,-4.3304,-4.3251,-4.3178,-4.3123,0.0,0.0,0.0,0.0,0.0,0.0,0.0,0.0,0.0,0.0,0.0,0.0,0.0,0.0,0.0,0.0,-4.7717,0.0,0.0,0.0,0.0,-4.8891,-4.8692,-4.8312,-4.7696,-4.7717,0.0,0.0,0.0,0.0,-4.6707,-4.6707,-4.6619,0.0,-4.7341,-4.7591,0.0,0.0,0.0,0.0,-4.3462,-4.3028,-4.3281,-4.386,-4.4222,-4.4476,-4.5073,-4.491,-4.4367,-4.4168,-4.3386,-4.2383,-4.1705,-4.1185,0.0,0.0,0.0,0.0,0.0,0.0,0.0,0.0,0.0,0.0,0.0,0.0,0.0,0.0,0.0,0.0,0.0,0.0,0.0,0.0,0.0,0.0,0.0,0.0,0.0,0.0,0.0,0.0,0.0,0.0,0.0,0.0,-4.2901,-4.2995,-4.3178,-4.3267,-4.3475,-4.3871,-4.403,-4.4199,-4.4397,-4.3921,-4.3425,-4.2901,-4.2901,-4.2901,-4.2901,-4.2901,-4.2901,-4.2901,-4.2901,-4.3013,-4.3178,-4.3178,-4.3233,-4.334,-4.334,-4.3305,-4.3196,-4.3123,-4.3104,-4.3086,0.0,0.0,0.0,0.0,0.0,0.0,0.0,0.0,0.0,0.0,0.0,0.0,-4.6098,-4.7062,-4.7717,-4.7717,-4.7717,-4.8022,-4.8837,-4.8891,0.0,-4.8891,-4.8167,0.0,-4.7717,-4.7717,0.0,0.0,0.0,0.0,-4.6123,-4.6123,-4.5875,-4.5459,-4.7017,-4.7283,-4.6504,0.0,0.0,0.0,0.0,0.0,0.0,-4.4077,-4.4566,-4.5236,-4.5273,-4.5273,-4.5128,-4.4349,-4.3764,-4.3116,-4.1903,-4.1185,-4.0707,0.0,0.0,0.0,0.0,0.0,0.0,0.0,0.0,0.0,0.0,0.0,0.0,0.0,0.0,0.0,0.0,0.0,0.0,0.0,0.0,0.0,0.0,0.0,0.0,0.0,0.0,0.0,0.0,0.0,0.0,0.0,-4.2901,-4.2901,-4.292,-4.316,-4.332,-4.3338,-4.3823,-4.4124,-4.4106,-4.3841,-4.3425,-4.2901,-4.2901,-4.2901,-4.2901,-4.2901,-4.2901,-4.2901,-4.2901,-4.2975,-4.3104,-4.3104,-4.3142,-4.3214,-4.3214,-4.3214,-4.3196,-4.3123,-4.3104,-4.3086,0.0,0.0,0.0,0.0,0.0,0.0,0.0,0.0,0.0,0.0,0.0,0.0,0.0,-4.6753,-4.7341,-4.7657,-4.7717,-4.8022,-4.8837,-4.8891,0.0,-4.8891,-4.8619,-4.8221,-4.7717,-4.7363,0.0,0.0,0.0,-4.5775,-4.5588,-4.5588,-4.5468,-4.5329,-4.6262,-4.6257,-4.5475,-4.4676,0.0,0.0,0.0,0.0,0.0,0.0,0.0,0.0,-4.6667,-4.6504,-4.5943,-4.5146,-4.4214,-4.3187,-4.1903,-4.1185,-4.0707,-4.0246,-4.0096,0.0,0.0,0.0,0.0,0.0,0.0,0.0,0.0,0.0,0.0,0.0,0.0,0.0,0.0,0.0,0.0,0.0,0.0,0.0,0.0,0.0,0.0,0.0,0.0,0.0,0.0,0.0,0.0,0.0,0.0,-4.2901,-4.2901,-4.2995,-4.3105,-4.3303,-4.3662,-4.3841,-4.3841,-4.3744,-4.3425,-4.2901,-4.2901,-4.2901,-4.2901,-4.2901,-4.2901,-4.2901,-4.2901,-4.2975,-4.3104,-4.3104,-4.3123,-4.3123,-4.3123,-4.3087,-4.3013,-4.2975,-4.2975,-4.2957,0.0,0.0,0.0,0.0,0.0,0.0,0.0,0.0,0.0,0.0,0.0,0.0,0.0,0.0,-4.6863,-4.7385,-4.7681,-4.8143,-4.8855,-4.8891,-4.8808,-4.8636,-4.8365,-4.7903,-4.7169,0.0,0.0,0.0,0.0,0.0,0.0,-4.5152,-4.5062,-4.5072,-4.5148,-4.4965,0.0,0.0,0.0,-4.4182,0.0,0.0,-4.5761,0.0,0.0,0.0,0.0,0.0,-4.6719,-4.5472,-4.4402,-4.331,-4.1748,-4.0949,-4.0507,-4.0196,-4.0096,0.0,-4.0096,0.0,0.0,0.0,0.0,0.0,0.0,0.0,0.0,0.0,0.0,0.0,0.0,0.0,0.0,0.0,0.0,0.0,0.0,0.0,0.0,0.0,0.0,0.0,0.0,0.0,0.0,0.0,0.0,0.0,-4.2901,-4.2901,-4.3032,-4.3285,-4.3562,-4.3662,-4.3562,-4.3662,-4.3425,-4.2901,-4.2901,-4.2901,-4.2901,-4.2901,-4.2901,-4.2901,-4.2901,-4.2938,-4.303,-4.303,-4.303,-4.303,-4.303,-4.2975,-4.2901,-4.2901,-4.2901,-4.2901,0.0,0.0,0.0,0.0,0.0,0.0,0.0,0.0,0.0,-4.4281,0.0,0.0,0.0,0.0,0.0,-4.6845,-4.7604,-4.8294,-4.8811,-4.8833,-4.86,-4.805,0.0,0.0,0.0,0.0,0.0,0.0,0.0,0.0,0.0,0.0,-4.4598,-4.453,-4.3741,-4.3494,-4.3734,0.0,-4.3605,-4.3479,0.0,-4.5308,-4.652,0.0,0.0,0.0,-4.7678,-4.7678,0.0,-4.5298,0.0,0.0,0.0,-4.0476,-4.0096,-4.0096,0.0,0.0,0.0,0.0,0.0,0.0,0.0,0.0,0.0,0.0,0.0,0.0,0.0,0.0,0.0,0.0,0.0,0.0,0.0,0.0,0.0,0.0,0.0,0.0,0.0,0.0,0.0,0.0,0.0,0.0,-4.2863,-4.2882,-4.2882,-4.2882,-4.3032,-4.3285,-4.3545,-4.3562,-4.3303,-4.3562,-4.3425,-4.2901,-4.2901,-4.2901,-4.2901,-4.2901,-4.2901,-4.2901,-4.2901,-4.2901,-4.2901,-4.2901,-4.2901,-4.2901,-4.2901,-4.2901,-4.2901,-4.2901,-4.2901,-4.2901,0.0,0.0,0.0,0.0,0.0,0.0,0.0,0.0,-4.4097,0.0,0.0,0.0,-4.525,-4.5775,-4.631,-4.6845,-4.7105,-4.7275,-4.7429,-4.7469,-4.7207,-4.6676,-4.644,0.0,0.0,0.0,0.0,0.0,0.0,0.0,0.0,0.0,0.0,0.0,-4.2946,-4.237,-4.1954,-4.2501,0.0,-4.38,-4.4135,-4.5305,0.0,0.0,0.0,0.0,0.0,-4.745,-4.6874,0.0,-4.4024,-4.2957,0.0,0.0,0.0,0.0,0.0,0.0,-4.0096,0.0,0.0,0.0,0.0,0.0,0.0,0.0,0.0,0.0,0.0,0.0,0.0,0.0,0.0,0.0,0.0,0.0,0.0,0.0,0.0,0.0,0.0,0.0,0.0,0.0,0.0,0.0,-4.2198,-4.2398,-4.2398,-4.2729,-4.3032,-4.3285,-4.3373,-4.3373,-4.3303,-4.3373,-4.3232,-4.2901,-4.2901,-4.2901,-4.2901,-4.2901,-4.2901,-4.2901,-4.2901,-4.2901,-4.2901,-4.2901,-4.2901,-4.2901,-4.2901,-4.2901,-4.2901,-4.2901,-4.2901,-4.2901,0.0,0.0,0.0,0.0,0.0,0.0,0.0,0.0,-4.3952,0.0,0.0,0.0,-4.4954,-4.5214,-4.5588,-4.6189,-4.6238,-4.6334,-4.6548,-4.6566,-4.6334,-4.5775,-4.5767,-4.5665,0.0,0.0,0.0,0.0,0.0,0.0,0.0,0.0,0.0,0.0,0.0,0.0,0.0,0.0,0.0,0.0,-4.4369,0.0,0.0,-4.6799,-4.6908,0.0,0.0,0.0,-4.659,-4.4645,-4.3043,0.0,0.0,0.0,0.0,0.0,0.0,0.0,0.0,0.0,0.0,0.0,0.0,0.0,-4.0096,-4.0096,-4.0096,0.0,0.0,0.0,0.0,0.0,0.0,0.0,0.0,0.0,0.0,0.0,0.0,0.0,0.0,0.0,0.0,-4.1208,-4.1298,-4.1481,-4.1743,-4.1994,-4.2177,-4.2653,-4.2976,-4.3124,-4.3232,-4.3249,-4.3124,-4.3249,-4.3178,-4.2901,-4.2901,-4.2901,-4.2901,-4.2901,-4.2901,-4.2901,-4.2901,-4.2901,-4.2901,-4.2901,-4.2901,-4.2901,-4.2901,-4.2901,-4.2901,-4.2901,-4.2901,-4.2863,0.0,0.0,0.0,0.0,0.0,0.0,0.0,0.0,-4.3658,0.0,-4.4027,-4.4241,-4.4542,-4.444,-4.4586,-4.5224,-4.5276,-4.5485,-4.5943,-4.5968,-4.5742,-4.5188,-4.5161,-4.4981,-4.457,0.0,0.0,0.0,0.0,0.0,0.0,0.0,0.0,0.0,0.0,0.0,0.0,0.0,0.0,-4.3131,-4.4638,-4.5537,0.0,0.0,-4.673,-4.673,-4.6776,-4.6776,-4.6342,-4.386,-4.1714,0.0,0.0,0.0,0.0,0.0,-4.0096,0.0,0.0,0.0,0.0,0.0,0.0,0.0,-3.9994,-3.9977,-3.996,-3.9876,0.0,0.0,0.0,0.0,0.0,0.0,0.0,0.0,0.0,0.0,0.0,0.0,0.0,0.0,-4.0442,-4.049,-4.066,-4.1059,-4.1147,-4.1388,-4.1848,-4.2325,-4.2554,-4.2554,-4.285,-4.2923,-4.2774,-4.2996,-4.3051,-4.2901,-4.2901,-4.2901,-4.2901,-4.2901,-4.2901,-4.2901,-4.2901,-4.2901,-4.2901,-4.2901,-4.2901,-4.2901,-4.2901,-4.2901,-4.2901,-4.2901,-4.2863,-4.275,0.0,0.0,0.0,0.0,0.0,0.0,0.0,0.0,0.0,-4.3868,-4.4097,-4.4281,-4.4338,-4.4468,-4.4703,-4.5108,-4.5135,-4.5135,-4.5117,-4.5117,-4.491,-4.435,-4.4321,-4.4321,-4.4367,0.0,0.0,0.0,0.0,0.0,0.0,0.0,0.0,0.0,0.0,0.0,0.0,0.0,0.0,-4.259,-4.4119,0.0,-4.5485,-4.5588,-4.5614,-4.5673,-4.6098,-4.5975,-4.5294,-4.3184,-4.1409,-4.0096,0.0,0.0,0.0,-4.0096,0.0,0.0,0.0,0.0,0.0,0.0,0.0,0.0,-3.9368,-3.9208,-3.9039,0.0,0.0,0.0,0.0,0.0,0.0,0.0,0.0,0.0,0.0,0.0,0.0,0.0,0.0,0.0,-3.8472,-3.8455,-3.8503,-3.8604,-3.8946,-3.9373,-3.9841,-4.0246,-4.0497,-4.0497,-4.0835,-4.1343,-4.1922,-4.1977,-4.2304,-4.2901,-4.2901,-4.2901,-4.2901,-4.2901,-4.2901,-4.2901,-4.2901,-4.2901,-4.2901,-4.2901,-4.2901,-4.2901,-4.2901,-4.2901,-4.2901,-4.2901,-4.2653,-4.2318,0.0,0.0,0.0,0.0,0.0,0.0,0.0,0.0,0.0,0.0,0.0,-4.4708,-4.524,-4.5303,-4.5404,-4.5676,0.0,0.0,0.0,-4.4722,-4.4378,-4.4097,-4.4097,-4.4167,-4.431,-4.4184,0.0,0.0,0.0,0.0,0.0,0.0,0.0,0.0,0.0,0.0,0.0,0.0,-4.1938,-4.2358,-4.3961,0.0,-4.4971,-4.5214,-4.5303,-4.5329,-4.5597,-4.4872,-4.3585,-4.2223,-4.1027,0.0,-4.0096,-4.0096,-4.0096,0.0,-4.0096,-4.0096,0.0,0.0,0.0,-3.9554,0.0,0.0,0.0,-3.8447,-3.8345,-3.799,0.0,0.0,0.0,0.0,0.0,0.0,0.0,0.0,0.0,0.0,0.0,0.0,0.0,0.0,-3.7905,-3.7905,-3.7905,-3.7905,-3.8328,-3.8698,-3.8938,-3.9362,-3.9702,-3.9898,-4.0106,-4.0491,-4.1089,-4.1089,-4.1288,-4.1705,-4.1705,-4.1705,-4.1705,-4.1705,-4.1705,-4.1723,-4.214,-4.2303,-4.2339,-4.2719,-4.2901,-4.2901,-4.2901,-4.2901,-4.2901,-4.2901,-4.2614,-4.2157,-3.9388,0.0,0.0,0.0,0.0,0.0,0.0,0.0,0.0,0.0,0.0,0.0,0.0,0.0,0.0,0.0,0.0,0.0,0.0,0.0,-4.4077,-4.4211,-4.4094,-4.4068,-4.4224,-4.4068,-4.401,0.0,0.0,0.0,0.0,0.0,0.0,0.0,0.0,0.0,0.0,0.0,0.0,-4.2058,0.0,-4.4344,-4.4654,-4.5008,-4.5178,-4.5144,-4.4989,-4.3704,-4.1999,-4.1407,-4.0696,-4.0096,-4.0096,-4.0096,0.0,0.0,0.0,0.0,0.0,0.0,0.0,0.0,0.0,-3.7872,0.0,0.0,0.0,0.0,0.0,0.0,0.0,0.0,0.0,0.0,0.0,0.0,0.0,0.0,0.0,0.0,0.0,0.0,-3.7466,-3.7466,-3.7466,-3.7466,-3.7809,-3.8023,-3.8023,-3.8481,-3.886,-3.9201,-3.9279,-3.9599,-4.0149,-4.0149,-4.0275,-4.0492,-4.0492,-4.0492,-4.0492,-4.0492,-4.0492,-4.0528,-4.118,-4.1469,-4.1524,-4.2176,-4.2429,-4.2466,-4.2792,-4.2901,-4.2901,-4.2901,-4.2537,-4.1994,-3.9388,-3.9517,0.0,0.0,0.0,0.0,0.0,0.0,0.0,0.0,0.0,0.0,0.0,0.0,0.0,0.0,0.0,0.0,-4.5694,0.0,0.0,0.0,0.0,-4.3747,-4.3939,-4.3763,-4.3747,0.0,0.0,0.0,0.0,0.0,0.0,0.0,-3.9606,0.0,0.0,0.0,-4.1229,0.0,-4.2219,-4.3396,0.0,-4.4654,-4.4665,-4.458,-4.3857,-4.2627,-4.1322,0.0,-4.0696,-4.0096,0.0,-4.0096,-4.0096,-4.0096,0.0,0.0,0.0,0.0,0.0,0.0,-3.7973,0.0,0.0,0.0,-3.6705,-3.6005,0.0,0.0,0.0,0.0,0.0,0.0,0.0,0.0,0.0,0.0,0.0,0.0,0.0,0.0,0.0,-3.5853,-3.5853,-3.5853,-3.5921,-3.5926,-3.5926,-3.6388,-3.6648,-3.671,-3.7044,-3.7791,-3.8883,-3.8901,-3.9426,-4.0492,-4.0492,-4.0492,-4.0492,-4.0492,-4.0492,-4.051,-4.0601,-4.0637,-4.0637,-4.0727,-4.0764,-4.0908,-4.2339,-4.2901,-4.2901,-4.2901,-4.234,-4.1569,-3.9388,-3.9753,0.0,0.0,0.0,0.0,0.0,0.0,0.0,0.0,0.0,0.0,0.0,0.0,0.0,0.0,0.0,-4.6175,0.0,0.0,0.0,0.0,0.0,0.0,-4.3898,-4.3687,-4.3704,0.0,-4.2958,0.0,0.0,0.0,0.0,0.0,-3.9511,0.0,-3.9633,0.0,-4.0939,0.0,0.0,0.0,0.0,-4.342,-4.3278,-4.3176,-4.2405,-4.1745,-4.1136,0.0,-4.0367,0.0,0.0,0.0,0.0,0.0,0.0,0.0,0.0,0.0,0.0,0.0,0.0,0.0,-3.618,0.0,-3.6011,0.0,0.0,0.0,0.0,0.0,0.0,0.0,-3.56,0.0,0.0,0.0,0.0,0.0,0.0,0.0,0.0,0.0,0.0,0.0,-3.56,-3.56,-3.56,-3.5783,-3.6023,-3.6301,-3.6471,-3.7018,-3.7987,-3.8005,-3.8384,-3.917,-3.917,-3.917,-3.917,-3.917,-3.917,-3.9188,-3.9659,-3.9858,-3.9894,-4.0311,-4.0492,-4.0546,-4.0994,-4.1302,-4.1469,-4.1246,-4.1007,-4.0766,-3.9424,0.0,0.0,0.0,0.0,0.0,0.0,0.0,0.0,0.0,0.0,0.0,-4.7934,-4.8001,0.0,0.0,-4.7322,-4.699,0.0,0.0,-4.5549,0.0,0.0,0.0,0.0,-4.3658,-4.3658,0.0,0.0,0.0,0.0,0.0,0.0,0.0,0.0,-3.9501,-3.9528,0.0,-4.0523,-4.1476,-4.1067,-4.1542,-4.2489,-4.2337,-4.2168,-4.1931,-4.139,-4.1068,-4.0815,-4.0282,-4.0096,0.0,-4.0096,0.0,0.0,0.0,0.0,0.0,-3.8633,0.0,0.0,0.0,0.0,0.0,0.0,0.0,0.0,0.0,0.0,0.0,0.0,0.0,0.0,0.0,0.0,-3.5379,0.0,0.0,0.0,0.0,0.0,0.0,0.0,0.0,0.0,-3.5402,-3.5515,-3.56,-3.56,-3.56,-3.5756,-3.6088,-3.611,-3.6454,-3.7152,-3.7283,-3.7559,-3.802,-3.814,-3.8209,-3.8209,-3.8209,-3.8209,-3.8227,-3.8808,-3.9078,-3.9097,-3.9659,-3.9787,-3.9662,-3.9368,-3.9349,-3.9534,-3.9679,-3.9776,-3.9783,-3.946,-3.9409,0.0,0.0,0.0,0.0,0.0,0.0,0.0,0.0,0.0,0.0,0.0,0.0,0.0,0.0,0.0,-4.7206,-4.7918,0.0,-4.5781,0.0,0.0,-4.4357,0.0,0.0,0.0,0.0,0.0,0.0,0.0,0.0,0.0,0.0,0.0,-3.9501,-3.9528,-3.9798,-3.9934,-3.9994,-4.0088,-4.0163,-4.0367,0.0,-4.1863,-4.1238,-4.1221,0.0,0.0,-4.0113,-4.0096,0.0,0.0,0.0,0.0,0.0,0.0,0.0,0.0,0.0,0.0,-3.5836,0.0,0.0,0.0,0.0,-3.56,0.0,0.0,0.0,0.0,0.0,0.0,0.0,0.0,0.0,0.0,0.0,0.0,0.0,0.0,0.0,0.0,0.0,-3.5362,-3.4864,-3.5293,-3.56,-3.56,-3.56,-3.56,-3.5622,-3.5622,-3.5849,-3.6343,-3.6721,-3.7132,-3.7523,-3.7984,-3.8209,-3.8209,-3.8209,-3.8209,-3.8209,-3.8227,-3.8245,-3.8245,-3.8263,-3.8005,-3.7595,-3.7577,-3.7354,-3.7202,-3.8755,-3.9041,-3.8644,0.0,0.0,0.0,0.0,0.0,0.0,0.0,-4.6576,0.0,0.0,-4.7852,0.0,0.0,-4.8001,-4.8001,0.0,0.0,-4.7736,-4.7984,-4.7537,0.0,0.0,0.0,-4.4854,0.0,0.0,0.0,0.0,0.0,0.0,0.0,0.0,0.0,0.0,0.0,-3.9007,0.0,0.0,0.0,0.0,0.0,-4.0527,-4.0214,0.0,-4.1102,-4.046,-4.046,-4.0316,0.0,-4.0096,-4.0096,-4.0096,-4.0096,-3.9774,-3.9309,-3.9056,-3.865,0.0,0.0,0.0,-3.6609,-3.5785,0.0,0.0,0.0,0.0,0.0,0.0,0.0,0.0,0.0,0.0,0.0,0.0,0.0,0.0,0.0,0.0,0.0,0.0,0.0,0.0,0.0,0.0,0.0,-3.4793,-3.5293,-3.56,-3.56,-3.56,-3.56,-3.56,-3.56,-3.5827,-3.6301,-3.643,-3.6841,-3.7505,-3.765,-3.7915,-3.8209,-3.8209,-3.8209,-3.8209,-3.8209,-3.8209,-3.8209,-3.8209,-3.7915,-3.7469,-3.7208,-3.686,-3.6564,-3.7106,-3.7521,-3.7826,-3.946,0.0,0.0,0.0,0.0,0.0,0.0,0.0,0.0,0.0,-4.7737,0.0,-4.7968,0.0,-4.8001,0.0,-4.8001,-4.7886,-4.7588,-4.7605,0.0,-4.5082,-4.5045,0.0,0.0,0.0,0.0,0.0,0.0,-4.1132,0.0,0.0,0.0,0.0,0.0,-3.8799,-3.9104,0.0,-3.9734,0.0,0.0,-4.0459,0.0,0.0,-4.0493,-4.0096,0.0,-4.0096,-4.0096,-4.0096,-4.0096,-4.0062,-3.9791,-3.9377,-3.8886,-3.8362,-3.7872,-3.733,-3.6569,-3.6366,0.0,-3.5718,-3.56,0.0,-3.5356,0.0,-3.5224,0.0,0.0,0.0,0.0,0.0,0.0,0.0,0.0,0.0,0.0,-3.3135,0.0,0.0,0.0,0.0,0.0,0.0,-3.4529,-3.4529,-3.5021,-3.5402,0.0,0.0,-3.56,-3.56,-3.56,-3.5756,-3.6045,-3.6216,-3.6638,-3.7302,-3.7432,-3.7756,-3.8209,-3.8209,-3.8106,-3.795,-3.795,-3.788,-3.7739,-3.7739,-3.7486,-3.7055,-3.6781,-3.6412,-3.6045,-3.6045,-3.6353,-3.6789,0.0,0.0,0.0,0.0,-4.2275,0.0,0.0,0.0,-4.6234,0.0,-4.7236,-4.705,-4.7787,-4.7902,-4.7902,-4.7902,-4.7902,-4.7555,-4.6793,-4.6766,0.0,0.0,-4.3634,-4.2977,-4.1541,0.0,0.0,0.0,0.0,0.0,0.0,0.0,0.0,0.0,-3.865,0.0,-3.8322,-3.9131,-3.9131,-3.8629,-3.954,-3.9986,-4.007,-4.0113,-4.0096,-4.0096,-4.0096,-4.0096,-4.0096,-4.0062,-4.0045,-3.9926,-3.9174,-3.8903,-3.8616,-3.7218,-3.6778,-3.6552,-3.5825,-3.56,-3.56,-3.5577,-3.5577,0.0,0.0,0.0,-3.4816,0.0,0.0,0.0,0.0,0.0,0.0,0.0,0.0,0.0,0.0,0.0,0.0,0.0,0.0,0.0,0.0,-3.364,-3.3986,-3.4011,-3.448,-3.4998,0.0,0.0,-3.5577,-3.56,-3.56,-3.56,-3.56,-3.6045,-3.6471,-3.688,-3.7265,-3.7667,-3.814,-3.814,-3.788,-3.7469,-3.7469,-3.7247,-3.69,-3.69,-3.6658,-3.6301,-3.6301,-3.6023,-3.56,-3.56,-3.56,-3.56,-3.9625,-3.9907,-4.0531,0.0,-4.2812,-4.4013,0.0,0.0,0.0,0.0,-4.6127,-4.6056,-4.6269,-4.6269,-4.6269,-4.6269,-4.6269,0.0,0.0,0.0,0.0,-4.3643,-4.3135,-4.2453,-4.1541,-4.1492,-4.1492,-4.1492,0.0,0.0,-3.8479,0.0,0.0,0.0,0.0,0.0,-3.7722,-3.8843,-3.9325,-3.9309,-3.9816,-4.0011,-3.9961,0.0,-4.0096,-4.0096,-4.0096,-4.0096,-4.0028,-3.9486,-3.9276,-3.914,-3.8413,-3.7804,-3.7303,-3.6914,-3.6366,-3.5853,-3.565,-3.56,-3.5492,-3.5091,-3.5293,-3.5447,0.0,0.0,0.0,0.0,0.0,0.0,0.0,0.0,0.0,0.0,0.0,0.0,0.0,0.0,0.0,-3.2398,0.0,0.0,-3.2629,-3.3093,-3.3563,-3.3986,-3.4136,0.0,0.0,0.0,0.0,-3.56,-3.56,-3.56,-3.56,-3.5734,-3.6023,-3.6451,-3.6557,-3.6838,-3.7245,-3.7245,-3.717,-3.7055,-3.7055,-3.6997,-3.69,-3.69,-3.6658,-3.6301,-3.6301,-3.6023,-3.56,-3.56,-3.56,-3.56,-4.0109,0.0,0.0,-4.2276,0.0,0.0,-4.4974,-4.4887,0.0,-4.5624,-4.5405,0.0,-4.566,-4.5697,-4.5697,-4.5697,-4.5697,0.0,-4.4783,0.0,0.0,-4.2257,-4.1875,-4.1348,-4.0615,-4.0566,0.0,-4.0566,0.0,0.0,-3.8016,0.0,0.0,0.0,0.0,-3.7399,0.0,-3.8226,-3.898,-3.9668,-3.9618,-3.9764,0.0,-4.0087,-3.991,-3.9622,-3.9622,-3.9622,-3.9571,-3.914,-3.8785,-3.8396,-3.7652,-3.7134,-3.6681,-3.6095,-3.5605,-3.5201,-3.4975,-3.4904,-3.4833,-3.4529,-3.484,-3.5045,-3.4292,-3.4529,-3.4673,0.0,-3.3716,-3.3614,0.0,0.0,0.0,0.0,0.0,0.0,0.0,0.0,0.0,0.0,-3.2398,0.0,-3.2398,-3.2668,-3.3066,-3.3614,-3.3869,0.0,0.0,0.0,0.0,-3.56,-3.56,-3.56,-3.56,-3.56,-3.5827,-3.6301,-3.6301,-3.6512,-3.69,-3.69,-3.6801,-3.6638,-3.6638,-3.6536,-3.6312,-3.6312,-3.6199,-3.6002,-3.6002,-3.5827,-3.56,-3.56,-3.56,-3.56,-4.0697,0.0,0.0,0.0,0.0,0.0,0.0,-4.3732,0.0,-4.5221,0.0,-4.4624,-4.5295,-4.5405,-4.5358,-4.528,0.0,-4.4689,-4.3306,-4.3194,-4.2344,-4.0486,-4.037,-4.0056,-3.9409,-3.9388,-3.9379,0.0,0.0,0.0,0.0,0.0,0.0,0.0,0.0,0.0,0.0,-3.7472,-3.8351,-3.9609,-3.9179,-3.9325,-3.9817,-3.991,-3.9454,-3.8738,-3.8738,-3.8804,-3.8836,-3.8734,-3.8294,-3.7594,-3.6787,-3.6551,-3.6299,-3.5063,-3.4714,-3.4601,-3.4136,-3.4011,-3.3969,-3.3894,-3.4309,-3.4439,-3.3417,-3.3614,-3.3843,-3.3329,-3.2815,-3.2776,0.0,0.0,0.0,0.0,0.0,0.0,0.0,0.0,0.0,0.0,0.0,0.0,0.0,0.0,0.0,0.0,0.0,0.0,0.0,0.0,0.0,-3.56,-3.56,-3.56,-3.56,0.0,-3.5805,-3.6216,-3.6216,-3.6388,-3.6721,-3.6721,-3.6536,-3.6216,-3.6216,-3.598,-3.56,-3.56,-3.56,-3.56,-3.56,-3.56,-3.56,-3.56,-3.56,-3.56,0.0,0.0,0.0,0.0,0.0,-4.3329,-4.3472,-4.3409,-4.3409,-4.3669,-4.3591,-4.3551,-4.3708,-4.3732,-4.3521,-4.3015,-4.297,0.0,0.0,0.0,0.0,-4.0412,-3.9862,-3.9517,-3.9388,-3.9388,-3.914,0.0,0.0,0.0,0.0,0.0,0.0,0.0,0.0,0.0,-3.7531,-3.7191,0.0,-3.8298,-3.8936,-3.8815,-3.8354,-3.8958,-3.8454,-3.7428,-3.7428,-3.7734,-3.8007,-3.7381,-3.71,-3.677,-3.5542,-3.515,-3.5022,-3.4341,-3.4136,-3.4136,-3.4036,-3.4011,-3.3894,-3.3459,-3.3742,-3.3969,-3.3339,-3.3614,-3.3843,-3.3329,-3.3119,-3.2986,-3.2722,0.0,0.0,0.0,0.0,0.0,0.0,0.0,0.0,0.0,0.0,-3.2398,0.0,0.0,0.0,0.0,0.0,0.0,0.0,0.0,0.0,0.0,-3.56,0.0,0.0,0.0,-3.5644,-3.5717,-3.5717,-3.5761,-3.5832,-3.5832,-3.5783,-3.5717,-3.5717,-3.5689,-3.56,-3.56,-3.56,-3.56,-3.56,-3.56,-3.56,-3.56,-3.56,-3.56,0.0,0.0,0.0,0.0,0.0,0.0,0.0,-4.2312,-4.2566,-4.32,-4.3045,-4.2821,-4.2821,-4.2521,-4.2192,-4.1916,-4.1886,-4.1617,-4.092,-4.0576,-4.0247,-3.9903,-3.9553,-3.9388,-3.9388,-3.9065,-3.8721,-3.8392,0.0,0.0,0.0,0.0,0.0,0.0,0.0,-3.6814,0.0,0.0,0.0,-3.7592,-3.7704,-3.7476,-3.7108,-3.7472,-3.6975,-3.612,-3.612,-3.6,-3.5885,-3.5909,-3.5653,-3.5224,-3.4595,-3.4382,-3.4268,-3.3742,-3.3588,-3.3537,-3.324,-3.3161,-3.3108,-3.2841,-3.3198,-3.3459,-3.2895,-3.3198,-3.3433,-3.2895,-3.2788,-3.2722,-3.2453,-3.2398,0.0,0.0,0.0,0.0,0.0,0.0,-3.2398,0.0,0.0,0.0,0.0,0.0,0.0,0.0,0.0,0.0,0.0,0.0,0.0,0.0,0.0,0.0,0.0,0.0,0.0,-3.56,-3.56,-3.56,-3.56,-3.56,-3.56,-3.56,-3.56,-3.56,-3.56,-3.56,-3.56,-3.56,-3.56,-3.56,-3.56,-3.56,-3.56,-3.56,0.0,-4.2085,0.0,0.0,-4.2186,0.0,-4.1497,-4.1422,-4.1743,-4.2737,-4.2462,-4.2186,-4.2186,-4.1737,-4.1324,-4.119,-4.1175,-4.0891,-4.0232,-4.0187,-3.9963,-3.9403,-3.9388,-3.9313,-3.92,-3.8661,-3.8257,0.0,0.0,0.0,0.0,0.0,0.0,0.0,0.0,0.0,0.0,0.0,-3.674,-3.6669,-3.6324,-3.6047,-3.5877,-3.5983,-3.5535,-3.4765,-3.4765,-3.4291,-3.3761,-3.4316,-3.4294,-3.3986,-3.3869,-3.3818,-3.3716,-3.3198,-3.3013,-3.2949,-3.252,-3.2398,-3.2398,-3.2398,-3.2722,-3.2922,-3.2492,-3.2722,-3.2922,-3.2492,-3.2398,-3.2398,-3.2398,-3.2398,0.0,0.0,0.0,0.0,0.0,0.0,0.0,0.0,0.0,0.0,-3.2398,0.0,0.0,0.0,0.0,0.0,0.0,0.0,0.0,0.0,0.0,-3.547,-3.56,0.0,-3.56,-3.56,-3.56,-3.56,-3.56,-3.56,-3.56,-3.56,-3.56,-3.56,-3.56,-3.56,-3.56,-3.56,-3.56,-3.56,-3.56,-3.56,-3.56,-3.56,0.0,0.0,0.0,0.0,0.0,0.0,-4.1384,-4.1422,-4.1429,-4.1549,-4.1504,-4.1512,-4.1512,-4.1452,-4.1145,-4.0546,-4.0487,-4.0217,-3.9559,-3.9514,-3.9484,-3.9388,-3.9388,-3.9125,-3.8497,-3.8422,-3.7823,0.0,0.0,-3.5929,0.0,0.0,0.0,0.0,0.0,0.0,0.0,-3.5385,-3.5153,-3.4816,-3.5301,-3.5039,-3.4455,-3.5013,-3.4432,-3.3398,-3.3398,-3.3038,-3.2563,-3.2624,-3.3235,-3.3935,-3.3433,-3.3261,-3.3172,-3.2641,-3.2465,-3.2465,-3.241,-3.2398,-3.2398,-3.2398,-3.2437,-3.2465,-3.241,-3.2437,-3.2465,-3.241,-3.2398,-3.2398,-3.2398,-3.2398,-3.2398,0.0,0.0,0.0,0.0,0.0,-3.2398,-3.2398,0.0,0.0,0.0,-3.2398,0.0,0.0,-3.2453,0.0,0.0,0.0,0.0,-3.5538,0.0,-3.5108,-3.56,-3.56,-3.56,-3.56,-3.56,-3.56,-3.56,-3.56,-3.56,-3.56,-3.56,-3.56,-3.56,-3.56,-3.56,-3.56,-3.56,-3.56,-3.56,-3.56,-3.56,-3.56,0.0,0.0,0.0,0.0,0.0,0.0,0.0,-4.0202,-4.0202,-4.0202,-4.0546,-4.0786,-4.0786,-4.0442,-4.0098,-3.9828,-3.9813,-3.9709,-3.9439,-3.9388,-3.923,-3.8826,-3.8796,-3.8497,-3.7808,-3.7434,-3.7,0.0,0.0,0.0,0.0,0.0,0.0,0.0,0.0,-3.5094,-3.4606,-3.4741,-3.4431,-3.3858,-3.41,-3.3777,-3.3154,-3.3383,-3.3157,-3.2722,-3.2722,-3.2574,-3.2398,-3.2398,-3.2668,-3.3002,-3.2803,-3.2722,-3.2668,-3.2465,-3.2398,-3.2398,-3.2398,-3.2398,-3.2398,-3.2398,-3.2398,-3.2398,-3.2398,-3.2398,-3.2398,-3.2398,-3.2398,-3.2398,-3.2398,-3.2398,-3.2398,-3.2398,0.0,0.0,0.0,0.0,0.0,-3.2398,0.0,-3.2398,0.0,0.0,0.0,0.0,0.0,0.0,0.0,0.0,0.0,-3.5108,0.0,-3.5379,-3.56,-3.56,-3.56,-3.56,-3.56,-3.56,-3.56,-3.56,-3.56,-3.56,-3.56,-3.56,-3.56,-3.56,-3.56,-3.56,-3.56,-3.56,-3.56,-3.56,-3.56,-3.56,-4.0335,0.0,-4.028,0.0,-4.0113,-3.9963,-3.9448,-3.9388,-3.9388,-3.9388,-3.9828,-4.0113,-4.0113,-3.9694,-3.9388,-3.9388,-3.9388,-3.9334,-3.9125,-3.9125,-3.8811,-3.8138,-3.8108,0.0,-3.7218,-3.6768,-3.6472,-3.6277,-3.5844,0.0,0.0,0.0,0.0,0.0,-3.4714,-3.4485,-3.3991,-3.4123,-3.3752,-3.3106,-3.3106,-3.2813,-3.2398,-3.2398,-3.2398,-3.2398,-3.2398,-3.2398,-3.2398,-3.2398,-3.2398,-3.2398,-3.2398,-3.2398,-3.2398,-3.2398,-3.2398,-3.2398,-3.2398,-3.2398,-3.2398,-3.2398,-3.2398,-3.2398,-3.2398,-3.2398,-3.2398,-3.2398,-3.2398,-3.2398,-3.2398,-3.2398,-3.2398,-3.2398,0.0,0.0,0.0,-3.2398,0.0,0.0,-3.2398,-3.2398,-3.2398,-3.2398,0.0,0.0,0.0,0.0,0.0,0.0,0.0,0.0,0.0,0.0,0.0,-3.56,-3.56,-3.56,-3.56,-3.56,-3.56,-3.56,-3.56,-3.56,-3.56,-3.56,-3.56,-3.56,-3.56,-3.56,-3.56,-3.56,-3.56,-3.56,-3.56,-3.56,-3.9696,-3.9568,-3.9388,-3.9388,-3.9388,-3.9388,-3.9388,-3.9388,-3.9388,-3.9388,-3.9388,-3.9388,-3.9388,-3.9388,-3.9388,-3.9388,-3.9388,-3.9125,-3.8452,-3.8407,-3.8108,0.0,0.0,-3.7188,-3.6709,-3.6694,-3.6381,-3.5703,0.0,0.0,-3.4691,0.0,-3.409,-3.4208,-3.4208,-3.3914,-3.3413,-3.3413,-3.3029,-3.2398,-3.2398,-3.2398,-3.2398,-3.2398,-3.2398,-3.2398,-3.2398,-3.2398,-3.2398,-3.2398,-3.2398,-3.2398,-3.2398,-3.2398,-3.2398,-3.2398,-3.2398,-3.2398,-3.2398,-3.2398,-3.2398,-3.2398,-3.2398,-3.2398,-3.2398,-3.2398,-3.2398,-3.2398,-3.2398,-3.2398,-3.2398,-3.2398,-3.2398,-3.2398,0.0,0.0,0.0,0.0,0.0,-3.2398,-3.2398,-3.2398,-3.2398,-3.2398,0.0,0.0,0.0,0.0,0.0,0.0,0.0,-3.4745,-3.4309,0.0,-3.56,-3.56,-3.56,-3.56,-3.56,-3.56,-3.56,-3.56,-3.56,-3.56,-3.56,-3.56,-3.56,-3.56,-3.56,-3.56,-3.56,-3.56,-3.56,-3.56,-3.56,-3.56,-3.9391,-3.9445,-3.9388,-3.9388,-3.9388,-3.9388,-3.9388,-3.9388,-3.9388,-3.9388,-3.9005,-3.8721,-3.8721,-3.8721,-3.8721,0.0,-3.8422,-3.8146,0.0,-3.8008,-3.7775,-3.7141,-3.7126,-3.6826,-3.6258,-3.6228,-3.6122,-3.5894,0.0,0.0,0.0,-3.4243,-3.3801,-3.3521,-3.3521,-3.3225,-3.2721,-3.2721,-3.2598,-3.2398,-3.2398,-3.2398,-3.2398,-3.2398,-3.2398,-3.2398,-3.2398,-3.2398,-3.2398,-3.2398,-3.2398,-3.2398,-3.2398,-3.2398,-3.2398,-3.2398,-3.2398,-3.2398,-3.2398,-3.2398,-3.2398,-3.2398,-3.2398,-3.2398,-3.2398,-3.2398,-3.2398,-3.2398,-3.2398,-3.2398,-3.2398,-3.2398,-3.2398,-3.2398,-3.2398,0.0,-3.2398,0.0,-3.2398,-3.2398,-3.2398,-3.2398,-3.2398,-3.2398,0.0,0.0,0.0,0.0,0.0,0.0,0.0,0.0,-3.3894,0.0,-3.5045,-3.5045,-3.5247,-3.56,-3.56,-3.56,-3.56,-3.56,-3.56,-3.56,-3.56,-3.5402,-3.5068,-3.5447,-3.5362,-3.5091,-3.5447,-3.56,-3.56,-3.56,-3.56,-3.5554,-3.8586,-3.8661,-3.8661,-3.8661,-3.8661,-3.8661,-3.8661,-3.8661,-3.8661,-3.8661,-3.8287,-3.8018,-3.8018,-3.7878,0.0,-3.8003,-3.7762,-3.75,-3.7259,-3.7364,-3.7162,-3.6544,-3.6578,-3.6446,-3.6068,-3.6068,0.0,-3.6068,-3.5778,-3.5216,-3.4393,-3.3832,-3.3343,-3.2903,-3.2846,-3.2658,-3.2398,-3.2398,-3.2398,-3.2398,-3.2398,-3.2398,-3.2398,-3.2398,-3.2398,-3.2398,-3.2398,-3.2398,-3.2398,-3.2398,-3.2398,-3.2398,-3.2398,-3.2398,-3.2398,-3.2398,-3.2398,-3.2398,-3.2398,-3.2398,-3.2398,-3.2398,-3.2398,-3.2398,-3.2398,-3.2398,-3.2398,-3.2398,-3.2398,-3.2398,-3.2398,-3.2398,-3.2398,-3.2398,-3.2398,-3.2398,-3.2398,0.0,-3.2398,0.0,0.0,0.0,0.0,-3.2398,-3.2398,0.0,0.0,0.0,0.0,0.0,0.0,-3.3182,-3.3521,0.0,-3.4504,-3.4697,-3.4975,-3.5293,-3.5492,-3.56,-3.56,-3.56,-3.5492,-3.5293,-3.5293,-3.5108,-3.4833,-3.5155,-3.5224,-3.5115,-3.547,-3.547,-3.5293,-3.5293,-3.5178,-3.4951,-3.7404,-3.7404,-3.7404,0.0,-3.7439,0.0,-3.7404,-3.7404,-3.7404,-3.7404,-3.7375,-3.7345,-3.7345,-3.691,-3.6793,-3.7244,0.0,0.0,0.0,-3.6601,-3.6398,-3.5782,-3.5926,-3.6085,-3.6211,-3.6211,-3.6212,-3.6166,-3.5354,-3.4408,-3.3398,-3.3096,-3.2774,-3.2398,-3.2274,-3.2274,-3.2398,-3.2398,-3.2398,-3.2398,-3.2398,-3.2398,-3.2398,-3.2398,-3.2398,-3.2398,-3.2398,-3.2398,-3.2398,-3.2398,-3.2398,-3.2398,-3.2398,-3.2398,-3.2398,-3.2398,-3.2398,-3.2398,-3.2398,-3.2398,-3.2398,-3.2398,-3.2398,-3.2398,-3.2398,-3.2398,-3.2398,-3.2398,-3.2398,-3.2398,-3.2398,-3.2398,-3.2398,-3.2398,-3.2398,-3.2398,-3.2398,-3.2398,-3.2398,0.0,0.0,0.0,-3.2398,-3.2398,-3.2398,0.0,0.0,0.0,0.0,0.0,-3.2614,-3.3119,-3.313,-3.3407,-3.3944,-3.4456,-3.4697,-3.4745,-3.5247,-3.5492,-3.5492,-3.5492,-3.5224,-3.4745,-3.4745,-3.4721,-3.4697,-3.4769,-3.5045,-3.5447,-3.5532,-3.5224,-3.4745,-3.4745,-3.4431,-3.3986,0.0,0.0,-3.7639,-3.7639,-3.7726,-3.776,-3.7639,-3.7639,-3.7556,-3.7404,-3.7,-3.6701,-3.6701,-3.6151,-3.5872,-3.609,-3.6235,-3.6286,-3.6135,-3.6233,-3.6316,-3.6304,-3.6367,-3.6398,-3.6414,-3.6414,-3.6168,-3.5692,-3.494,-3.4201,-3.3398,-3.2791,-3.2496,-3.2398,-3.237,-3.237,-3.2398,-3.2398,-3.2398,-3.2398,-3.2398,-3.2398,-3.2398,-3.2398,-3.2398,-3.2398,-3.2398,-3.2398,-3.2398,-3.2398,-3.2398,-3.2398,-3.2398,-3.2398,-3.2398,-3.2398,-3.2398,-3.2398,-3.2398,-3.2398,-3.2398,-3.2398,-3.2398,-3.2398,-3.2398,-3.2398,-3.2398,-3.2398,-3.2398,-3.2398,-3.2398,-3.2398,-3.2398,-3.2398,-3.2398,-3.2398,-3.2398,-3.2398,-3.2398,0.0,-3.2398,-3.2398,-3.2398,-3.2398,-3.2398,0.0,0.0,0.0,0.0,-3.2398,-3.2465,-3.2602,-3.2602,-3.2841,-3.3365,-3.3521,-3.3777,-3.421,-3.4333,-3.4382,-3.4382,-3.4382,-3.4309,-3.4185,-3.4185,-3.3969,-3.3649,-3.4464,-3.439,-3.3853,-3.4673,-3.4649,-3.4185,-3.4185,-3.4111,-3.3944,-3.6565,-3.6706,-3.6821,-3.6902,-3.6985,-3.7018,-3.6935,-3.6935,-3.6887,-3.6773,-3.6453,-3.6275,-3.6275,-3.6008,-3.5814,-3.5831,-3.5863,-3.5894,-3.6005,-3.6116,-3.6242,-3.6352,-3.646,-3.6492,-3.6492,-3.6492,-3.6014,-3.5044,-3.469,-3.3981,-3.2936,-3.2567,-3.2398,-3.2398,-3.2398,-3.2398,-3.2398,-3.2398,-3.2398,-3.2398,-3.2398,-3.2398,-3.2398,-3.2398,-3.2398,-3.2398,-3.2398,-3.2398,-3.2398,-3.2398,-3.2398,-3.2398,-3.2398,-3.2398,-3.2398,-3.2398,-3.2398,-3.2398,-3.2398,-3.2398,-3.2398,-3.2398,-3.2398,-3.2398,-3.2398,-3.2398,-3.2398,-3.2398,-3.2398,-3.2398,-3.2398,-3.2398,-3.2398,-3.2398,-3.2398,-3.2398,-3.2398,-3.2398,-3.2398,-3.2398,-3.2398,-3.2398,-3.2398,-3.2398,-3.2398,-3.2398,-3.2398,0.0,-3.2398,-3.2398,-3.2398,-3.2398,-3.2398,-3.2547,-3.2841,-3.3093,-3.3485,-3.4011,-3.4011,-3.4011,-3.4011,-3.4011,-3.3869,-3.364,-3.364,-3.3485,-3.3251,-3.3827,-3.3869,-3.3624,-3.421,-3.4095,-3.364,-3.364,-3.3485,-3.324,-3.5752,-3.5752,-3.5816,-3.599,-3.6068,-3.6068,-3.6037,-3.6037,-3.6037,-3.6005,-3.6005,-3.6005,-3.6005,-3.6085,-3.6148,-3.6037,-3.5847,-3.5863,-3.6037,-3.6148,-3.6211,-3.6242,-3.6414,-3.6492,-3.6492,-3.6384,-3.5752,-3.4505,-3.4397,-3.3688,-3.2398,-3.2398,-3.2398,-3.2398,-3.2398,-3.2398,-3.2398,-3.2398,-3.2398,-3.2398,-3.2398,-3.2398,-3.2398,-3.2398,-3.2398,-3.2398,-3.2398,-3.2398,-3.2398,-3.2398,-3.2398,-3.2398,-3.2398,-3.2398,-3.2398,-3.2398,-3.2398,-3.2398,-3.2398,-3.2398,-3.2398,-3.2398,-3.2398,-3.2398,-3.2398,-3.2398,-3.2398,-3.2398,-3.2398,-3.2398,-3.2398,-3.2398,-3.2398,-3.2398,-3.2398,-3.2398,-3.2398,0.0,-3.2398,-3.2398,-3.2398,-3.2398,-3.2398,-3.2398,-3.2398,-3.2398,-3.2398,-3.2398,-3.2398,-3.2398,-3.2398,-3.2398,-3.2398,-3.2398,-3.2398,-3.2841,-3.3303,-3.3758,-3.3758,-3.3758,-3.3758,-3.3758,-3.3511,-3.3093,-3.3093,-3.3093,-3.3093,-3.3172,-3.3433,-3.3783,-3.3843,-3.3563,-3.3093,-3.3093,-3.2725,-3.2244,-3.5941,-3.6053,-3.6133,-3.6164,-3.632,-3.6367,-3.6179,-3.6179,-3.6116,-3.6005,-3.6005,-3.6005,-3.6005,-3.6037,-3.6068,-3.6148,-3.6148,-3.6148,-3.6179,-3.6179,-3.6274,-3.646,-3.6492,-3.6492,-3.6492,-3.5938,-3.529,-3.4505,-3.3875,-3.3167,-3.2398,-3.2398,-3.2398,-3.2398,-3.2398,-3.2398,-3.2398,-3.2398,-3.2398,-3.2398,-3.2398,-3.2398,-3.2398,-3.2398,-3.2398,-3.2398,-3.2398,-3.2398,-3.2398,-3.2398,-3.2398,-3.2398,-3.2398,-3.2398,-3.2398,-3.2398,-3.2398,-3.2398,-3.2398,-3.2398,-3.2398,-3.2398,-3.2398,-3.2398,-3.2398,-3.2398,-3.2398,-3.2398,-3.2398,-3.2398,-3.2398,-3.2398,-3.2398,-3.2398,-3.2398,-3.2398,-3.2398,0.0,-3.2398,-3.2398,-3.2398,-3.2398,-3.2398,-3.2398,-3.2398,-3.2398,-3.2398,-3.2398,-3.2398,-3.2398,-3.2398,-3.2398,-3.2398,-3.2398,-3.2398,-3.2465,-3.2574,-3.2656,-3.2656,-3.2656,-3.2656,-3.2656,-3.2602,-3.252,-3.252,-3.252,-3.2574,-3.3013,-3.2986,-3.2695,-3.3145,-3.3002,-3.252,-3.252,-3.211,-3.1563,-3.5583,-3.5904,-3.6242,-3.6352,-3.6445,-3.646,-3.6383,-3.6352,-3.6352,-3.6289,-3.6273,-3.6273,-3.6273,-3.6273,-3.6289,-3.6352,-3.6352,-3.6352,-3.6352,-3.6352,-3.6383,-3.6492,-3.6492,-3.6492,-3.6492,-3.583,-3.5183,-3.4505,-3.3752,-3.3059,-3.2398,-3.2398,-3.2398,-3.2398,-3.2398,-3.2398,-3.2398,-3.2398,-3.2398,-3.2398,-3.2398,-3.2398,-3.2398,-3.2398,-3.2398,-3.2398,-3.2398,-3.2398,-3.2398,-3.2398,-3.2398,-3.2398,-3.2398,-3.2398,-3.2398,-3.2398,-3.2398,-3.2398,-3.2398,-3.2398,-3.2398,-3.2398,-3.2398,-3.2398,-3.2398,-3.2398,-3.2398,-3.2398,-3.2398,-3.2398,-3.2398,-3.2398,-3.2398,-3.2398,-3.2398,0.0,0.0,-3.2398,-3.2398,-3.2398,-3.2398,-3.2398,-3.2398,-3.2398,-3.2398,-3.2398,-3.2398,-3.2398,-3.2398,-3.2398,-3.2398,-3.2398,-3.2398,-3.2398,-3.2398,-3.2398,-3.2398,-3.2398,-3.2398,-3.2398,-3.2398,-3.2398,-3.2398,-3.2398,-3.2398,-3.2398,-3.2425,-3.2668,-3.2614,-3.2379,-3.2264,-3.2071,-3.1813,-3.1459,-3.1136,-3.0859,-3.5033,-3.5447,-3.5891,-3.623,-3.6261,-3.6307,-3.6476,-3.6492,-3.6492,-3.6492,-3.6492,-3.6492,-3.6492,-3.6492,-3.6492,-3.6492,-3.6492,-3.6492,-3.6492,-3.6492,-3.6492,-3.6492,-3.6338,-3.6261,-3.6261,-3.543,-3.4752,-3.4243,-3.3521,-3.2906,-3.2398,-3.2398,-3.2398,-3.2398,-3.2398,-3.2398,-3.2398,-3.2398,-3.2398,-3.2398,-3.2398,-3.2398,-3.2398,-3.2398,-3.2398,-3.2398,-3.2398,-3.2398,-3.2398,-3.2398,-3.2398,-3.2398,-3.2398,-3.2398,-3.2398,-3.2398,-3.2398,-3.2398,-3.2398,-3.2398,-3.2398,-3.2398,-3.2398,-3.2398,-3.2398,-3.2398,-3.2398,-3.2398,-3.2398,-3.2398,-3.2398,-3.2398,-3.2398,-3.2398,0.0,0.0,0.0,-3.2398,-3.2398,-3.2398,-3.2398,-3.2398,-3.2398,-3.2398,-3.2398,-3.2398,-3.2398,-3.2398,-3.2398,-3.2398,-3.2398,-3.2398,-3.2398,-3.2398,-3.2398,-3.2398,-3.2398,-3.2398,-3.2398,-3.2398,-3.2398,-3.2398,-3.2398,-3.2398,-3.2398,-3.2398,-3.2382,-3.2228,-3.2151,-3.209,-3.1428,-3.1166,-3.1105,-3.0586,-3.0294,-3.0156,-3.4537,-3.4583,-3.4814,-3.5475,-3.5553,-3.5768,-3.6399,-3.6492,-3.6492,-3.6492,-3.6492,-3.6492,-3.6492,-3.6492,-3.6492,-3.6492,-3.6492,-3.6492,-3.6492,-3.6492,-3.6492,-3.6492,-3.5922,-3.5553,-3.5553,-3.4245,-3.3537,-3.3475,-3.2798,-3.2444,-3.2398,-3.2398,-3.2398,-3.2398,-3.2398,-3.2398,-3.2398,-3.2398,-3.2398,-3.2398,-3.2398,-3.2398,-3.2398,-3.2398,-3.2398,-3.2398,-3.2398,-3.2398,-3.2398,-3.2398,-3.2398,-3.2398,-3.2398,-3.2398,-3.2398,-3.2398,-3.2398,-3.2398,-3.2398,-3.2398,-3.2398,-3.2398,-3.2398,-3.2398,-3.2398,-3.2398,-3.2398,-3.2398,-3.2398,-3.2398,-3.2398,-3.2398,-3.2398,-3.2398,0.0,0.0,-3.2398,-3.2398,-3.2398,-3.2398,-3.2398,-3.2398,-3.2398,-3.2398,-3.2398,-3.2398,-3.2398,-3.2398,-3.2398,-3.2398,-3.2398,-3.2398,-3.2398,-3.2398,-3.2398,-3.2398,-3.2398,-3.2398,-3.2398,-3.2398,-3.2398,-3.2398,-3.2398,-3.2398,-3.2398,-3.2398,-3.2336,-3.1747,-3.1459,-3.1424,-3.0751,-3.0463,-3.0463,-3.0417,-3.0002,-2.9464,-3.3814,-3.4197,-3.4582,-3.4844,-3.489,-3.5121,-3.5799,-3.5891,-3.6014,-3.6445,-3.6492,-3.6492,-3.6492,-3.6492,-3.6492,-3.6492,-3.6492,-3.6307,-3.5891,-3.5891,-3.5891,-3.5891,-3.566,-3.5321,-3.489,-3.3906,-3.3398,-3.3398,-3.2721,-3.2398,-3.2398,-3.2398,-3.2398,-3.2398,-3.2398,-3.2398,-3.2398,-3.2398,-3.2398,-3.2398,-3.2398,-3.2398,-3.2398,-3.2398,-3.2398,-3.2398,-3.2398,-3.2398,-3.2398,-3.2398,-3.2398,-3.2398,-3.2398,-3.2398,-3.2398,-3.2398,-3.2398,-3.2398,-3.2398,-3.2398,-3.2398,-3.2398,-3.2398,-3.2398,-3.2398,-3.2398,-3.2398,-3.2398,-3.2398,-3.2398,-3.2398,-3.2398,-3.2398,-3.2398,0.0,-3.2398,-3.2398,-3.2398,-3.2398,-3.2398,-3.2398,-3.2398,-3.2398,-3.2398,-3.2398,-3.2398,-3.2398,-3.2398,-3.2398,-3.2398,-3.2398,-3.2398,-3.2398,-3.2398,-3.2398,-3.2398,-3.2398,-3.2398,-3.2398,-3.2398,-3.2398,-3.2398,-3.2398,-3.2398,-3.2398,-3.2151,-3.1751,-3.1516,-3.1151,-3.072,-3.0033,-2.9771,-2.9725,-2.9294,-2.9012,-2.8781,-3.309,-3.3475,-3.3919,-3.4135,-3.4166,-3.4397,-3.509,-3.5198,-3.5367,-3.5799,-3.5861,-3.5861,-3.5861,-3.5861,-3.5861,-3.5861,-3.5861,-3.5691,-3.5229,-3.5198,-3.5198,-3.5198,-3.4953,-3.4614,-3.4152,-3.3444,-3.309,-3.309,-3.2628,-3.2398,-3.2398,-3.2398,-3.2398,-3.2398,-3.2398,-3.2398,-3.2398,-3.2398,-3.2398,-3.2398,-3.2398,-3.2398,-3.2398,-3.2398,-3.2398,-3.2398,-3.2398,-3.2398,-3.2398,-3.2398,-3.2398,-3.2398,-3.2398,-3.2398,-3.2398,-3.2398,-3.2398,-3.2398,-3.2398,-3.2244,-3.2136,-3.2336,-3.2398,-3.2398,-3.2398,-3.2228,-3.2074,-3.2074,-3.1921,-3.1767,-3.1767,-3.1767,-3.1767,-3.1767,-3.1767,-3.1767,-3.1767,-3.1767,-3.1767,-3.1767,-3.1767,-3.1767,-3.1767,-3.1951,-3.2074,-3.2074,-3.2275,-3.2398,-3.2398,-3.2398,-3.2398,-3.2398,-3.2398,-3.2398,-3.2398,-3.2398,-3.2398,-3.2398,-3.2398,-3.2398,-3.2398,-3.2398,-3.2398,-3.2382,-3.2167,-3.184,-3.1378,-3.0936,-3.0505,-3.0017,-2.9341,-2.9104,-2.9042,-2.8581,-2.8411,-2.8411,-3.2398,-3.2398,-3.2613,-3.3275,-3.3398,-3.3629,-3.4382,-3.4489,-3.4489,-3.4505,-3.4505,-3.4505,-3.4505,-3.4505,-3.4505,-3.4505,-3.4505,-3.4505,-3.4489,-3.4489,-3.4489,-3.4489,-3.3783,-3.3398,-3.3398,-3.2736,-3.2398,-3.2398,-3.2398,-3.2398,-3.2398,-3.2398,-3.2398,-3.2398,-3.2398,-3.2398,-3.2398,-3.2398,-3.2398,-3.2398,-3.2398,-3.2398,-3.2398,-3.2398,-3.2398,-3.2398,-3.2398,-3.2398,-3.2398,-3.2398,-3.2398,-3.2398,-3.2398,-3.2398,-3.2382,-3.2382,-3.2382,-3.2382,-3.2382,-3.189,-3.1563,-3.2213,-3.2382,-3.2382,-3.2382,-3.1859,-3.1393,-3.1393,-3.0859,-3.0402,-3.0402,-3.0402,-3.0402,-3.0402,-3.0402,-3.0402,-3.0402,-3.0402,-3.0402,-3.0402,-3.0402,-3.0402,-3.0402,-3.0997,-3.1393,-3.1393,-3.1997,-3.2382,-3.2382,-3.2382,-3.2382,-3.2382,-3.2398,-3.2398,-3.2398,-3.2398,-3.2398,-3.2398,-3.2398,-3.2398,-3.2398,-3.2382,-3.2382,-3.2336,-3.1674,-3.1393,-3.1285,-2.995,-2.9387,-2.9335,-2.8673,-2.8411,-2.8411,-2.8411,-2.8411,-2.8411,-3.2398,-3.2398,-3.2459,-3.2659,-3.269,-3.2921,-3.3614,-3.3721,-3.3906,-3.4428,-3.4505,-3.4505,-3.4505,-3.4505,-3.4505,-3.4505,-3.4505,-3.4289,-3.3752,-3.3275,-3.3013,-3.3013,-3.326,-3.3183,-3.2705,-3.249,-3.2398,-3.2398,-3.2398,-3.2398,-3.2398,-3.2398,-3.2398,-3.2398,-3.2398,-3.2398,-3.2398,-3.2398,-3.2398,-3.2398,-3.2398,-3.2398,-3.2398,-3.2398,-3.2398,-3.2398,-3.2398,-3.2398,-3.2398,-3.2398,-3.2398,-3.2398,-3.2398,-3.2074,-3.169,-3.169,-3.1366,-3.0986,-3.0986,-3.0832,-3.0874,-3.152,-3.1336,-3.0986,-3.0986,-3.0859,-3.0705,-3.0705,-3.054,-3.0402,-3.0402,-3.0402,-3.0402,-3.0402,-3.0402,-3.0402,-3.0402,-3.0402,-3.0402,-3.0402,-3.0402,-3.0402,-3.0402,-3.0571,-3.0705,-3.0705,-3.0863,-3.0986,-3.0986,-3.1443,-3.169,-3.169,-3.2136,-3.2398,-3.2398,-3.2398,-3.2398,-3.2398,-3.2398,-3.2398,-3.2382,-3.1905,-3.169,-3.1643,-3.0997,-3.0443,-2.9966,-2.9566,-2.911,-2.8688,-2.8488,-2.8411,-2.8411,-2.8411,-2.8411,-2.8411,-3.2398,-3.2398,-3.2398,-3.2398,-3.2398,-3.2536,-3.2936,-3.2998,-3.3152,-3.3627,-3.3688,-3.3688,-3.3688,-3.3688,-3.3688,-3.3688,-3.3688,-3.346,-3.3029,-3.2628,-3.2398,-3.2398,-3.2782,-3.2813,-3.2398,-3.2398,-3.2398,-3.2398,-3.2398,-3.2398,-3.2398,-3.2398,-3.2398,-3.2398,-3.2398,-3.2398,-3.2398,-3.2398,-3.2398,-3.2398,-3.2398,-3.2398,-3.2398,-3.2398,-3.2398,-3.2398,-3.2398,-3.2398,-3.2398,-3.2398,-3.2213,-3.1951,-3.169,-3.1336,-3.0997,-3.0997,-3.0735,-3.0402,-3.0402,-3.0202,-3.0094,-3.0505,-3.0505,-3.0402,-3.0402,-3.0186,-3.0002,-3.0002,-2.9787,-2.9602,-2.9602,-2.9602,-2.9602,-2.9602,-2.9602,-2.9602,-2.9602,-2.9602,-2.9602,-2.9602,-2.9602,-2.9602,-2.9602,-2.9848,-3.0109,-3.0371,-3.0402,-3.0402,-3.0402,-3.0797,-3.0997,-3.0997,-3.1397,-3.1613,-3.1613,-3.1613,-3.1736,-3.1982,-3.1982,-3.1859,-3.1613,-3.1197,-3.0997,-3.0966,-3.0294,-2.9771,-2.9371,-2.9095,-2.8781,-2.8411,-2.8411,-2.8411,-2.8411,-2.8411,-2.8411,-2.8411,-3.2398,-3.2398,-3.2398,-3.2398,-3.2398,-3.2398,-3.2398,-3.2398,-3.2398,-3.2398,-3.2398,-3.2398,-3.2398,-3.2398,-3.2398,-3.2398,-3.2398,-3.2398,-3.2398,-3.2398,-3.2398,-3.2398,-3.2398,-3.2398,-3.2398,-3.2398,-3.2398,-3.2398,-3.2398,-3.2398,-3.2398,-3.2398,-3.2398,-3.2398,-3.2398,-3.2398,-3.2398,-3.2398,-3.2398,-3.2398,-3.2398,-3.2398,-3.2398,-3.2398,-3.2398,-3.2382,-3.2321,-3.2305,-3.229,-3.2228,-3.1813,-3.1197,-3.0586,-3.0356,-3.0309,-3.0309,-3.0263,-3.0217,-3.0217,-2.9771,-2.9294,-2.9294,-2.9771,-3.0217,-3.0217,-2.974,-2.9294,-2.9294,-2.8827,-2.8411,-2.8411,-2.8411,-2.8411,-2.8411,-2.8411,-2.8411,-2.8411,-2.8411,-2.8411,-2.8411,-2.8411,-2.8411,-2.8411,-2.8965,-2.9556,-3.0171,-3.0217,-3.0217,-3.0217,-3.0279,-3.0309,-3.0309,-3.0371,-3.0402,-3.0402,-3.0402,-3.072,-3.1305,-3.1305,-3.0982,-3.0402,-3.034,-3.0309,-3.0263,-2.9587,-2.9294,-2.9248,-2.8658,-2.8411,-2.8411,-2.8411,-2.8411,-2.8411,-2.8411,-2.8411,-2.8411,-3.2398,-3.2398,-3.2398,-3.2398,-3.2398,-3.2398,-3.2398,-3.2398,-3.2398,-3.2398,-3.2398,-3.2398,-3.2398,-3.2398,-3.2398,-3.2398,-3.2398,-3.2398,-3.2398,-3.2398,-3.2398,-3.2398,-3.2398,-3.2398,-3.2398,-3.2398,-3.2398,-3.2398,-3.2398,-3.2398,-3.2398,-3.2398,-3.2398,-3.2398,-3.2398,-3.2398,-3.2398,-3.2398,-3.2398,-3.2398,-3.2398,-3.2398,-3.2398,-3.2398,-3.2398,-3.2321,-3.1824,-3.1624,-3.1536,-3.1028,-3.0725,-3.0586,-3.0448,-3.0033,-2.9602,-2.9602,-2.9233,-2.8818,-2.8818,-2.8735,-2.8627,-2.8627,-2.8735,-2.8818,-2.8818,-2.8735,-2.8627,-2.8627,-2.8504,-2.8411,-2.8411,-2.8411,-2.8411,-2.8411,-2.8411,-2.8411,-2.8411,-2.8411,-2.8411,-2.8411,-2.8411,-2.8411,-2.8411,-2.8535,-2.8688,-2.8827,-2.8818,-2.8818,-2.8818,-2.9325,-2.9602,-2.9602,-3.0125,-3.0402,-3.0402,-3.0402,-3.0463,-3.0602,-3.0602,-3.054,-3.0386,-2.9848,-2.9602,-2.9571,-2.8919,-2.8627,-2.8611,-2.8473,-2.8411,-2.8411,-2.8411,-2.8411,-2.8411,-2.8411,-2.8411,-2.8411,-3.2398,-3.2398,-3.2398,-3.2398,-3.2398,-3.2398,-3.2398,-3.2398,-3.2398,-3.2398,-3.2398,-3.2398,-3.2398,-3.2398,-3.2398,-3.2398,-3.2398,-3.2398,-3.2398,-3.2398,-3.2398,-3.2398,-3.2398,-3.2398,-3.2398,-3.2398,-3.2398,-3.2398,-3.2398,-3.2398,-3.2398,-3.2398,-3.2398,-3.2398,-3.2398,-3.2398,-3.2398,-3.2398,-3.2398,-3.2398,-3.2398,-3.2398,-3.2367,-3.2028,-3.1905,-3.1828,-3.1166,-3.092,-3.0828,-3.014,-2.991,-2.9863,-2.9541,-2.9212,-2.8935,-2.8935,-2.8673,-2.8411,-2.8411,-2.8411,-2.8411,-2.8411,-2.8411,-2.8411,-2.8411,-2.8411,-2.8411,-2.8411,-2.8411,-2.8411,-2.8411,-2.8411,-2.8411,-2.8411,-2.8411,-2.8411,-2.8411,-2.8411,-2.8411,-2.8411,-2.8411,-2.8411,-2.8411,-2.8411,-2.8411,-2.8411,-2.8411,-2.8411,-2.8411,-2.8735,-2.8935,-2.8935,-2.9248,-2.9433,-2.9433,-2.9433,-2.9433,-2.9433,-2.9771,-2.9756,-2.9417,-2.9064,-2.8935,-2.8904,-2.855,-2.8411,-2.8411,-2.8411,-2.8411,-2.8411,-2.8411,-2.8411,-2.8411,-2.8411,-2.8411,-2.8411,-3.2398,-3.2398,-3.2398,-3.2398,-3.2398,-3.2398,-3.2398,-3.2398,-3.2398,-3.2398,-3.2398,-3.2398,-3.2398,-3.2398,-3.2398,-3.2398,-3.2398,-3.2398,-3.2398,-3.2398,-3.2398,-3.2398,-3.2398,-3.2398,-3.2398,-3.2398,-3.2398,-3.2398,-3.2398,-3.2398,-3.2398,-3.2398,-3.2398,-3.2398,-3.2398,-3.2398,-3.2398,-3.2398,-3.2398,-3.2398,-3.2398,-3.2321,-3.2151,-3.1597,-3.1347,-3.1136,-3.0463,-3.0156,-2.9971,-2.9427,-2.9243,-2.9125,-2.8581,-2.8411,-2.8411,-2.8411,-2.8411,-2.8411,-2.8411,-2.8411,-2.8411,-2.8411,-2.8411,-2.8411,-2.8411,-2.8411,-2.8411,-2.8411,-2.8411,-2.8411,-2.8411,-2.8411,-2.8411,-2.8411,-2.8411,-2.8411,-2.8411,-2.8411,-2.8411,-2.8411,-2.8411,-2.8411,-2.8411,-2.8411,-2.8411,-2.8411,-2.8411,-2.8411,-2.8411,-2.8411,-2.8411,-2.8411,-2.8411,-2.8411,-2.8411,-2.8411,-2.8411,-2.8411,-2.8965,-2.895,-2.8411,-2.8411,-2.8411,-2.8411,-2.8411,-2.8411,-2.8411,-2.8411,-2.8411,-2.8411,-2.8411,-2.8411,-2.8411,-2.8411,-2.8411,-2.8411,-3.2398,-3.2398,-3.2398,-3.2398,-3.2398,-3.2398,-3.2398,-3.2398,-3.2398,-3.2398,-3.2398,-3.2398,-3.2398,-3.2398,-3.2398,-3.2398,-3.2398,-3.2398,-3.2398,-3.2398,-3.2398,-3.2398,-3.2398,-3.2398,-3.2398,-3.2398,-3.2398,-3.2398,-3.2398,-3.2398,-3.2398,-3.2398,-3.2398,-3.2398,-3.2398,-3.2398,-3.2398,-3.2398,-3.2398,-3.2398,-3.2398,-3.2044,-3.1547,-3.1413,-3.1043,-3.0448,-2.9771,-2.9156,-2.8673,-2.8581,-2.855,-2.8535,-2.8427,-2.8411,-2.8411,-2.8411,-2.8411,-2.8411,-2.8411,-2.8411,-2.8411,-2.8411,-2.8411,-2.8411,-2.8411,-2.8411,-2.8411,-2.8411,-2.8411,-2.8411,-2.8411,-2.8411,-2.8411,-2.8411,-2.8411,-2.8411,-2.8411,-2.8411,-2.8411,-2.8411,-2.8411,-2.8411,-2.8411,-2.8411,-2.8411,-2.8411,-2.8411,-2.8411,-2.8411,-2.8411,-2.8411,-2.8411,-2.8411,-2.8411,-2.8411,-2.8411,-2.8411,-2.8411,-2.8488,-2.8488,-2.8411,-2.8411,-2.8411,-2.8411,-2.8411,-2.8411,-2.8411,-2.8411,-2.8411,-2.8411,-2.8411,-2.8411,-2.8411,-2.8411,-2.8411,-2.8411,-3.2398,-3.2398,-3.2398,-3.2398,-3.2398,-3.2398,-3.2398,-3.2398,-3.2398,-3.2398,-3.2398,-3.2398,-3.2398,-3.2398,-3.2398,-3.2398,-3.2398,-3.2398,-3.2398,-3.2398,-3.2398,-3.2398,-3.2398,-3.2398,-3.2398,-3.2398,-3.2398,-3.2398,-3.2398,-3.2398,-3.2398,-3.2398,-3.2398,-3.2398,-3.2398,-3.2398,-3.2398,-3.2398,-3.2167,-3.1828,-3.1828,-3.1428,-3.0812,-3.0428,-3.0104,-2.974,-2.9064,-2.8658,-2.8411,-2.8411,-2.8411,-2.8411,-2.8411,-2.8411,-2.8411,-2.8411,-2.8411,-2.8411,-2.8411,-2.8411,-2.8411,-2.8411,-2.8411,-2.8411,-2.8411,-2.8411,-2.8411,-2.8411,-2.8411,-2.8411,-2.8411,-2.8411,-2.8411,-2.8411,-2.8411,-2.8411,-2.8411,-2.8411,-2.8411,-2.8411,-2.8411,-2.8411,-2.8411,-2.8411,-2.8411,-2.8411,-2.8411,-2.8411,-2.8411,-2.8411,-2.8411,-2.8411,-2.8411,-2.8411,-2.8411,-2.8411,-2.8411,-2.8411,-2.8411,-2.8411,-2.8411,-2.8411,-2.8411,-2.8411,-2.8411,-2.8411,-2.8411,-2.8411,-2.8411,-2.8411,-2.8411,-2.8411,-2.8411,-2.8411,-2.8411,-2.8411]},{"header":{"parameterUnit":"m.s-1","parameterCategory":1,"la1":30.6,"la2":28.766,"lo1":-90.7593,"lo2":-88.6598,"dy":0.0162,"dx":0.0183,"nx":116,"ny":114,"refTime":"2023-08-01T12:00:00:Z","depth":0,"parameterNumber":3,"parameterNumberName":"V-component_of_WINDS"},"data":[0.0,0.0,0.0,0.0,0.0,0.0,0.0,0.0,0.0,0.0,0.0,0.0,0.0,0.0,0.0,0.0,0.0,0.0,0.0,0.0,0.0,0.0,0.0,0.0,0.0,0.0,0.0,0.0,0.0,0.0,0.0,0.0,0.0,0.0,0.0,0.0,0.0,0.0,0.0,0.0,0.0,0.0,0.0,0.0,0.0,0.0,0.0,0.0,0.0,0.0,0.0,0.0,0.0,0.0,0.0,0.0,0.0,0.0,0.0,0.0,0.0,0.0,0.0,0.0,0.0,0.0,0.0,0.0,0.0,0.0,0.0,0.0,0.0,0.0,0.0,0.0,0.0,0.0,0.0,0.0,0.0,0.0,0.0,0.0,0.0,0.0,0.0,0.0,0.0,0.0,0.0,0.0,0.0,0.0,0.0,0.0,0.0,0.0,0.0,0.0,0.0,0.0,0.0,0.0,0.0,0.0,0.0,0.0,0.0,0.0,0.0,0.0,0.0,0.0,0.0,0.0,0.0,0.0,0.0,0.0,0.0,0.0,0.0,0.0,0.0,0.0,0.0,0.0,0.0,0.0,0.0,0.0,0.0,0.0,0.0,0.0,0.0,0.0,0.0,0.0,0.0,0.0,0.0,0.0,0.0,0.0,0.0,0.0,0.0,0.0,0.0,0.0,0.0,0.0,0.0,0.0,0.0,0.0,0.0,0.0,0.0,0.0,0.0,0.0,0.0,0.0,0.0,0.0,0.0,0.0,0.0,0.0,0.0,0.0,0.0,0.0,0.0,0.0,0.0,0.0,0.0,0.0,0.0,0.0,0.0,0.0,0.0,0.0,0.0,0.0,0.0,0.0,0.0,0.0,0.0,0.0,0.0,0.0,0.0,0.0,0.0,0.0,0.0,0.0,0.0,0.0,0.0,0.0,0.0,0.0,0.0,0.0,0.0,0.0,0.0,0.0,0.0,0.0,0.0,0.0,0.0,0.0,0.0,0.0,0.0,0.0,0.0,0.0,0.0,0.0,0.0,0.0,0.0,0.0,0.0,0.0,0.0,0.0,0.0,0.0,0.0,0.0,0.0,0.0,0.0,0.0,0.0,0.0,0.0,0.0,0.0,0.0,0.0,0.0,0.0,0.0,0.0,0.0,0.0,0.0,0.0,0.0,0.0,0.0,0.0,0.0,0.0,0.0,0.0,0.0,0.0,0.0,0.0,0.0,0.0,0.0,0.0,0.0,0.0,0.0,0.0,0.0,0.0,0.0,0.0,0.0,0.0,0.0,0.0,0.0,0.0,0.0,0.0,0.0,0.0,0.0,0.0,0.0,0.0,0.0,0.0,0.0,0.0,0.0,0.0,0.0,0.0,0.0,0.0,0.0,0.0,0.0,0.0,0.0,0.0,0.0,0.0,0.0,0.0,0.0,0.0,0.0,0.0,0.0,0.0,0.0,0.0,0.0,0.0,0.0,0.0,0.0,0.0,0.0,0.0,0.0,0.0,0.0,0.0,0.0,0.0,0.0,0.0,0.0,0.0,0.0,0.0,0.0,0.0,0.0,0.0,0.0,0.0,0.0,0.0,0.0,0.0,0.0,0.0,0.0,0.0,0.0,0.0,0.0,0.0,0.0,0.0,0.0,0.0,0.0,0.0,0.0,0.0,0.0,0.0,0.0,0.0,0.0,0.0,0.0,0.0,0.0,0.0,0.0,0.0,0.0,0.0,0.0,0.0,0.0,0.0,0.0,0.0,0.0,0.0,0.0,0.0,0.0,0.0,0.0,0.0,0.0,0.0,0.0,0.0,0.0,0.0,0.0,0.0,0.0,0.0,0.0,0.0,0.0,0.0,0.0,0.0,0.0,0.0,0.0,0.0,0.0,0.0,0.0,0.0,0.0,0.0,0.0,0.0,0.0,0.0,0.0,0.0,0.0,0.0,0.0,0.0,0.0,0.0,0.0,0.0,0.0,0.0,0.0,0.0,0.0,0.0,0.0,0.0,0.0,0.0,0.0,0.0,0.0,0.0,0.0,0.0,0.0,0.0,0.0,0.0,0.0,0.0,0.0,0.0,0.0,0.0,0.0,0.0,0.0,0.0,0.0,0.0,0.0,0.0,0.0,0.0,0.0,0.0,0.0,0.0,0.0,0.0,0.0,0.0,0.0,0.0,0.0,0.0,0.0,0.0,0.0,0.0,0.0,0.0,0.0,0.0,0.0,0.0,0.0,0.0,0.0,0.0,0.0,0.0,0.0,0.0,0.0,0.0,0.0,0.0,0.0,0.0,0.0,0.0,0.0,0.0,0.0,0.0,0.0,0.0,0.0,0.0,0.0,0.0,0.0,0.0,0.0,0.0,0.0,0.0,0.0,0.0,0.0,0.0,0.0,0.0,0.0,0.0,0.0,0.0,0.0,0.0,0.0,0.0,0.0,0.0,0.0,0.0,0.0,0.0,0.0,0.0,0.0,0.0,0.0,0.0,0.0,0.0,0.0,0.0,0.0,0.0,0.0,0.0,0.0,0.0,0.0,0.0,0.0,0.0,0.0,0.0,0.0,0.0,0.0,0.0,0.0,0.0,0.0,0.0,0.0,0.0,0.0,0.0,0.0,0.0,0.0,0.0,0.0,0.0,0.0,0.0,0.0,0.0,0.0,0.0,0.0,0.0,0.0,0.0,0.0,0.0,0.0,0.0,0.0,0.0,0.0,0.0,0.0,0.0,0.0,0.0,0.0,0.0,0.0,0.0,0.0,0.0,0.0,0.0,0.0,0.0,0.0,0.0,0.0,0.0,0.0,0.0,0.0,0.0,0.0,0.0,0.0,0.0,0.0,0.0,0.0,0.0,0.0,0.0,0.0,0.0,0.0,0.0,0.0,0.0,0.0,0.0,0.0,0.0,0.0,0.0,0.0,0.0,0.0,0.0,0.0,0.0,0.0,0.0,0.0,0.0,0.0,0.0,0.0,0.0,0.0,0.0,0.0,0.0,0.0,0.0,0.0,0.0,0.0,0.0,0.0,0.0,0.0,0.0,0.0,0.0,0.0,0.0,0.0,0.0,0.0,0.0,0.0,0.0,0.0,0.0,0.0,0.0,0.0,0.0,0.0,0.0,0.0,0.0,0.0,0.0,0.0,0.0,0.0,0.0,0.0,0.0,0.0,0.0,0.0,0.0,0.0,0.0,0.0,0.0,0.0,0.0,0.0,0.0,0.0,0.0,0.0,0.0,0.0,0.0,0.0,0.0,0.0,0.0,0.0,0.0,0.0,0.0,0.0,0.0,0.0,0.0,0.0,0.0,0.0,0.0,0.0,0.0,0.0,0.0,0.0,0.0,0.0,0.0,0.0,0.0,0.0,0.0,0.0,0.0,0.0,0.0,0.0,0.0,0.0,0.0,0.0,0.0,0.0,0.0,0.0,0.0,0.0,0.0,0.0,0.0,0.0,0.0,0.0,0.0,0.0,0.0,0.0,0.0,0.0,0.0,0.0,0.0,0.0,0.0,0.0,0.0,0.0,0.0,0.0,0.0,0.0,0.0,0.0,0.0,0.0,0.0,0.0,0.0,0.0,0.0,0.0,0.0,0.0,0.0,0.0,0.0,0.0,0.0,0.0,0.0,0.0,0.0,0.0,0.0,0.0,0.0,0.0,0.0,0.0,0.0,0.0,0.0,0.0,0.0,0.0,0.0,0.0,0.0,0.0,0.0,0.0,0.0,0.0,0.0,0.0,0.0,0.0,0.0,0.0,0.0,0.0,0.0,0.0,0.0,0.0,0.0,0.0,0.0,0.0,0.0,0.0,0.0,0.0,0.0,0.0,0.0,0.0,0.0,0.0,0.0,0.0,0.0,0.0,0.0,0.0,0.0,0.0,0.0,0.0,0.0,0.0,0.0,0.0,0.0,0.0,0.0,0.0,0.0,0.0,0.0,0.0,0.0,0.0,0.0,0.0,0.0,0.0,0.0,0.0,0.0,0.0,0.0,0.0,0.0,0.0,0.0,0.0,0.0,0.0,0.0,0.0,0.0,0.0,0.0,0.0,0.0,0.0,0.0,0.0,0.0,0.0,0.0,0.0,0.0,0.0,0.0,0.0,0.0,0.0,0.0,0.0,0.0,0.0,0.0,0.0,0.0,0.0,0.0,0.0,0.0,0.0,0.0,0.0,0.0,0.0,0.0,0.0,0.0,0.0,0.0,0.0,0.0,0.0,0.0,0.0,0.0,0.0,0.0,0.0,0.0,0.0,0.0,0.0,0.0,0.0,0.0,0.0,0.0,0.0,0.0,0.0,0.0,0.0,0.0,0.0,0.0,0.0,0.0,0.0,0.0,0.0,0.0,0.0,0.0,0.0,0.0,0.0,0.0,0.0,0.0,0.0,0.0,0.0,0.0,0.0,0.0,0.0,0.0,0.0,0.0,0.0,0.0,0.0,0.0,0.0,0.0,0.0,0.0,0.0,0.0,0.0,0.0,0.0,0.0,0.0,0.0,0.0,0.0,0.0,0.0,0.0,0.0,0.0,0.0,0.0,0.0,0.0,0.0,0.0,0.0,0.0,0.0,0.0,0.0,0.0,0.0,0.0,0.0,0.0,0.0,0.0,0.0,0.0,0.0,0.0,0.0,0.0,0.0,0.0,0.0,0.0,0.0,0.0,0.0,0.0,0.0,0.0,0.0,0.0,0.0,0.0,0.0,0.0,0.0,0.0,0.0,0.0,0.0,0.0,0.0,0.0,0.0,0.0,0.0,0.0,0.0,0.0,0.0,0.0,0.0,0.0,0.0,0.0,0.0,0.0,0.0,0.0,0.0,0.0,0.0,0.0,0.0,0.0,0.0,0.0,0.0,0.0,0.0,0.0,0.0,0.0,0.0,0.0,0.0,0.0,0.0,0.0,0.0,0.0,0.0,0.0,0.0,0.0,0.0,0.0,0.0,0.0,0.0,0.0,0.0,0.0,0.0,0.0,0.0,0.0,0.0,0.0,0.0,0.0,0.0,0.0,0.0,0.0,0.0,0.0,0.0,0.0,0.0,0.0,0.0,0.0,0.0,0.0,0.0,0.0,0.0,0.0,0.0,0.0,0.0,0.0,0.0,0.0,0.0,0.0,0.0,0.0,0.0,0.0,0.0,0.0,0.0,0.0,0.0,0.0,0.0,0.0,0.0,0.0,0.0,0.0,0.0,0.0,0.0,0.0,0.0,0.0,0.0,0.0,0.0,0.0,0.0,0.0,0.0,0.0,0.0,0.0,0.0,0.0,0.0,0.0,0.0,0.0,0.0,0.0,0.0,0.0,0.0,0.0,0.0,0.0,0.0,0.0,0.0,0.0,0.0,0.0,0.0,0.0,0.0,0.0,0.0,0.0,0.0,0.0,0.0,0.0,0.0,0.0,0.0,0.0,0.0,0.0,0.0,0.0,0.0,0.0,0.0,0.0,0.0,0.0,0.0,0.0,0.0,0.0,0.0,0.0,0.0,0.0,0.0,0.0,0.0,0.0,0.0,0.0,0.0,0.0,0.0,0.0,0.0,0.0,0.0,0.0,0.0,0.0,0.0,0.0,0.0,0.0,0.0,0.0,0.0,0.0,0.0,0.0,0.0,0.0,0.0,0.0,0.0,0.0,0.0,0.0,0.0,0.0,0.0,0.0,0.0,0.0,0.0,0.0,0.0,0.0,0.0,0.0,0.0,0.0,0.0,0.0,0.0,0.0,0.0,0.0,0.0,0.0,0.0,0.0,0.0,0.0,0.0,0.0,0.0,0.0,0.0,0.0,0.0,0.0,0.0,0.0,0.0,0.0,0.0,0.0,0.0,0.0,0.0,0.0,0.0,0.0,0.0,0.0,0.0,0.0,0.0,0.0,0.0,0.0,0.0,0.0,0.0,0.0,0.0,0.0,0.0,0.0,0.0,0.0,0.0,0.0,0.0,0.0,0.0,0.0,0.0,0.0,0.0,0.0,0.0,0.0,0.0,0.0,0.0,0.0,0.0,0.0,0.0,0.0,0.0,0.0,0.0,0.0,0.0,0.0,0.0,0.0,0.0,0.0,0.0,0.0,0.0,0.0,0.0,0.0,0.0,0.0,0.0,0.0,0.0,0.0,0.0,0.0,0.0,0.0,0.0,0.0,0.0,0.0,-1.7451,0.0,0.0,0.0,0.0,0.0,0.0,0.0,0.0,0.0,0.0,0.0,0.0,0.0,0.0,0.0,0.0,0.0,0.0,0.0,0.0,0.0,0.0,0.0,0.0,0.0,0.0,0.0,0.0,0.0,0.0,0.0,0.0,0.0,0.0,0.0,0.0,0.0,0.0,0.0,0.0,0.0,0.0,0.0,0.0,0.0,0.0,0.0,0.0,0.0,0.0,0.0,0.0,0.0,0.0,0.0,0.0,0.0,0.0,0.0,0.0,0.0,0.0,0.0,0.0,0.0,0.0,0.0,0.0,0.0,0.0,0.0,0.0,0.0,0.0,0.0,0.0,0.0,0.0,0.0,0.0,0.0,0.0,0.0,0.0,0.0,0.0,0.0,0.0,0.0,0.0,0.0,0.0,0.0,0.0,0.0,0.0,0.0,0.0,0.0,0.0,0.0,0.0,0.0,0.0,0.0,0.0,0.0,0.0,0.0,0.0,0.0,0.0,0.0,0.0,0.0,0.0,-1.8777,0.0,0.0,0.0,0.0,0.0,0.0,0.0,0.0,0.0,0.0,0.0,0.0,0.0,0.0,0.0,0.0,0.0,0.0,0.0,0.0,0.0,0.0,0.0,0.0,0.0,0.0,0.0,0.0,0.0,0.0,0.0,0.0,0.0,0.0,0.0,0.0,0.0,0.0,0.0,0.0,0.0,0.0,0.0,0.0,0.0,0.0,0.0,0.0,0.0,0.0,0.0,0.0,0.0,0.0,0.0,0.0,0.0,0.0,0.0,0.0,0.0,0.0,0.0,0.0,0.0,0.0,0.0,0.0,0.0,0.0,0.0,0.0,0.0,0.0,0.0,0.0,0.0,0.0,0.0,0.0,0.0,0.0,0.0,0.0,0.0,0.0,0.0,0.0,0.0,0.0,0.0,0.0,0.0,0.0,0.0,0.0,0.0,0.0,0.0,0.0,0.0,0.0,0.0,0.0,0.0,0.0,0.0,0.0,-1.0785,-1.1623,-1.378,-1.4485,-1.5553,-1.6979,-1.8058,-1.8829,-1.9424,-1.9424,0.0,0.0,0.0,0.0,0.0,0.0,0.0,0.0,0.0,0.0,0.0,0.0,0.0,0.0,0.0,0.0,0.0,0.0,0.0,0.0,0.0,0.0,0.0,0.0,0.0,0.0,0.0,0.0,0.0,0.0,0.0,0.0,0.0,0.0,0.0,0.0,0.0,0.0,-0.7988,-0.8784,-0.9248,-0.9493,0.0,0.0,0.0,0.0,0.0,0.0,0.0,0.0,0.0,0.0,0.0,0.0,0.0,0.0,0.0,0.0,0.0,0.0,0.0,0.0,0.0,0.0,0.0,0.0,0.0,0.0,0.0,0.0,0.0,0.0,0.0,0.0,0.0,0.0,0.0,0.0,0.0,0.0,0.0,0.0,0.0,0.0,0.0,0.0,-0.9076,-0.8912,0.0,0.0,0.0,0.0,0.0,0.0,0.0,0.0,0.0,0.0,0.0,0.0,0.0,-0.9822,-0.9822,-0.9822,-0.9879,-1.0061,-1.2165,-1.3481,-1.4123,-1.6402,-1.7889,-1.8583,-1.8758,0.0,-1.9424,-1.9424,0.0,0.0,0.0,0.0,0.0,0.0,0.0,0.0,0.0,0.0,0.0,0.0,0.0,0.0,0.0,0.0,0.0,0.0,0.0,0.0,0.0,0.0,0.0,0.0,0.0,0.0,0.0,0.0,0.0,0.0,0.0,0.0,0.0,0.0,0.0,0.0,-0.4191,-0.5975,-0.7263,-0.7765,-0.8354,-0.9025,-0.945,-1.0661,-1.2426,-1.3564,0.0,0.0,0.0,0.0,0.0,0.0,0.0,0.0,0.0,0.0,0.0,0.0,0.0,0.0,0.0,0.0,0.0,0.0,0.0,0.0,0.0,0.0,0.0,0.0,0.0,0.0,0.0,0.0,0.0,0.0,0.0,0.0,0.0,0.0,0.0,0.0,0.0,0.0,0.0,-0.8527,-0.8821,-0.9014,-0.933,-0.9649,0.0,0.0,0.0,0.0,0.0,0.0,0.0,0.0,0.0,-0.9822,-0.9822,-0.9822,-0.9822,-0.9822,-1.0543,-1.1985,-1.241,-1.3899,-1.6284,-1.6879,-1.776,-1.8939,-1.912,-1.9243,-1.9424,-1.9424,-1.9424,-1.9424,0.0,0.0,0.0,0.0,-2.0162,-2.1345,0.0,0.0,0.0,0.0,0.0,0.0,0.0,0.0,0.0,0.0,0.0,0.0,0.0,0.0,0.0,0.0448,0.0,0.0,0.0,0.0,0.0,0.0,0.0,0.0,0.0,0.0,0.0,0.0,-0.341,-0.4804,-0.6255,-0.6816,-0.7581,-0.8368,-0.8491,-0.9655,-1.1751,-1.2818,-1.3826,0.0,0.0,0.0,0.0,0.0,0.0,0.0,0.0,0.0,0.0,0.0,0.0,0.0,0.0,0.0,0.0,0.0,0.0,0.0,0.0,0.0,0.0,0.0,0.0,0.0,0.0,0.0,0.0,0.0,0.0,0.0,0.0,0.0,0.0,0.0,0.0,0.0,0.0,-0.8306,-0.867,-0.8824,-0.9418,-0.9853,0.0,0.0,0.0,0.0,0.0,0.0,-0.9998,-0.9958,-0.992,-0.988,-0.988,-0.9863,-0.9822,-0.9822,-1.0963,-1.3186,-1.2586,-1.4197,-1.7602,-1.7285,-1.7812,-1.9055,-1.9301,-1.9424,-1.9424,-1.9424,-1.9424,-1.9424,-1.9424,-1.9424,-1.9424,-1.9424,-1.9989,-2.0952,0.0,0.0,0.0,0.0,0.0,0.0,0.0,0.0,0.0,0.0,0.0,0.0,0.0,0.0,0.0448,0.1623,0.1736,0.2351,0.0,0.0,0.0,0.0,0.0,0.0,0.0,0.0,0.0,-0.2184,-0.2573,-0.3522,-0.5031,-0.6427,-0.7089,-0.7029,-0.8074,-0.9111,-1.0256,-1.1291,-1.2304,-1.3319,0.0,0.0,0.0,0.0,0.0,0.0,0.0,0.0,0.0,0.0,0.0,0.0,0.0,0.0,0.0,0.0,0.0,0.0,0.0,0.0,0.0,0.0,0.0,0.0,0.0,0.0,0.0,0.0,0.0,0.0,0.0,0.0,0.0,0.0,0.0,0.0,0.0,0.0,0.0,-0.8248,-0.9433,0.0,0.0,0.0,0.0,-1.0687,-1.0551,-1.0466,-1.046,-1.0331,-1.0188,-0.998,-0.9974,-0.9906,-0.9822,-0.9822,-1.0486,-1.1812,-1.3292,-1.4896,-1.6626,-1.8104,-1.9004,-1.9366,-1.9366,-1.9424,-1.9424,-1.9424,-1.9424,-1.9424,-1.9424,-1.9424,-1.9424,-1.9424,-1.9424,-1.9822,0.0,0.0,0.0,0.0,0.0,0.0,0.0,0.0,0.0,0.0,0.0,0.0,0.0,0.0714,0.1344,0.1735,0.2519,0.3525,0.4812,0.0,0.0,0.0,0.0,0.0,0.0,0.0,0.0951,-0.0224,-0.1288,-0.2574,-0.4083,-0.4585,-0.5592,-0.691,-0.7216,-0.7952,-0.905,-1.0675,-1.1919,-1.2975,-1.4287,-1.4859,0.0,0.0,0.0,0.0,0.0,0.0,0.0,0.0,0.0,0.0,0.0,0.0,0.0,0.0,0.0,0.0,0.0,0.0,0.0,0.0,0.0,0.0,0.0,0.0,0.0,0.0,0.0,0.0,0.0,0.0,0.0,0.0,0.0,0.0,0.0,0.0,0.0,-0.7933,-0.9312,0.0,-1.0616,-1.0687,-1.068,-1.0582,-1.0524,-1.0453,-1.0361,-1.031,-1.0256,-1.0202,-1.01,-0.996,-0.9906,-1.0658,-1.1687,-1.3006,-1.4376,-1.5978,-1.776,-1.8292,-1.8894,-1.9424,-1.9424,-1.9424,-1.9424,-1.9424,-1.9424,-1.9424,-1.9424,-1.9424,-1.9424,-1.9424,-1.9873,-2.078,0.0,0.0,0.0,0.0,0.0,0.0,0.0,0.0,0.0,0.0,0.0,-0.1547,-0.0269,0.1047,0.1959,0.2351,0.3525,0.4698,0.5929,0.0,0.0,0.0,0.0,0.0,0.0,0.291,0.1959,0.1008,-0.0224,-0.1457,-0.2519,-0.3245,-0.4364,-0.5723,-0.6399,-0.7067,-0.7775,-0.9805,-1.1268,-1.2355,-1.3955,-1.4576,-1.4606,0.0,0.0,0.0,0.0,0.0,0.0,0.0,0.0,0.0,0.0,0.0,0.0,0.0,0.0,0.0,0.0,0.0,0.0,0.0,0.0,0.0,0.0,0.0,0.0,0.0,0.0,0.0,0.0,0.0,0.0,0.0,0.0,0.0,0.0,0.0,-0.7392,-0.7294,-0.9016,-1.0317,-1.0616,-1.0643,-1.0622,-1.0571,-1.0568,-1.0527,-1.0432,-1.0429,-1.0405,-1.0351,-1.0253,-1.0175,-1.0127,-1.1314,-1.2595,-1.3938,-1.544,-1.707,-1.8701,-1.8938,-1.924,-1.9659,-1.9659,-1.9606,-1.9506,-1.9464,-1.9305,-1.9225,-1.9383,-1.9424,-1.9424,-1.9424,-2.0162,-2.146,0.0,0.0,0.0,0.0,0.0,0.0,0.0,0.0,0.0,0.0,-0.3048,-0.1608,-0.0546,0.0943,0.2295,0.3525,0.4754,0.5984,0.7154,0.8042,0.0,0.0,0.0,0.0,0.459,0.448,0.3415,0.1346,0.0449,-0.0112,-0.0449,-0.2519,-0.3408,-0.3405,-0.5624,-0.6502,-0.6534,-0.8665,-1.0194,-1.1365,-1.3414,-1.425,-1.428,0.0,0.0,0.0,0.0,0.0,0.0,0.0,0.0,0.0,0.0,0.0,0.0,0.0,0.0,0.0,0.0,0.0,0.0,0.0,0.0,0.0,0.0,0.0,0.0,0.0,0.0,0.0,0.0,0.0,0.0,0.0,0.0,0.0,-0.3519,-0.571,-0.7081,-0.6273,-0.8429,-1.0102,-1.0456,-1.0483,-1.0548,-1.0697,-1.0707,-1.0707,-1.0707,-1.0707,-1.0636,-1.049,-1.048,-1.0412,-1.0276,-1.17,-1.3072,-1.4327,-1.6366,-1.8037,-1.929,-1.9898,-2.0147,-2.0207,-2.0207,-2.0047,-1.9766,-1.9486,-1.9199,-1.8965,-1.9232,-1.9339,-1.9339,-1.9339,-2.0134,-2.1536,0.0,0.0,0.0,0.0,0.0,0.0,0.0,0.0,0.0,0.0,-0.3608,-0.2172,-0.0602,0.1497,0.2965,0.3525,0.5479,0.7096,0.8097,0.0,0.0,0.0,0.0,0.0,0.5817,0.4306,0.3189,0.2629,0.1289,0.028,-0.0393,-0.1009,-0.1981,-0.3352,-0.3934,-0.505,-0.6484,-0.806,-0.9784,-1.1609,-1.2684,0.0,-1.3522,0.0,0.0,0.0,0.0,0.0,0.0,0.0,0.0,0.0,0.0,0.0,0.0,0.0,0.0,0.0,0.0,0.0,0.0,0.0,0.0,0.0,0.0,0.0,0.0,0.0,0.0,0.0,0.0,0.0,0.0,0.0,0.0,-0.284,-0.3653,-0.5239,-0.6249,-0.612,-0.8438,-1.0061,-1.0321,-1.0337,-1.0354,-1.0399,-1.0402,-1.0402,-1.0402,-1.0402,-1.0382,-1.0341,-1.0229,-1.0088,-1.0051,-1.2266,-1.3532,-1.3895,-1.6552,-1.8111,-1.8644,-1.9057,-1.9416,-1.9606,-1.9606,-1.9559,-1.9479,-1.9457,-1.9377,-1.9212,-1.8865,-1.8731,-1.8731,-1.8731,-1.998,-2.1931,0.0,0.0,0.0,0.0,0.0,0.0,0.0,0.0,0.0,0.0,-0.4677,-0.3226,-0.171,0.0668,0.2517,0.33,0.5382,0.7125,0.8282,0.0,0.0,0.0,0.0,0.6429,0.5929,0.4697,0.3804,0.3302,0.2073,0.1177,0.0672,-0.0056,-0.0991,-0.2128,-0.2925,-0.4065,-0.5479,-0.7068,-0.8654,-1.0194,0.0,0.0,-1.327,-1.3323,-1.3619,-1.3823,-1.2834,-1.2798,-1.3098,-1.2182,0.0,0.0,0.0,0.0,0.0,0.0,0.0,0.0,0.0,0.0,0.0,0.0,0.0,0.0,0.0,0.0,0.0,0.0,0.0,0.0,0.0,0.0,0.0,0.0,-0.1977,-0.2284,-0.302,-0.4735,-0.5916,-0.6031,-0.8335,-1.0015,-1.0168,-1.0185,-1.0212,-1.0276,-1.028,-1.028,-1.028,-1.028,-1.028,-1.028,-1.0195,-1.0144,-1.0144,-1.2702,-1.3925,-1.3986,-1.708,-1.8658,-1.8771,-1.9239,-1.9542,-1.9733,-1.9733,-1.9659,-1.9539,-1.9477,-1.9292,0.0,0.0,0.0,0.0,0.0,-2.1055,-2.2773,0.0,0.0,0.0,0.0,0.0,0.0,0.0,0.0,0.0,0.0,0.0,-0.4561,-0.3238,-0.0839,0.1286,0.2853,0.4781,0.6578,0.0,0.0,0.0,0.8644,0.7817,0.6818,0.5759,0.5648,0.5091,0.3976,0.3024,0.252,0.2351,0.0672,-0.0165,-0.0319,-0.2234,-0.3387,-0.3974,-0.5927,-0.7332,-0.8283,0.0,0.0,-1.3125,-1.2316,-1.2554,-1.3125,-1.1853,-1.2126,-1.289,-1.1639,0.0,0.0,0.0,0.0,0.0,0.0,0.0,0.0,0.0,0.0,0.0,0.0,0.0,0.0,0.0,0.0,0.0,0.0,0.0,0.0,0.0,0.0,0.0,0.0,-0.1977,-0.1977,-0.1977,-0.4123,-0.5712,-0.5896,-0.8102,-0.969,-0.9947,-0.996,-1.008,-1.0219,-1.0229,-1.0229,-1.0229,0.0,0.0,0.0,0.0,-1.0229,-1.0229,-1.2912,-1.4218,-1.428,-1.7611,-1.922,-1.922,-1.9832,-2.0134,-2.0134,-2.0134,-1.9987,-1.9733,-1.9472,-1.9192,-1.8918,-1.8885,-1.8908,-1.9227,-2.1109,-2.2523,-2.3625,0.0,0.0,0.0,0.0,0.0,0.0,0.0,0.0,0.0,-0.94,-0.791,-0.6008,-0.3409,-0.1787,0.0,0.2182,0.4561,0.6848,0.0,0.0,0.8989,0.9523,0.8692,0.814,0.7916,0.7141,0.6642,0.642,0.531,0.4418,0.3632,0.2294,0.132,0.0586,-0.0958,-0.2137,-0.3165,-0.552,-0.7564,0.0,0.0,0.0,-1.1385,-1.1829,-1.197,-1.1804,-1.073,-1.0314,-1.0197,-0.9065,-0.8834,-0.9002,-0.8898,0.0,0.0,0.0,0.0,0.0,0.0,0.0,0.0,0.0,0.0,0.0,0.0,0.0,0.0,0.0,0.0,0.0,0.0,0.0,0.0,-0.1977,-0.1977,-0.1977,-0.1977,-0.3326,-0.4671,-0.5774,-0.7304,-0.8665,-0.9741,-0.9866,-0.9876,-0.9907,-0.991,-0.991,-0.991,-0.991,-0.991,-0.991,-0.991,-0.991,-0.991,-1.2513,-1.3843,-1.3843,0.0,0.0,-1.858,-1.924,-1.9533,-1.9533,-1.9533,-1.9506,-1.9446,-1.945,-1.9192,-1.8905,-1.8664,-1.8961,-1.9686,-2.0939,-2.1947,-2.2902,0.0,0.0,0.0,0.0,0.0,0.0,0.0,0.0,0.0,0.0,-0.9378,-0.7368,-0.4742,-0.3175,-0.1144,0.1691,0.4482,0.0,0.0,0.7906,0.7624,0.7581,0.7756,0.77,0.7421,0.7476,0.7418,0.7083,0.598,0.5479,0.5524,0.3243,0.2309,0.239,0.0479,-0.1147,-0.2514,-0.427,-0.6318,0.0,0.0,0.0,-0.9665,-1.0507,-1.1037,-1.1219,-1.0006,-0.9858,-0.9998,-0.8825,-0.8539,-0.8702,-0.8703,-0.8855,-0.8811,0.0,0.0,0.0,0.0,0.0,0.0,0.0,0.0,0.0,0.0,0.0,0.0,0.0,0.0,-0.1977,0.0,0.0,-0.1977,-0.1977,-0.1977,-0.1977,-0.1977,-0.2529,-0.3694,-0.5651,-0.706,-0.841,-0.9697,-0.9822,-0.9852,-0.9869,-0.9872,-0.9968,-1.0046,-0.9978,-0.9872,-0.9872,-0.9863,-1.0122,-1.0725,-1.2706,-1.4078,-1.4906,-1.7285,-1.8473,-1.8648,-1.9185,-1.9424,-1.9424,-1.9424,-1.9424,-1.9424,-1.9424,-1.9279,-1.9132,-1.8985,-1.968,-2.0956,-2.2079,-2.2962,-2.3749,0.0,0.0,0.0,0.0,0.0,0.0,0.0,0.0,0.0,0.0,0.0,-0.8823,-0.6683,-0.4826,-0.2227,0.0,0.0,0.0,0.0,0.6381,0.5946,0.5646,0.6705,0.7149,0.6927,0.7531,0.7695,0.7473,0.6091,0.5868,0.6697,0.3802,0.2968,0.3716,0.1488,-0.0365,-0.1912,-0.3217,0.0,0.0,0.0,0.0,-0.8233,-0.8882,-0.9661,-1.0186,-0.9122,-0.9266,-0.9797,-0.8718,-0.8485,-0.8593,-0.8494,-0.8591,-0.8537,-0.7337,-0.6948,0.0,0.0,0.0,0.0,0.0,0.0,0.0,0.0,0.0,-0.2344,-0.2337,-0.2336,-0.2333,-0.2327,-0.2208,-0.2152,-0.2152,-0.2096,-0.1977,-0.1977,-0.1977,-0.296,-0.5592,-0.6877,-0.8102,-0.9636,-0.9846,-0.9856,-0.9977,-1.0014,-1.0148,-1.0273,-1.0134,-0.9987,-0.9987,-0.99,-1.0425,-1.1692,-1.3006,-1.449,-1.6026,-1.7636,-1.859,-1.8939,-1.9243,-1.9424,-1.9424,-1.9424,-1.9424,-1.9424,-1.9424,-1.9424,-1.9424,-1.9655,-2.0739,-2.2209,-2.312,-2.4044,-2.4895,0.0,0.0,0.0,0.0,0.0,0.0,0.0,0.0,0.0,0.0,0.0,0.0,0.0,0.0,0.0,0.0,0.0,0.0,0.6155,0.5354,0.5289,0.6478,0.7193,0.8026,0.903,0.7861,0.7695,0.8699,0.648,0.5483,0.5536,0.4143,0.3303,0.3035,0.1595,0.0104,-0.1408,-0.3466,0.0,0.0,0.0,0.0,-0.7338,-0.7437,-0.7381,-0.7276,-0.7129,-0.698,-0.6883,-0.6734,-0.6768,-0.6898,-0.7025,-0.7093,-0.694,-0.591,0.0,-0.4508,-0.3209,-0.291,-0.3129,-0.3658,-0.3738,-0.3696,0.0,0.0,-0.3684,-0.3633,-0.3623,-0.3609,-0.3502,-0.3054,-0.272,-0.272,-0.2325,-0.1977,-0.1977,-0.1977,-0.296,-0.5592,-0.6018,-0.7121,-0.9576,-0.9883,-0.9967,-0.9984,-1.0178,-1.0263,-1.028,-1.0134,-0.9987,-0.9987,-0.99,-1.0425,-1.1692,-1.3006,-1.449,-1.6026,-1.7636,-1.859,-1.8939,-1.9243,-1.9424,-1.9424,-1.9424,-1.9424,-1.9424,-1.9424,-1.9424,-1.954,-2.0558,-2.1749,-2.2879,-2.26,-2.3736,-2.5307,0.0,0.0,0.0,0.0,0.0,0.0,0.0,0.0,0.0,0.0,0.0,0.0,0.0,0.0,0.0,0.0,0.0,0.0,0.3502,0.2852,0.2908,0.4024,0.5023,0.5971,0.7033,0.7085,0.7362,0.7864,0.6202,0.5759,0.6308,0.3653,0.2667,0.3027,0.0788,-0.1185,-0.2913,-0.3967,0.0,0.0,0.0,0.0,-0.7188,-0.7188,-0.6534,-0.5782,-0.6684,-0.6986,0.0,0.0,-0.702,-0.7145,-0.7045,-0.7141,-0.7084,-0.5748,-0.5204,0.0,-0.3953,-0.3781,-0.4008,-0.4618,-0.4542,-0.4344,-0.4373,-0.4082,-0.3774,-0.375,-0.3745,-0.3738,-0.3714,-0.3221,-0.2772,0.0,-0.2322,-0.1977,-0.1977,-0.1977,-0.296,-0.5592,-0.5943,-0.7031,-0.9643,-0.995,-1.0058,-1.0293,-1.0368,-1.0443,-1.0531,-1.031,-1.0185,-1.0185,-0.9947,-1.0785,-1.2826,-1.3596,-1.5079,-1.7402,-1.8292,-1.8881,-1.9185,-1.9366,-1.9424,-1.9424,-1.9424,-1.9424,-1.9424,-1.9424,-1.9424,-1.9424,-1.9931,-2.1345,-2.3071,-2.3587,-2.4624,-2.5764,0.0,0.0,0.0,0.0,0.0,0.0,0.0,0.0,0.0,0.0,0.0,0.0,0.0,0.0,0.0,0.0,0.0,0.0,0.0,0.0876,0.0948,0.1792,0.2685,0.0,0.4977,0.5472,0.6026,0.6642,0.5481,0.5087,0.5409,0.2481,0.13,0.1534,-0.0784,-0.2822,-0.4464,-0.4666,0.0,0.0,0.0,0.0,-0.6839,-0.6637,-0.5834,-0.4935,-0.5784,-0.6082,0.0,0.0,-0.6051,-0.5996,-0.6136,-0.6108,-0.5862,-0.5144,-0.5035,-0.5037,-0.4592,-0.4519,-0.4738,-0.5331,-0.5211,-0.4915,-0.4936,-0.4589,-0.4232,-0.4214,-0.421,-0.4205,-0.4187,-0.365,-0.3276,-0.329,-0.2853,-0.2457,-0.2283,-0.2285,-0.321,-0.5686,-0.6056,-0.7185,-0.9847,-1.0171,-1.0259,-1.0477,-1.0531,-1.0602,-1.0714,-1.0477,-1.0321,-1.0283,-1.0022,-1.1069,-1.3665,-1.3949,-1.5548,-1.8421,-1.8765,-1.9062,-1.9424,-1.9424,-1.9424,-1.9424,-1.9424,-1.9424,-1.9424,-1.9424,-1.9424,-1.9424,-1.9424,-2.0666,-2.2644,-2.388,-2.5101,-2.6186,0.0,0.0,0.0,0.0,0.0,0.0,0.0,0.0,0.0,0.0,0.0,0.0,0.0,0.0,0.0,0.0,0.0,0.0,0.0,0.0108,0.0055,0.0896,0.0953,0.1959,0.4021,0.2909,0.3357,0.5427,0.4257,0.2912,0.1455,0.0502,-0.0766,-0.2276,-0.3275,-0.44,-0.5563,-0.5563,0.0,0.0,0.0,0.0,-0.5942,-0.5188,-0.4834,-0.4684,-0.3676,0.0,0.0,0.0,-0.2775,-0.2078,-0.3143,-0.2813,0.0,-0.33,-0.4086,-0.4536,-0.448,-0.4482,-0.4669,-0.5315,-0.551,-0.5477,-0.5564,-0.5584,-0.5502,-0.5473,-0.5455,-0.5431,-0.5348,-0.4834,-0.4508,-0.464,-0.4117,-0.3574,-0.3017,-0.2961,-0.3717,-0.5831,-0.6093,-0.7241,0.0,-1.0477,-1.0483,-1.049,-1.0629,-1.0714,-1.0721,-1.0571,-1.0422,-1.0283,-1.0127,-1.1191,-1.3665,-1.3949,-1.5548,-1.8421,-1.8765,-1.9062,-1.9424,-1.9424,-1.9424,-1.9424,-1.9424,-1.9424,-1.9424,-1.9424,-1.9424,-1.9424,-1.9424,-2.0162,-2.1402,-2.258,-2.4548,-2.6564,0.0,0.0,0.0,0.0,0.0,0.0,0.0,0.0,0.0,0.0,0.0,0.0,0.0,0.0,0.0,0.0,0.0,0.0,0.0,-0.1596,-0.0947,0.0,0.0056,0.0616,0.1903,0.1569,0.1961,0.3301,0.1903,0.095,0.0391,-0.1818,-0.3407,-0.4436,-0.5692,-0.672,-0.7471,-0.7471,0.0,0.0,0.0,0.0,-0.6789,-0.6487,-0.5281,-0.3575,0.0,0.0,0.0,0.0,-0.199,-0.1759,-0.217,-0.2043,-0.2015,-0.3245,-0.3748,-0.4086,-0.4873,-0.5098,-0.5162,-0.536,-0.5424,-0.5433,-0.5463,-0.5469,-0.5461,-0.5431,-0.5424,-0.5414,-0.5388,-0.4885,-0.4561,-0.4695,-0.4172,-0.3753,-0.3629,-0.3268,-0.3966,-0.6462,-0.6467,0.0,0.0,0.0,0.0,-1.0636,-1.069,-1.0721,-1.0721,-1.0575,-1.0426,-1.0287,-1.0319,-1.1498,-1.3949,-1.4485,-1.609,-1.8765,-1.9062,-1.9301,-1.9424,-1.9424,-1.9424,-1.9424,-1.9424,-1.9424,-1.9424,-1.9424,-1.9424,-1.9424,-1.9424,-2.0162,-2.1231,-2.1687,-2.3311,-2.5514,0.0,0.0,0.0,0.0,0.0,0.0,0.0,0.0,0.0,0.0,0.0,0.0,0.0,0.0,0.0,0.0,0.0,0.0,0.0,0.0,-0.1949,-0.0953,-0.0561,0.0,0.0897,0.1177,0.1625,0.2184,0.0727,-0.0447,-0.1337,-0.445,-0.6439,-0.739,-0.8936,-0.9809,0.0,0.0,0.0,0.0,0.0,0.0,-0.7138,-0.6537,-0.5281,0.0,0.0,0.0,0.0,0.0,-0.079,-0.0534,-0.0984,-0.1443,-0.1959,-0.2742,-0.3582,-0.4423,-0.5212,-0.5382,-0.5382,-0.5382,-0.5382,-0.5493,-0.577,-0.5882,-0.5938,-0.6267,-0.6102,-0.5882,-0.5882,-0.5312,-0.4874,-0.4982,-0.4685,-0.4391,-0.43,-0.3963,-0.4681,-0.7079,-0.6997,-0.7811,0.0,0.0,0.0,-1.0714,-1.0721,-1.0721,-1.0721,-1.0626,-1.0548,-1.0477,-1.0559,-1.1807,-1.4242,-1.4847,-1.645,-1.9062,-1.9307,-1.9424,-1.9424,-1.9424,-1.9424,-1.9424,-1.9424,-1.9424,-1.9424,-1.9424,-1.9424,-1.9424,-1.9424,-1.988,-2.0666,-2.1517,-2.2805,-2.4334,0.0,0.0,0.0,0.0,0.0,0.0,0.0,0.0,0.0,0.0,0.0,0.0,0.0,0.0,0.0,0.0,0.0,0.0,0.0,0.0,0.0,-0.2017,-0.1065,-0.0168,0.0673,0.1569,0.2016,0.2072,0.0502,-0.1449,-0.3739,-0.7246,-0.958,-1.0903,-1.2642,-1.3292,0.0,0.0,0.0,0.0,0.0,0.0,-0.7036,-0.5484,0.0,0.0,0.0,0.0,0.0,0.0,0.0,0.1504,0.0333,-0.0784,-0.1735,-0.1847,-0.3527,-0.5326,-0.5382,-0.5382,-0.5437,-0.5437,-0.5493,-0.5714,-0.6548,-0.6768,-0.6988,-0.7811,-0.7318,-0.6768,0.0,0.0,-0.5493,-0.5666,-0.5637,-0.5461,-0.5082,-0.511,-0.5881,0.0,0.0,0.0,0.0,0.0,0.0,-1.0787,0.0,-1.0721,-1.0787,-1.0721,-1.0785,-1.081,-1.0855,-1.2055,-1.4624,-1.509,-1.6691,-1.9424,-1.9424,-1.9424,-1.9424,-1.9424,-1.9424,-1.9424,-1.9424,-1.9424,-1.9424,-1.9424,-1.9424,-1.9424,-1.9424,-1.9424,-1.9707,-2.2021,-2.2974,-2.3143,0.0,0.0,0.0,0.0,0.0,0.0,0.0,0.0,0.0,0.0,0.0,0.0,0.0,0.0,0.0,0.0,0.0,0.0,0.0,0.0,0.0,0.0,0.0,0.0,0.0,0.0,0.0,0.0,0.0,-0.3959,-0.4672,-0.8425,-1.0669,0.0,-1.2628,-1.3,0.0,0.0,0.0,0.0,0.0,-0.8528,-0.7138,0.0,0.0,0.0,0.0,0.0,0.0,0.0,0.0,0.0,0.0391,-0.0224,-0.0784,-0.2629,-0.358,-0.4254,-0.5156,-0.5382,-0.5549,-0.6216,-0.6381,-0.6601,-0.7482,-0.7645,-0.7756,-0.7974,-0.7811,-0.7645,0.0,0.0,0.0,-0.6493,-0.5943,0.0,-0.6504,-0.6372,0.0,-0.9402,0.0,-0.9751,-1.1497,-1.1648,0.0,0.0,-1.1251,-1.1181,-1.1516,-1.1251,-1.1158,-1.1414,-1.1483,-1.2674,-1.5088,-1.7256,-1.8648,-1.9424,-1.9424,-1.9424,-1.9424,-1.9424,-1.9424,-1.9424,-1.9424,-1.9424,-1.9424,-1.9424,-1.9424,-1.9424,-1.9424,-1.9424,-1.9597,-2.1117,-2.2248,-2.3143,0.0,0.0,0.0,0.0,0.0,0.0,0.0,0.0,0.0,0.0,0.0,0.0,0.0,0.0,0.0,0.0,0.0,0.0,0.0,0.0,0.0,0.0,0.0,0.0,0.0,0.0,0.0,0.0,0.0,0.0,0.0,-1.0629,-1.2699,-1.3577,-1.4309,-1.457,0.0,0.0,0.0,0.0,0.0,0.0,0.0,0.0,0.0,0.0,0.0,0.0,0.0,0.0,0.0,0.0112,-0.056,-0.1176,-0.1847,-0.3189,0.0,-0.4648,-0.5656,-0.5993,-0.6158,-0.7041,-0.7263,-0.7482,-0.842,-0.8637,-0.8696,-0.9082,-0.8861,0.0,-0.8637,-0.787,0.0,0.0,0.0,0.0,-0.7584,-0.7574,-0.8175,0.0,-1.0156,0.0,-1.1894,-1.2045,-1.2045,0.0,-1.1648,-1.1582,-1.178,-1.1582,-1.1571,-1.1793,-1.1757,-1.2972,-1.5398,-1.8068,-1.9424,-1.9424,-1.9424,-1.9424,-1.9424,-1.9424,-1.9424,-1.9424,0.0,-1.9424,-1.9424,-1.9424,-1.9424,-1.9424,-1.9424,-1.9424,-1.9597,-2.1345,-2.2418,-2.3263,0.0,0.0,0.0,0.0,0.0,0.0,0.0,0.0,0.0,0.0,0.0,0.0,0.0,0.0,0.0,0.0,0.0,0.0,0.0,0.0,0.0,0.0,0.0,0.0,0.0,0.0,0.0,0.0,0.0,0.0,0.0,0.0,0.0,0.0,0.0,0.0,0.0,0.0,0.0,0.0,0.0,0.0,0.0,0.0,0.0,0.0,0.0,0.0,0.0,0.0,-0.2013,-0.1847,-0.2015,-0.2853,-0.3804,-0.3804,-0.4758,-0.588,-0.6548,-0.6768,-0.7099,-0.7977,-0.8195,-0.8416,-0.9361,-0.9581,-0.9805,-1.0523,0.0,-0.9581,-0.9581,-0.8806,-0.8236,-0.8357,0.0,-0.8256,-0.8451,-0.87,-0.9352,-1.0634,-1.0749,-1.1135,-1.2293,-1.2375,-1.2375,-1.2375,-1.2111,-1.1912,-1.1912,-1.1912,-1.1891,-1.2017,-1.2226,-1.3388,-1.5575,-1.8123,-1.9424,-1.9424,-1.9424,-1.9424,-1.9424,-1.9424,-1.9424,-1.9424,-1.9424,-1.9424,-1.9424,-1.9424,-1.9424,-1.9424,-1.9424,-1.9424,-1.9649,-2.1907,-2.2862,-2.3311,0.0,0.0,0.0,0.0,0.0,0.0,0.0,0.0,0.0,0.0,-2.7428,-2.5578,0.0,0.0,0.0,0.0,0.0,0.0,0.0,0.0,0.0,0.0,0.0,0.0,0.0,0.0,0.0,0.0,0.0,0.0,0.0,0.0,0.0,0.0,0.0,0.0,0.0,0.0,0.0,0.0,0.0,0.0,0.0,0.0,0.0,0.0,0.0,0.0,0.0,0.0,-0.3319,-0.1959,-0.2965,-0.3913,-0.4747,-0.4983,-0.6262,-0.7426,-0.6879,-0.7207,-0.7977,-0.8916,-0.9137,-0.9361,-1.0249,-1.0468,0.0,0.0,-1.0582,-1.0468,-1.0468,-0.9746,-0.9147,-0.9175,-0.8566,-0.8339,-0.9277,-0.9676,-1.0395,0.0,-1.2024,0.0,-1.2688,-1.2704,0.0,0.0,-1.2638,-1.2638,-1.2638,-1.2375,-1.223,-1.2234,-1.4137,-1.5301,-1.5575,-1.8123,-1.9424,-1.9424,-1.9424,-1.9424,-1.9424,-1.9424,-1.9424,-1.9424,-1.9424,0.0,-1.9424,-1.9424,-1.9424,-1.9424,-1.9424,-1.9424,-1.9591,-2.1002,-2.2135,-2.3159,0.0,0.0,0.0,0.0,0.0,0.0,0.0,-3.2537,-3.09,-2.9824,-2.8056,-2.6621,-2.5884,-2.3931,0.0,0.0,0.0,0.0,0.0,0.0,0.0,0.0,0.0,0.0,0.0,0.0,0.0,0.0,0.0,0.0,0.0,0.0,0.0,0.0,0.0,0.0,0.0,0.0,0.0,0.0,0.0,0.0,0.0,0.0,0.0,0.0,0.0,0.0,0.0,0.0,-0.5723,-0.486,-0.4632,-0.5421,-0.6473,-0.6156,-0.6985,-0.8033,-0.8091,-0.8423,-0.8972,-0.986,-1.0084,-1.0194,-1.0578,0.0,0.0,0.0,-1.0692,-1.0692,-1.0692,-1.0359,0.0,-1.0084,-0.9691,-0.961,-1.008,-1.0494,0.0,0.0,0.0,0.0,0.0,0.0,-1.277,-1.277,-1.277,-1.277,-1.277,-1.255,-1.2383,-1.2316,-1.39,-1.5083,-1.5575,-1.7461,-1.8765,-1.9424,-1.9424,-1.9424,-1.9424,-1.9424,-1.9424,-1.9424,-1.9424,0.0,-1.9424,-1.9424,-1.9424,-1.9424,-1.9424,-1.9424,-1.9519,-2.0537,-2.1313,-2.1933,0.0,0.0,0.0,0.0,0.0,0.0,0.0,-3.3039,-3.1484,-3.0009,-2.8858,-2.7865,-2.7056,-2.5279,-2.3573,0.0,0.0,0.0,0.0,0.0,0.0,0.0,0.0,0.0,0.0,0.0,0.0,0.0,0.0,0.0,0.0,0.0,0.0,0.0,0.0,0.0,0.0,0.0,0.0,0.0,0.0,0.0,0.0,0.0,0.0,0.0,0.0,0.0,0.0,0.0,-0.7787,-0.7819,-0.6368,-0.7019,-0.814,-0.7263,-0.7759,-0.8696,-0.9251,-0.9526,-0.986,-1.0527,-1.0692,-1.0692,-1.0692,-1.0692,0.0,-1.0692,-1.0692,-1.0692,-1.0692,-1.0692,-1.0692,0.0,-1.0692,-1.0692,0.0,0.0,0.0,0.0,0.0,0.0,0.0,0.0,0.0,-1.277,-1.277,-1.282,-1.2779,-1.2609,-1.243,-1.2251,-1.3291,-1.4439,-1.5575,-1.6868,-1.8169,-1.9424,-1.9424,-1.9424,-1.9424,-1.9424,-1.9424,-1.9424,-1.9424,0.0,0.0,-1.9424,-1.9424,-1.9417,-1.9299,-1.9272,-1.9347,-1.9991,-2.0366,-2.0704,0.0,0.0,0.0,0.0,0.0,0.0,0.0,-3.4299,-3.2917,-3.1571,-3.0379,-2.9284,-2.828,-2.6184,-2.4175,0.0,0.0,0.0,0.0,0.0,0.0,0.0,0.0,0.0,0.0,0.0,0.0,0.0,0.0,0.0,0.0,0.0,0.0,0.0,0.0,0.0,0.0,0.0,0.0,0.0,0.0,0.0,0.0,0.0,0.0,0.0,0.0,0.0,0.0,0.0,0.0,-0.8737,-0.7869,-0.8375,-0.9085,-0.8143,0.0,0.0,-0.9581,-0.997,-1.0582,-1.0692,-1.0692,-1.0692,-1.0692,0.0,-1.0692,-1.0692,-1.0692,-1.0692,-1.0692,-1.0692,-1.0692,-1.0692,0.0,-1.0692,0.0,0.0,0.0,0.0,0.0,0.0,0.0,0.0,0.0,-1.277,-1.277,-1.2763,-1.2596,-1.2426,-1.2243,-1.1999,-1.3146,-1.4341,-1.5569,-1.6868,-1.8169,-1.9424,-1.9424,-1.9424,-1.9424,-1.9424,-1.9424,-1.9424,-1.9424,0.0,0.0,-1.9424,-1.9424,-1.9339,-1.9072,-1.8965,-1.8931,-1.8742,-1.9395,-2.0317,0.0,0.0,0.0,0.0,0.0,0.0,-3.562,-3.3883,-3.2314,-3.1677,-3.0037,-2.8751,-2.8344,-2.7482,-2.5922,0.0,0.0,0.0,0.0,0.0,0.0,0.0,0.0,0.0,0.0,0.0,0.0,-1.1714,-1.3599,0.0,0.0,0.0,0.0,0.0,0.0,0.0,0.0,0.0,0.0,0.0,0.0,0.0,0.0,0.0,0.0,0.0,0.0,0.0,0.0,0.0,0.0,0.0,-0.9378,-0.9665,0.0,0.0,-0.975,-1.0637,-1.0304,-1.0414,-1.0852,-1.1555,-1.1232,-1.1067,-1.2413,0.0,-1.1714,-1.1714,-1.1714,-1.15,-1.0852,-1.0692,-1.0692,0.0,0.0,0.0,0.0,0.0,0.0,0.0,0.0,0.0,0.0,0.0,-1.2791,-1.2682,-1.2674,-1.2548,-1.2259,-1.2284,-1.2223,-1.2036,-1.234,-1.3555,-1.5575,-1.6101,-1.7402,-1.9424,-1.9424,-1.9424,-1.9424,-1.9424,-1.9424,-1.9424,-1.9424,0.0,0.0,-1.9172,-1.9098,-1.9072,-1.8778,-1.8664,-1.8624,-1.833,-1.8489,-1.8869,0.0,0.0,0.0,0.0,0.0,-3.6003,-3.5668,-3.3834,-3.2314,-3.1677,-2.9932,-2.8654,-2.8344,-2.7906,-2.6561,-2.3913,0.0,0.0,0.0,0.0,0.0,0.0,0.0,0.0,0.0,0.0,-1.3648,-1.2512,-1.4767,-1.5872,0.0,0.0,0.0,0.0,0.0,0.0,0.0,0.0,0.0,0.0,0.0,0.0,0.0,0.0,0.0,0.0,0.0,0.0,0.0,0.0,0.0,0.0,0.0,0.0,0.0,0.0,-1.0245,-1.0747,-1.1122,-1.1177,-1.15,-1.263,-1.2309,-1.2146,0.0,0.0,-1.2792,-1.2467,-1.2417,-1.2037,-1.0907,-1.0692,-1.0692,0.0,0.0,-1.0692,0.0,0.0,0.0,0.0,0.0,-1.2398,0.0,-1.2714,-1.2702,-1.2641,-1.2515,-1.2353,-1.2048,-1.2154,-1.2142,-1.1959,-1.1841,-1.2844,-1.5035,-1.5391,-1.6697,-1.8829,-1.9249,-1.9424,-1.9424,-1.9424,-1.9424,-1.9366,-1.9279,0.0,0.0,-1.8918,-1.8798,-1.8764,-1.847,-1.8364,-1.8323,-1.8023,-1.7856,-1.7822,0.0,0.0,0.0,0.0,0.0,0.0,-3.5668,-3.4702,-3.3388,-3.183,-3.0598,-2.946,-2.8398,-2.7025,-2.5626,-2.4386,0.0,0.0,0.0,0.0,0.0,0.0,0.0,0.0,0.0,0.0,-1.3996,-1.2678,-1.4851,-1.5722,-1.5411,-1.662,-1.6891,-1.6279,0.0,0.0,0.0,0.0,0.0,0.0,0.0,0.0,0.0,0.0,0.0,0.0,0.0,0.0,0.0,0.0,0.0,0.0,0.0,0.0,0.0,0.0,-1.0692,-1.0962,-1.2096,-1.2363,-1.2684,-1.3814,-1.4078,-1.4078,0.0,-1.4078,-1.376,-1.263,-1.2417,-1.2037,-1.0907,-1.0692,-1.0692,-1.0692,0.0,0.0,0.0,0.0,0.0,0.0,0.0,-1.2446,-1.28,-1.267,-1.2628,-1.2628,-1.2406,0.0,-1.204,-1.197,-1.1955,-1.1784,-1.1776,-1.2427,-1.3725,-1.4976,-1.622,-1.7513,-1.8829,-1.9424,-1.9424,-1.9424,-1.9424,-1.9352,0.0,0.0,0.0,-1.8617,-1.8497,-1.8464,-1.8115,-1.7995,-1.7962,-1.7702,-1.7589,-1.7589,0.0,0.0,0.0,0.0,0.0,0.0,0.0,-3.403,-3.2555,-3.1728,-2.9984,-2.8698,-2.8344,-2.7906,-2.6735,-2.4505,0.0,0.0,0.0,0.0,0.0,0.0,0.0,0.0,0.0,0.0,-1.5412,-1.4184,-1.5439,-1.6322,-1.6898,-1.6874,-1.664,-1.6315,-1.6059,0.0,0.0,0.0,0.0,0.0,0.0,0.0,0.0,0.0,0.0,0.0,0.0,0.0,0.0,0.0,0.0,0.0,0.0,0.0,0.0,0.0,0.0,0.0,-1.3058,-1.3009,-1.2847,-1.4835,-1.4728,-1.4508,-1.6127,-1.5908,-1.5215,-1.4888,-1.4137,-1.3221,-1.2096,-1.1232,-1.0692,-1.0692,-1.0692,0.0,0.0,0.0,0.0,-1.1212,-1.165,-1.2085,0.0,0.0,-1.2337,-1.2211,-1.215,-1.204,-1.1866,-1.1857,-1.1833,-1.178,-1.2664,-1.3729,-1.4976,-1.6273,-1.7519,-1.8829,-1.9185,-1.9424,-1.9417,-1.9158,-1.9065,0.0,0.0,0.0,0.0,-1.831,-1.8135,-1.8102,-1.7849,-1.7729,-1.7716,-1.7615,-1.7582,-1.7582,0.0,0.0,0.0,0.0,0.0,0.0,0.0,-3.2945,-3.1512,-3.0823,-2.9174,-2.8115,-2.8271,-2.7511,-2.6282,-2.4616,0.0,0.0,0.0,0.0,0.0,0.0,0.0,0.0,0.0,-1.692,-1.6871,-1.5671,-1.6447,-1.7111,-1.7569,-1.7094,-1.6714,-1.6426,-1.6126,0.0,0.0,0.0,0.0,0.0,0.0,0.0,-1.5689,0.0,0.0,0.0,0.0,0.0,0.0,0.0,0.0,0.0,0.0,0.0,0.0,0.0,-1.337,-1.2413,0.0,-1.4245,-1.4191,-1.6074,-1.5968,0.0,-1.7259,-1.7041,-1.6287,-1.5375,-1.4615,-1.3599,-1.2037,-1.1177,-1.0692,-1.0692,-1.0692,0.0,0.0,0.0,0.0,-1.1155,0.0,0.0,0.0,-1.2203,-1.2154,-1.2036,-1.1971,-1.189,-1.1784,-1.1776,-1.1776,-1.1776,-1.2548,-1.361,-1.4857,-1.6155,-1.7402,-1.8706,-1.9014,-1.9199,-1.9192,-1.8891,-1.8764,0.0,0.0,0.0,0.0,-1.7996,-1.7869,-1.7856,-1.7655,-1.7582,-1.7582,-1.7582,-1.7582,-1.7582,0.0,0.0,0.0,0.0,0.0,0.0,0.0,0.0,-3.0519,-2.9399,-2.8314,-2.7764,-2.8164,-2.6164,-2.4739,-2.4684,0.0,0.0,0.0,0.0,0.0,0.0,0.0,0.0,-1.7513,-1.8327,-1.8185,-1.6993,-1.7614,-1.7795,-1.7575,-1.734,-1.7038,-1.6693,-1.6426,-1.6342,0.0,0.0,0.0,0.0,0.0,0.0,0.0,0.0,0.0,0.0,0.0,0.0,0.0,0.0,0.0,0.0,0.0,0.0,0.0,0.0,0.0,0.0,0.0,-1.6021,-1.6234,0.0,0.0,0.0,-1.7635,-1.7635,0.0,-1.4781,-1.4245,-1.3437,-1.1337,-1.0802,-1.0692,-1.0692,-1.0692,-1.0692,0.0,-1.0894,0.0,0.0,-1.1752,0.0,-1.1987,-1.1991,-1.2,-1.2012,-1.1866,-1.1776,-1.1776,-1.1776,-1.1837,-1.1837,-1.1824,-1.2475,-1.3844,-1.5079,-1.6368,-1.76,-1.8447,-1.8891,-1.8885,-1.8591,-1.8457,0.0,0.0,0.0,0.0,-1.7702,-1.7582,-1.7582,-1.7582,-1.7582,-1.7582,-1.7582,-1.7582,-1.7582,0.0,0.0,0.0,0.0,0.0,0.0,0.0,0.0,0.0,0.0,-2.7945,-2.7207,-2.7305,-2.6309,-2.5245,0.0,0.0,0.0,0.0,0.0,0.0,0.0,0.0,0.0,-1.7513,-1.775,-1.7557,-1.6993,-1.6961,-1.7159,-1.7575,-1.734,-1.7038,-1.67,-1.6633,-1.6635,0.0,0.0,0.0,0.0,0.0,0.0,0.0,0.0,0.0,0.0,-1.5153,-1.5201,0.0,0.0,0.0,0.0,0.0,0.0,0.0,0.0,-1.7088,-1.7206,-1.7681,0.0,-1.6505,-1.7891,-1.8213,-1.816,0.0,-1.7911,-1.7694,-1.6935,-1.537,-1.3922,-1.3383,-1.1878,-1.0692,-1.0692,-1.0692,-1.0857,-1.1295,0.0,0.0,-1.1122,-1.1564,-1.1786,-1.1657,-1.2039,-1.2162,-1.1886,-1.1801,-1.1776,-1.1776,-1.1776,-1.2014,-1.2483,-1.235,-1.3168,-1.5154,-1.6145,-1.7325,-1.8555,-1.8612,-1.8591,-1.8577,-1.8283,-1.8095,0.0,0.0,0.0,-1.7689,-1.7609,-1.7582,-1.7582,-1.7582,-1.7582,-1.7582,-1.7582,-1.7582,-1.7582,0.0,0.0,0.0,0.0,0.0,0.0,0.0,0.0,0.0,0.0,0.0,0.0,0.0,0.0,0.0,0.0,0.0,0.0,0.0,0.0,0.0,0.0,0.0,0.0,-1.8409,-1.835,-1.8211,-1.7869,-1.7759,-1.7676,-1.7789,-1.7652,-1.7423,-1.7101,-1.7127,-1.7105,0.0,0.0,0.0,0.0,-1.6717,0.0,0.0,0.0,0.0,0.0,-1.6109,-1.617,0.0,-1.6028,-1.617,-1.6387,0.0,0.0,0.0,0.0,-1.7874,-1.8279,-1.8541,-1.795,-1.7463,-1.8206,-1.8422,-1.837,-1.822,0.0,0.0,0.0,0.0,0.0,0.0,-1.3166,-1.2091,0.0,-1.1723,0.0,0.0,0.0,-1.1608,-1.1658,-1.175,-1.1885,0.0,-1.2423,-1.2619,-1.2519,-1.2473,-1.2516,-1.2668,-1.2585,-1.2647,-1.294,-1.2754,-1.3674,-1.5818,-1.6207,-1.717,-1.8724,-1.8424,-1.829,-1.8277,-1.7969,-1.7836,0.0,0.0,0.0,-1.7582,-1.7582,-1.7582,-1.7582,-1.7582,-1.7582,-1.7582,-1.7582,-1.7582,-1.7582,0.0,0.0,0.0,0.0,0.0,0.0,0.0,0.0,0.0,0.0,0.0,0.0,0.0,0.0,0.0,0.0,0.0,0.0,0.0,0.0,0.0,0.0,0.0,-1.954,-1.954,-1.9492,-1.9324,-1.8971,-1.8891,-1.853,-1.803,-1.7981,-1.7905,-1.7726,-1.7698,-1.7731,0.0,0.0,-1.7654,0.0,-1.7362,0.0,0.0,0.0,0.0,0.0,0.0,0.0,0.0,-1.6272,-1.6454,-1.6588,-1.6359,0.0,0.0,0.0,0.0,0.0,-1.8862,-1.875,-1.8527,-1.8527,-1.8527,-1.8527,0.0,0.0,0.0,0.0,0.0,0.0,0.0,-1.4395,0.0,0.0,0.0,0.0,-1.2387,-1.2114,-1.2005,-1.2387,-1.2156,0.0,-1.2678,-1.296,-1.3155,-1.3243,-1.3257,-1.3337,-1.3584,-1.3356,-1.3315,-1.3373,-1.3179,-1.4002,-1.5966,-1.5761,-1.6504,-1.8307,-1.8062,-1.7922,-1.7916,-1.7702,-1.7582,-1.7582,0.0,0.0,-1.7582,-1.7582,-1.7582,-1.7582,-1.7582,-1.7582,-1.7582,-1.7582,-1.7582,-1.7582,0.0,0.0,0.0,0.0,0.0,0.0,0.0,0.0,0.0,0.0,0.0,0.0,0.0,0.0,0.0,0.0,0.0,0.0,0.0,0.0,0.0,0.0,-2.0328,-2.0162,-2.0162,-1.9897,-1.9619,-1.932,-1.8796,-1.8386,-1.7979,-1.7991,-1.8115,-1.8265,-1.8269,-1.8295,-1.8274,-1.8325,-1.8089,-1.7775,-1.7503,0.0,0.0,0.0,0.0,0.0,0.0,0.0,0.0,-1.6636,-1.6737,-1.6885,-1.6636,0.0,0.0,0.0,0.0,0.0,-1.9175,-1.9227,-1.9168,-1.9168,-1.9168,-1.9123,0.0,0.0,0.0,0.0,0.0,0.0,0.0,-1.4931,-1.3701,0.0,0.0,-1.2985,0.0,0.0,-1.2881,-1.2441,0.0,-1.2998,-1.2724,-1.3163,-1.3387,-1.3093,-1.305,-1.3064,-1.3097,-1.3069,-1.3279,-1.3799,-1.3637,-1.4145,-1.5465,-1.5426,-1.6064,-1.7383,-1.7582,-1.7655,-1.7655,-1.7602,-1.7582,-1.7582,0.0,-1.7582,-1.7582,-1.7582,-1.7582,-1.7582,-1.7582,-1.7582,-1.7582,-1.7582,-1.7582,-1.7582,0.0,0.0,0.0,0.0,0.0,0.0,0.0,0.0,0.0,0.0,0.0,0.0,0.0,0.0,0.0,0.0,0.0,0.0,0.0,0.0,0.0,-2.0706,-2.0759,-2.0565,-2.004,-1.9749,-1.9438,-1.9133,-1.8829,-1.8524,-1.822,-1.822,-1.8384,-1.8653,-1.8653,-1.8724,-1.8905,-1.8905,-1.8665,-1.834,0.0,0.0,0.0,0.0,0.0,0.0,0.0,0.0,0.0,0.0,-1.6972,-1.7106,-1.6878,0.0,0.0,0.0,0.0,0.0,-1.9228,-1.9279,-1.9279,-1.9279,-1.9279,-1.9279,0.0,0.0,0.0,0.0,0.0,0.0,0.0,0.0,-1.5737,-1.484,0.0,-1.4229,-1.3478,-1.3315,-1.3315,0.0,0.0,-1.3355,-1.3511,-1.3741,-1.3894,-1.3836,-1.3795,-1.3846,-1.4024,-1.3917,-1.3964,-1.4193,-1.4025,-1.4183,-1.4729,-1.4995,-1.5742,-1.6921,-1.7543,-1.7747,-1.7582,-1.7582,-1.7582,-1.7582,0.0,-1.7582,-1.7582,-1.7582,-1.7582,-1.7582,-1.7582,-1.7482,-1.738,-1.7168,-1.7108,-1.7108,0.0,0.0,0.0,0.0,0.0,0.0,0.0,0.0,0.0,0.0,0.0,0.0,0.0,0.0,0.0,0.0,0.0,0.0,0.0,0.0,-2.064,-2.072,-2.0962,-2.0751,-2.0057,-1.9758,-1.9452,-1.9084,-1.8994,-1.8766,-1.8534,-1.8534,-1.8698,-1.8974,-1.8974,-1.913,-1.9279,-1.9279,-1.9133,-1.8869,0.0,0.0,0.0,0.0,0.0,0.0,0.0,0.0,0.0,0.0,0.0,0.0,0.0,0.0,0.0,-1.8203,-1.8533,-1.8862,-1.9184,-1.9279,-1.9294,-1.9419,0.0,0.0,0.0,0.0,0.0,0.0,0.0,0.0,0.0,-1.8579,0.0,-1.6039,-1.5613,-1.5244,-1.4617,-1.3916,-1.3699,-1.4137,-1.3807,-1.3699,-1.4142,-1.4196,-1.4266,-1.4444,-1.4455,-1.4536,-1.4713,-1.4552,-1.4455,-1.4455,-1.4283,-1.4196,-1.4196,-1.4826,-1.5618,-1.6624,-1.7371,-1.7694,-1.7694,-1.7635,-1.7582,-1.7582,-1.7582,-1.7542,-1.7534,-1.7534,-1.7442,-1.7375,-1.7375,-1.7241,-1.7065,-1.6787,-1.6707,-1.6707,0.0,0.0,0.0,0.0,0.0,0.0,0.0,0.0,0.0,0.0,0.0,0.0,0.0,0.0,0.0,0.0,0.0,0.0,0.0,0.0,-2.0351,-2.0713,-2.075,-2.0701,-2.0645,-2.0325,-2.0004,-1.9745,-1.9161,-1.8891,-1.8869,-1.8869,-1.9026,-1.9272,-1.9272,-1.9279,-1.9279,-1.9279,-1.9264,-1.9184,-1.8555,0.0,0.0,0.0,0.0,0.0,0.0,0.0,0.0,0.0,0.0,0.0,0.0,0.0,-1.7882,-1.8203,-1.8533,-1.8862,-1.9184,-1.9279,-1.9345,-1.9705,-1.9551,0.0,-1.9279,-1.9279,0.0,-1.9279,0.0,0.0,0.0,-1.8579,-1.7726,-1.6783,-1.5986,-1.5458,-1.5405,0.0,-1.4137,-1.4191,-1.4142,-1.4137,-1.4196,-1.4196,-1.4202,-1.4218,-1.4218,-1.4223,-1.4245,-1.4229,-1.4218,-1.4218,-1.4202,-1.4196,-1.4196,-1.5035,-1.5773,-1.6346,-1.6624,-1.7213,-1.7964,-1.7694,-1.7582,-1.7582,-1.7582,-1.7481,-1.7233,-1.7233,-1.7072,-1.6767,-1.6767,-1.6754,-1.6734,-1.6714,-1.6707,-1.6707,0.0,0.0,0.0,0.0,0.0,0.0,0.0,0.0,0.0,0.0,0.0,0.0,0.0,0.0,0.0,0.0,0.0,0.0,0.0,0.0,-1.9996,-2.012,-2.0508,-2.0537,-2.0135,-2.0023,-1.9798,-1.9495,-1.9282,-1.913,-1.913,-1.913,-1.9175,-1.9279,-1.9279,-1.9279,-1.9279,-1.9279,-1.9279,-1.922,-1.8562,-1.8299,0.0,0.0,0.0,0.0,0.0,0.0,0.0,0.0,-1.7279,-1.7279,0.0,-1.7366,-1.7618,-1.8145,-1.8394,-1.8606,-1.9133,-1.9279,-1.9404,-1.9735,-1.972,0.0,0.0,-1.9632,-1.9632,-1.9632,-1.947,0.0,0.0,0.0,-1.8527,-1.7674,-1.6776,-1.6092,-1.5559,-1.4773,-1.4196,-1.4196,-1.4196,-1.4196,-1.4196,-1.4196,-1.4196,-1.4196,-1.4196,-1.4196,-1.4196,-1.4196,-1.4196,-1.4196,-1.4196,-1.4196,-1.4196,-1.5035,-1.5742,-1.626,-1.6911,-1.7536,-1.801,-1.7721,-1.7522,-1.7353,-1.7114,-1.6974,-1.6874,-1.6874,-1.6807,-1.6687,-1.6506,-1.6433,-1.6413,-1.6226,-1.6159,-1.6159,0.0,0.0,0.0,0.0,0.0,0.0,0.0,0.0,0.0,0.0,0.0,0.0,0.0,0.0,0.0,0.0,0.0,0.0,0.0,-1.972,-1.9705,-1.9815,-2.0186,-2.0216,-1.9823,-1.9805,-1.9654,-1.929,-1.9277,-1.9279,-1.9279,-1.9279,-1.9279,-1.9279,-1.9279,-1.9279,-1.9279,-1.9279,-1.9279,-1.922,-1.8562,-1.8299,0.0,0.0,0.0,0.0,0.0,0.0,0.0,0.0,-1.7279,-1.7279,0.0,0.0,0.0,0.0,-1.8145,-1.8269,-1.8818,-1.9118,-1.9382,-1.9603,0.0,0.0,-1.9837,-1.9815,-1.9815,-1.9815,-1.9639,0.0,0.0,0.0,0.0,0.0,-1.7681,-1.6935,-1.6352,-1.5565,-1.488,-1.4617,-1.4617,-1.4509,-1.425,-1.4196,-1.4196,-1.4196,-1.4196,0.0,0.0,-1.4196,-1.4196,-1.4196,-1.4196,-1.4196,-1.4196,-1.4688,-1.5399,-1.6207,-1.6775,-1.7353,-1.7936,-1.7575,-1.7327,-1.7154,-1.6844,-1.6653,-1.6567,-1.6567,-1.6513,-1.6413,-1.6213,-1.6132,-1.6106,-1.5905,-1.5784,-1.5832,0.0,0.0,0.0,0.0,0.0,0.0,0.0,0.0,0.0,0.0,0.0,0.0,0.0,0.0,0.0,0.0,0.0,0.0,-1.9815,-1.9455,-1.9478,-1.9793,-1.9815,-1.9815,-1.9815,-1.9815,-1.9654,-1.9279,-1.9279,-1.9279,-1.9279,-1.9279,-1.9279,-1.9279,-1.9279,-1.9279,-1.9279,-1.9279,-1.9279,-1.9213,-1.8562,-1.8299,-1.8225,0.0,0.0,0.0,0.0,0.0,0.0,0.0,-1.7279,-1.7279,0.0,0.0,0.0,0.0,-1.7816,-1.7889,-1.8218,-1.8774,-1.9264,0.0,0.0,0.0,-1.9828,-1.9815,-1.9823,-1.9815,0.0,-1.9713,-1.9338,0.0,0.0,-1.9279,-1.8579,-1.7989,-1.7989,-1.7252,-1.6411,-1.5613,-1.5506,-1.5137,-1.4299,-1.4196,-1.4196,-1.4196,0.0,0.0,0.0,-1.4196,-1.4196,-1.4196,-1.4191,-1.4191,-1.4191,-1.3943,-1.4595,-1.6194,-1.6011,-1.6587,-1.7867,-1.737,-1.712,-1.7064,-1.68,-1.6533,-1.6321,-1.6321,-1.6092,-1.5784,-1.5784,-1.5784,-1.5784,-1.5784,-1.5784,-1.5832,0.0,0.0,0.0,0.0,0.0,0.0,0.0,0.0,0.0,0.0,0.0,0.0,0.0,0.0,0.0,0.0,0.0,0.0,-1.9433,-1.9382,-1.9323,-1.9418,-1.9691,-1.9713,-1.9425,-1.9478,-1.9426,-1.9279,-1.9279,-1.9279,-1.9279,-1.9279,-1.9279,-1.9279,-1.9279,-1.9279,-1.9279,-1.9279,-1.914,-1.8891,-1.8474,-1.8167,-1.7911,0.0,0.0,0.0,0.0,0.0,0.0,0.0,0.0,0.0,0.0,0.0,0.0,-1.7721,-1.7816,-1.7933,-1.8496,-1.8621,0.0,-1.9162,0.0,0.0,0.0,0.0,0.0,0.0,0.0,-1.9713,-1.9338,0.0,0.0,-1.9279,-1.8579,-1.7989,-1.7989,-1.7252,-1.6624,-1.6358,-1.5826,-1.5405,-1.5143,-1.4563,-1.4196,0.0,0.0,0.0,0.0,-1.4196,-1.4196,-1.4196,-1.4024,-1.3933,-1.3933,-1.4251,-1.4853,-1.5632,-1.618,-1.6993,-1.791,-1.7492,-1.7149,-1.6799,-1.6483,-1.619,-1.5965,-1.5965,-1.5912,-1.5784,-1.5784,-1.5784,-1.5784,-1.5784,-1.5927,-1.6123,0.0,0.0,0.0,0.0,0.0,0.0,0.0,0.0,0.0,0.0,0.0,0.0,0.0,0.0,0.0,0.0,0.0,0.0,0.0,0.0,-1.9279,-1.9279,-1.9514,-1.9529,-1.9279,-1.9279,-1.9279,-1.9279,-1.9279,-1.9279,-1.9279,-1.9279,-1.9279,-1.9279,-1.9279,-1.9279,-1.9279,-1.9279,-1.9089,-1.876,-1.843,-1.8108,-1.7779,0.0,0.0,0.0,0.0,0.0,0.0,0.0,0.0,0.0,0.0,0.0,0.0,-1.756,-1.7618,-1.7706,-1.8101,-1.8255,0.0,-1.8628,-1.8745,-1.8789,-1.8789,0.0,0.0,0.0,0.0,-1.9566,-1.9368,-1.9279,0.0,-1.9279,-1.8848,-1.852,-1.852,-1.8055,-1.7575,-1.7252,-1.6776,-1.6246,-1.5559,0.0,0.0,0.0,0.0,0.0,0.0,-1.4099,-1.4046,-1.4046,-1.3809,-1.3685,-1.3685,-1.3942,-1.4392,-1.498,-1.5696,-1.647,-1.7232,-1.7248,-1.7074,-1.6821,-1.6402,-1.6028,-1.5784,-1.5784,-1.5784,-1.5784,-1.5784,-1.5784,-1.5784,-1.5784,-1.5981,-1.6224,0.0,0.0,0.0,0.0,0.0,0.0,0.0,0.0,0.0,0.0,0.0,0.0,0.0,0.0,0.0,0.0,0.0,0.0,0.0,0.0,-1.9279,-1.9279,-1.9279,-1.9279,-1.9279,-1.9279,-1.9279,-1.9279,-1.9279,-1.9279,-1.9279,-1.9279,-1.9279,-1.9279,-1.9279,-1.9279,-1.9279,-1.9294,-1.9045,-1.8716,-1.8386,-1.8064,-1.7735,-1.7443,0.0,0.0,0.0,0.0,0.0,0.0,0.0,0.0,0.0,0.0,-1.7466,-1.7559,-1.7552,-1.7559,-1.7589,0.0,0.0,-1.8026,-1.8282,0.0,-1.8657,-1.8657,-1.8679,-1.8767,0.0,-1.9184,-1.9184,-1.9213,-1.9228,-1.9228,-1.9257,-1.9279,-1.9279,-1.9279,-1.9004,-1.8199,0.0,0.0,0.0,0.0,0.0,0.0,0.0,0.0,-1.4234,-1.3964,-1.3787,-1.3787,-1.3561,-1.3443,-1.3443,-1.3195,-1.3469,-1.4248,-1.4835,-1.548,-1.6237,-1.6777,-1.7026,-1.6979,-1.6414,-1.6076,-1.5832,-1.5832,-1.5784,-1.5784,-1.5784,-1.5784,-1.5784,-1.5784,-1.5981,-1.6265,0.0,0.0,0.0,0.0,0.0,0.0,0.0,0.0,0.0,0.0,0.0,0.0,0.0,0.0,0.0,0.0,0.0,0.0,0.0,0.0,-1.9279,-1.9279,-1.9279,-1.9279,-1.9279,-1.9279,-1.9279,-1.9279,-1.9279,-1.9279,-1.9279,-1.9279,-1.9279,-1.9279,-1.9279,-1.9279,-1.9257,-1.9001,-1.8701,-1.8379,-1.805,-1.7728,-1.7381,-1.7308,-1.7279,0.0,0.0,0.0,0.0,0.0,0.0,0.0,-1.8241,-1.8473,-1.8603,-1.9376,-1.9596,-1.9617,0.0,-1.989,0.0,0.0,-1.8286,-1.764,-1.764,-1.764,-1.786,-1.8628,-1.8642,-1.8511,-1.8511,-1.8723,-1.8891,-1.8891,-1.9111,-1.9279,-1.9279,-1.9279,-1.922,-1.9056,0.0,0.0,0.0,0.0,0.0,0.0,0.0,0.0,-1.4505,-1.3887,-1.355,-1.355,-1.3313,-1.3184,-1.3184,-1.2953,-1.3219,0.0,-1.4742,-1.548,-1.6237,-1.6904,-1.7153,-1.6979,-1.6414,-1.6177,-1.6076,-1.5879,-1.5784,-1.5784,-1.5784,-1.5784,-1.5784,-1.5784,-1.6116,-1.6541,0.0,0.0,0.0,0.0,0.0,0.0,0.0,0.0,0.0,0.0,0.0,0.0,0.0,0.0,0.0,0.0,0.0,0.0,0.0,0.0,0.0,0.0,-1.9279,-1.9279,-1.9279,-1.9279,-1.9279,-1.9279,-1.9279,0.0,0.0,0.0,0.0,-1.9279,-1.9279,-1.9279,-1.9257,-1.8928,-1.8606,-1.8277,-1.7947,-1.7618,-1.7279,-1.7279,-1.7279,-1.7279,-1.7279,0.0,0.0,0.0,0.0,0.0,0.0,0.0,-1.9559,-2.0051,-2.0187,-2.0229,0.0,0.0,0.0,0.0,0.0,0.0,0.0,-1.7652,-1.7425,-1.7984,-1.8079,-1.8116,-1.8277,-1.8438,-1.8555,-1.8555,-1.8701,-1.8811,-1.8811,-1.8811,-1.8869,0.0,0.0,0.0,0.0,0.0,0.0,0.0,0.0,-1.4721,-1.4587,-1.4167,-1.3696,-1.3297,-1.3066,-1.2942,-1.2942,-1.3202,-1.3528,-1.3908,-1.5051,-1.6001,-1.6756,-1.7138,-1.72,-1.6979,-1.6697,-1.6461,-1.6177,-1.6028,-1.5927,-1.5784,-1.5784,-1.5784,-1.5832,-1.5927,-1.6258,-1.6636,0.0,0.0,0.0,0.0,0.0,0.0,0.0,0.0,0.0,0.0,0.0,0.0,0.0,0.0,0.0,0.0,0.0,0.0,0.0,0.0,0.0,0.0,-1.9279,-1.9279,-1.9279,-1.9279,-1.9279,-1.9279,0.0,0.0,0.0,0.0,0.0,-1.9279,0.0,-1.9279,-1.925,-1.8869,-1.8547,-1.8269,-1.7882,-1.7567,-1.7279,-1.7279,-1.7279,-1.7279,-1.7279,-1.7279,-1.7279,-1.7279,0.0,0.0,0.0,0.0,-2.0277,-2.0593,-2.0683,-2.0683,0.0,0.0,0.0,0.0,0.0,0.0,0.0,0.0,0.0,0.0,-1.7545,-1.7816,-1.8086,-1.8182,-1.8218,-1.8218,-1.8262,-1.8299,-1.8299,-1.8299,0.0,0.0,0.0,0.0,0.0,0.0,0.0,0.0,0.0,-1.5501,-1.49,-1.4485,-1.3923,-1.3243,-1.2959,-1.2813,-1.2813,-1.3522,-1.3902,-1.3902,-1.548,-1.6567,-1.7279,-1.7279,-1.7192,-1.7073,-1.7026,-1.6744,-1.6272,-1.6224,-1.6028,-1.5784,-1.5784,-1.5784,-1.5832,-1.6123,-1.6359,-1.6636,0.0,0.0,0.0,0.0,0.0,0.0,0.0,0.0,0.0,0.0,0.0,0.0,0.0,0.0,0.0,0.0,0.0,0.0,0.0,0.0,0.0,0.0,-1.9279,-1.9279,-1.9279,-1.9279,-1.9279,0.0,0.0,0.0,0.0,0.0,0.0,-1.9279,0.0,-1.9279,-1.9235,-1.8628,-1.8343,-1.8247,-1.764,-1.7323,-1.7279,-1.7279,-1.7279,-1.7279,-1.7279,-1.7279,-1.7279,-1.7279,-1.7372,0.0,0.0,0.0,-2.0548,-2.2236,-2.2731,-2.2731,0.0,0.0,0.0,0.0,0.0,0.0,0.0,0.0,0.0,0.0,0.0,-1.7359,-1.745,-1.7691,-1.7882,-1.7882,-1.8116,-1.8299,0.0,0.0,0.0,0.0,0.0,0.0,0.0,0.0,0.0,0.0,-1.6222,-1.5622,-1.5986,-1.4689,-1.3906,-1.381,-1.3158,-1.2813,-1.2813,-1.3522,-1.3902,-1.3902,-1.548,-1.6567,-1.7279,-1.7279,-1.7286,-1.7239,-1.7066,-1.6831,-1.6541,-1.6312,-1.6028,-1.5784,-1.5784,-1.5784,-1.5832,-1.6123,-1.6359,-1.6636,0.0,0.0,0.0,0.0,0.0,0.0,0.0,0.0,0.0,0.0,0.0,0.0,0.0,0.0,0.0,-1.9279,0.0,0.0,0.0,0.0,0.0,-1.9603,-1.9603,-1.9514,-1.9279,-1.9279,0.0,0.0,0.0,0.0,0.0,-2.0431,-2.0181,0.0,0.0,0.0,0.0,-1.8577,-1.8299,-1.8247,-1.7589,-1.7279,-1.7301,-1.753,-1.7604,-1.7625,-1.7808,-1.7757,-1.7604,-1.7604,-1.7849,-1.838,-1.9778,0.0,0.0,0.0,-2.3091,0.0,-2.3091,0.0,0.0,0.0,0.0,0.0,0.0,0.0,0.0,0.0,0.0,0.0,0.0,0.0,0.0,0.0,0.0,0.0,0.0,0.0,0.0,0.0,0.0,0.0,0.0,0.0,0.0,0.0,-1.6873,-1.6381,-1.6197,-1.5568,-1.4806,-1.395,-1.357,-1.3238,-1.2813,-1.4004,-1.5003,-1.5805,-1.6473,-1.6998,-1.7279,-1.7279,-1.7279,-1.7279,-1.7192,-1.6965,-1.6581,-1.6447,-1.6265,-1.6028,-1.6028,-1.6116,-1.6298,-1.6548,-1.6737,-1.6878,0.0,0.0,0.0,0.0,0.0,0.0,0.0,0.0,0.0,0.0,0.0,0.0,0.0,0.0,0.0,0.0,-1.9279,0.0,0.0,0.0,0.0,-1.9815,-1.9735,-1.958,-1.9331,-1.9279,0.0,0.0,0.0,0.0,-2.1285,-2.1285,-2.143,0.0,-2.0034,-1.9228,0.0,0.0,0.0,0.0,-1.756,-1.733,-1.7432,-1.7721,-1.7867,-1.7969,-1.8211,-1.8145,-1.7925,-1.7845,-1.8305,-1.9092,-1.9948,-2.0872,0.0,0.0,0.0,0.0,0.0,0.0,0.0,0.0,0.0,0.0,0.0,0.0,0.0,0.0,0.0,0.0,0.0,0.0,0.0,0.0,0.0,0.0,0.0,0.0,0.0,0.0,0.0,0.0,0.0,0.0,0.0,0.0,-1.7279,-1.7044,-1.652,-1.6285,-1.5663,-1.4519,-1.4094,-1.3619,-1.3098,-1.443,-1.5859,-1.7279,-1.7279,-1.7279,-1.7279,-1.7279,-1.7279,-1.7279,-1.7279,-1.7052,-1.6683,-1.6683,-1.6541,-1.6312,-1.6312,-1.6407,-1.6636,-1.6878,-1.6979,-1.7026,0.0,0.0,0.0,0.0,0.0,0.0,0.0,0.0,0.0,0.0,0.0,0.0,-2.2484,-2.0585,-1.9279,-1.9279,-1.9279,-1.9463,-1.9793,-1.9815,0.0,-1.9815,-1.9522,0.0,-1.9279,-1.9279,0.0,0.0,0.0,0.0,-2.2433,-2.2433,-2.2935,-2.3791,-2.0688,-1.9103,-1.8789,0.0,0.0,0.0,0.0,0.0,0.0,-1.7808,-1.8006,-1.8277,-1.8291,-1.8291,-1.8233,-1.7918,-1.8464,-1.9366,-1.9987,-2.0872,-2.1872,0.0,0.0,0.0,0.0,0.0,0.0,0.0,0.0,0.0,0.0,0.0,0.0,0.0,0.0,0.0,0.0,0.0,0.0,0.0,0.0,0.0,0.0,0.0,0.0,0.0,0.0,0.0,0.0,0.0,0.0,0.0,-1.7279,-1.7279,-1.7232,-1.6567,-1.6143,-1.6096,-1.4663,-1.3859,-1.3854,-1.4669,-1.5859,-1.7279,-1.7279,-1.7279,-1.7279,-1.7279,-1.7279,-1.7279,-1.7279,-1.72,-1.6979,-1.6979,-1.6831,-1.6588,-1.6588,-1.6588,-1.6636,-1.6878,-1.6979,-1.7026,0.0,0.0,0.0,0.0,0.0,0.0,0.0,0.0,0.0,0.0,0.0,0.0,0.0,-2.1183,-2.0034,-1.9376,-1.9279,-1.9463,-1.9793,-1.9815,0.0,-1.9815,-1.9705,-1.9544,-1.9279,-1.9983,0.0,0.0,0.0,-2.3135,-2.3543,-2.3543,-2.3732,-2.4038,-2.219,-2.1141,-2.0784,-2.0419,0.0,0.0,0.0,0.0,0.0,0.0,0.0,0.0,-1.8855,-1.8789,-1.8562,-1.824,-1.8654,-1.9398,-1.9987,-2.0872,-2.1872,-2.2828,-2.3091,0.0,0.0,0.0,0.0,0.0,0.0,0.0,0.0,0.0,0.0,0.0,0.0,0.0,0.0,0.0,0.0,0.0,0.0,0.0,0.0,0.0,0.0,0.0,0.0,0.0,0.0,0.0,0.0,0.0,0.0,-1.7279,-1.7279,-1.7044,-1.6709,-1.619,-1.5194,-1.4669,-1.4669,-1.4956,-1.5859,-1.7279,-1.7279,-1.7279,-1.7279,-1.7279,-1.7279,-1.7279,-1.7279,-1.72,-1.6979,-1.6979,-1.6932,-1.6878,-1.6878,-1.6918,-1.7052,-1.7145,-1.72,-1.7192,0.0,0.0,0.0,0.0,0.0,0.0,0.0,0.0,0.0,0.0,0.0,0.0,0.0,0.0,-2.0987,-1.9931,-1.9933,-1.9941,-1.9801,-1.9815,-1.9968,-2.0332,-2.0219,-2.021,-2.0388,0.0,0.0,0.0,0.0,0.0,0.0,-2.4452,-2.4658,-2.4599,-2.3754,-2.2788,0.0,0.0,0.0,-1.9613,0.0,0.0,-1.8489,0.0,0.0,0.0,0.0,0.0,-1.8935,-1.8835,-1.9307,-2.0023,-2.0531,-2.1373,-2.228,-2.2916,-2.3091,0.0,-2.3091,0.0,0.0,0.0,0.0,0.0,0.0,0.0,0.0,0.0,0.0,0.0,0.0,0.0,0.0,0.0,0.0,0.0,0.0,0.0,0.0,0.0,0.0,0.0,0.0,0.0,0.0,0.0,0.0,0.0,-1.7279,-1.7279,-1.6951,-1.6237,-1.548,-1.5194,-1.548,-1.5194,-1.5859,-1.7279,-1.7279,-1.7279,-1.7279,-1.7279,-1.7279,-1.7279,-1.7279,-1.7239,-1.7113,-1.7113,-1.7113,-1.7113,-1.7113,-1.72,-1.7279,-1.7279,-1.7279,-1.7279,0.0,0.0,0.0,0.0,0.0,0.0,0.0,0.0,0.0,-2.6149,0.0,0.0,0.0,0.0,0.0,-2.0979,-2.1195,-2.0936,-1.9907,-1.9854,-2.0317,-2.1393,0.0,0.0,0.0,0.0,0.0,0.0,0.0,0.0,0.0,0.0,-2.5684,-2.5645,-2.5254,-2.3738,-2.1449,0.0,-2.0682,-1.9415,0.0,-1.9524,-1.8854,0.0,0.0,0.0,-1.9324,-1.9324,0.0,-1.9696,0.0,0.0,0.0,-2.2378,-2.3091,-2.3091,0.0,0.0,0.0,0.0,0.0,0.0,0.0,0.0,0.0,0.0,0.0,0.0,0.0,0.0,0.0,0.0,0.0,0.0,0.0,0.0,0.0,0.0,0.0,0.0,0.0,0.0,0.0,0.0,0.0,0.0,-1.7372,-1.7326,-1.7326,-1.7326,-1.6951,-1.6237,-1.5527,-1.548,-1.619,-1.548,-1.5859,-1.7279,-1.7279,-1.7279,-1.7279,-1.7279,-1.7279,-1.7279,-1.7279,-1.7279,-1.7279,-1.7279,-1.7279,-1.7279,-1.7279,-1.7279,-1.7279,-1.7279,-1.7279,-1.7279,0.0,0.0,0.0,0.0,0.0,0.0,0.0,0.0,-2.6496,0.0,0.0,0.0,-2.4187,-2.3135,-2.2089,-2.0979,-2.0972,-2.0925,-2.0623,-2.0579,-2.1079,-2.2138,-2.2089,0.0,0.0,0.0,0.0,0.0,0.0,0.0,0.0,0.0,0.0,0.0,-2.4795,-2.4033,-2.3136,-2.3438,0.0,-2.0774,-2.2005,-2.161,0.0,0.0,0.0,0.0,0.0,-1.9776,-2.0381,0.0,-2.0939,-2.2422,0.0,0.0,0.0,0.0,0.0,0.0,-2.3091,0.0,0.0,0.0,0.0,0.0,0.0,0.0,0.0,0.0,0.0,0.0,0.0,0.0,0.0,0.0,0.0,0.0,0.0,0.0,0.0,0.0,0.0,0.0,0.0,0.0,0.0,0.0,-1.8788,-1.838,-1.838,-1.7699,-1.6951,-1.6237,-1.6001,-1.6001,-1.619,-1.6001,-1.6379,-1.7279,-1.7279,-1.7279,-1.7279,-1.7279,-1.7279,-1.7279,-1.7279,-1.7279,-1.7279,-1.7279,-1.7279,-1.7279,-1.7279,-1.7279,-1.7279,-1.7279,-1.7279,-1.7279,0.0,0.0,0.0,0.0,0.0,0.0,0.0,0.0,-2.6736,0.0,0.0,0.0,-2.4854,-2.4295,-2.3543,-2.2341,-2.224,-2.2038,-2.1582,-2.1591,-2.2038,-2.3135,-2.3194,-2.3393,0.0,0.0,0.0,0.0,0.0,0.0,0.0,0.0,0.0,0.0,0.0,0.0,0.0,0.0,0.0,0.0,-2.322,0.0,0.0,-2.1081,-2.0885,0.0,0.0,0.0,-2.0926,-2.0996,-2.1872,0.0,0.0,0.0,0.0,0.0,0.0,0.0,0.0,0.0,0.0,0.0,0.0,0.0,-2.3091,-2.3091,-2.3091,0.0,0.0,0.0,0.0,0.0,0.0,0.0,0.0,0.0,0.0,0.0,0.0,0.0,0.0,0.0,0.0,-2.0827,-2.0647,-2.0232,-1.9687,-1.9193,-1.8834,-1.7831,-1.7091,-1.6662,-1.6379,-1.6332,-1.6662,-1.6332,-1.6574,-1.7279,-1.7279,-1.7279,-1.7279,-1.7279,-1.7279,-1.7279,-1.7279,-1.7279,-1.7279,-1.7279,-1.7279,-1.7279,-1.7279,-1.7279,-1.7279,-1.7279,-1.7279,-1.7372,0.0,0.0,0.0,0.0,0.0,0.0,0.0,0.0,-2.7214,0.0,-2.6651,-2.6255,-2.5781,-2.5917,-2.5548,-2.4236,-2.4137,-2.3741,-2.2844,-2.2793,-2.3244,-2.4344,-2.4393,-2.4805,-2.5732,0.0,0.0,0.0,0.0,0.0,0.0,0.0,0.0,0.0,0.0,0.0,0.0,0.0,0.0,-2.3054,-2.3922,-2.3642,0.0,0.0,-2.1234,-2.1234,-2.1132,-2.1132,-2.1425,-2.259,-2.3004,0.0,0.0,0.0,0.0,0.0,-2.3091,0.0,0.0,0.0,0.0,0.0,0.0,0.0,-2.3033,-2.3023,-2.3013,-2.2964,0.0,0.0,0.0,0.0,0.0,0.0,0.0,0.0,0.0,0.0,0.0,0.0,0.0,0.0,-2.1787,-2.1699,-2.1336,-2.0471,-2.0292,-1.9796,-1.8851,-1.7857,-1.7355,-1.7355,-1.661,-1.653,-1.7228,-1.6612,-1.6633,-1.7279,-1.7279,-1.7279,-1.7279,-1.7279,-1.7279,-1.7279,-1.7279,-1.7279,-1.7279,-1.7279,-1.7279,-1.7279,-1.7279,-1.7279,-1.7279,-1.7279,-1.7372,-1.7598,0.0,0.0,0.0,0.0,0.0,0.0,0.0,0.0,0.0,-2.6948,-2.6496,-2.6149,-2.6052,-2.5868,-2.5421,-2.4492,-2.4442,-2.4442,-2.4433,-2.4433,-2.4894,-2.5994,-2.6042,-2.6042,-2.6004,0.0,0.0,0.0,0.0,0.0,0.0,0.0,0.0,0.0,0.0,0.0,0.0,0.0,0.0,-2.4158,-2.5025,0.0,-2.3741,-2.3543,-2.3493,-2.3335,-2.2484,-2.2735,-2.3516,-2.3937,-2.3667,-2.3091,0.0,0.0,0.0,-2.3091,0.0,0.0,0.0,0.0,0.0,0.0,0.0,0.0,-2.2672,-2.2637,-2.2539,0.0,0.0,0.0,0.0,0.0,0.0,0.0,0.0,0.0,0.0,0.0,0.0,0.0,0.0,0.0,-2.1878,-2.1868,-2.1784,-2.1564,-2.0817,-1.9954,-1.9003,-1.8129,-1.7609,-1.7609,-1.681,-1.6546,-1.6991,-1.6854,-1.6931,-1.7279,-1.7279,-1.7279,-1.7279,-1.7279,-1.7279,-1.7279,-1.7279,-1.7279,-1.7279,-1.7279,-1.7279,-1.7279,-1.7279,-1.7279,-1.7279,-1.7279,-1.7831,-1.8565,0.0,0.0,0.0,0.0,0.0,0.0,0.0,0.0,0.0,0.0,0.0,-2.6996,-2.6982,-2.6953,-2.6745,-2.6238,0.0,0.0,0.0,-2.582,-2.5945,-2.6496,-2.6496,-2.6342,-2.61,-2.6352,0.0,0.0,0.0,0.0,0.0,0.0,0.0,0.0,0.0,0.0,0.0,0.0,-2.4274,-2.4641,-2.5381,0.0,-2.4864,-2.4295,-2.4088,-2.4038,-2.3484,-2.3733,-2.4222,-2.4132,-2.3627,0.0,-2.3091,-2.3091,-2.3091,0.0,-2.3091,-2.3091,0.0,0.0,0.0,-2.2779,0.0,0.0,0.0,-2.2197,-2.2139,-2.1934,0.0,0.0,0.0,0.0,0.0,0.0,0.0,0.0,0.0,0.0,0.0,0.0,0.0,0.0,-2.1885,-2.1885,-2.1885,-2.1885,-2.0973,-2.0199,-1.9733,-1.8827,-1.8146,-1.7711,-1.7283,-1.6927,-1.6653,-1.6653,-1.6734,-1.685,-1.685,-1.685,-1.685,-1.685,-1.685,-1.6857,-1.7026,-1.7091,-1.7106,-1.726,-1.7279,-1.7279,-1.7279,-1.7279,-1.7279,-1.7279,-1.7924,-1.888,-3.3124,0.0,0.0,0.0,0.0,0.0,0.0,0.0,0.0,0.0,0.0,0.0,0.0,0.0,0.0,0.0,0.0,0.0,0.0,0.0,-2.6681,-2.6762,-2.6691,-2.6544,-2.6245,-2.6544,-2.664,0.0,0.0,0.0,0.0,0.0,0.0,0.0,0.0,0.0,0.0,0.0,0.0,-2.4651,0.0,-2.5538,-2.5586,-2.4756,-2.4402,-2.4384,-2.43,-2.4288,-2.4248,-2.3906,-2.3496,-2.3091,-2.3091,-2.3091,0.0,0.0,0.0,0.0,0.0,0.0,0.0,0.0,0.0,-2.1865,0.0,0.0,0.0,0.0,0.0,0.0,0.0,0.0,0.0,0.0,0.0,0.0,0.0,0.0,0.0,0.0,0.0,0.0,-2.1631,-2.1631,-2.1631,-2.1631,-2.0904,-2.043,-2.043,-1.9554,-1.8744,-1.802,-1.7849,-1.7372,-1.6579,-1.6528,-1.6477,-1.6411,-1.6411,-1.6411,-1.6411,-1.6411,-1.6411,-1.6426,-1.669,-1.6807,-1.6829,-1.704,-1.7143,-1.7157,-1.7235,-1.7279,-1.7279,-1.7279,-1.8056,-1.9193,-3.3124,-3.2939,0.0,0.0,0.0,0.0,0.0,0.0,0.0,0.0,0.0,0.0,0.0,0.0,0.0,0.0,0.0,0.0,-2.8415,0.0,0.0,0.0,0.0,-2.7071,-2.6794,-2.7081,-2.7071,0.0,0.0,0.0,0.0,0.0,0.0,0.0,-2.4034,0.0,0.0,0.0,-2.3863,0.0,-2.4375,-2.4992,0.0,-2.5586,-2.5528,-2.5479,-2.513,-2.4487,-2.3857,0.0,-2.3496,-2.3091,0.0,-2.3091,-2.3091,-2.3091,0.0,0.0,0.0,0.0,0.0,0.0,-2.1924,0.0,0.0,0.0,-2.1191,-2.084,0.0,0.0,0.0,0.0,0.0,0.0,0.0,0.0,0.0,0.0,0.0,0.0,0.0,0.0,0.0,-2.0752,-2.0752,-2.0752,-2.0635,-2.0586,-2.0586,-1.9757,-1.923,-1.911,-1.8368,-1.7672,-1.7109,-1.7117,-1.6888,-1.6411,-1.6411,-1.6411,-1.6411,-1.6411,-1.6411,-1.6419,-1.6455,-1.647,-1.647,-1.6507,-1.6521,-1.658,-1.7106,-1.7279,-1.7279,-1.7279,-1.8465,-2.0051,-3.3124,-3.2624,0.0,0.0,0.0,0.0,0.0,0.0,0.0,0.0,0.0,0.0,0.0,0.0,0.0,0.0,0.0,-2.8714,0.0,0.0,0.0,0.0,0.0,0.0,-2.69,-2.7167,-2.7177,0.0,-2.6713,0.0,0.0,0.0,0.0,0.0,-2.4153,0.0,-2.3991,0.0,-2.3935,0.0,0.0,0.0,0.0,-2.5068,-2.4923,-2.4865,-2.4482,-2.4102,-2.375,0.0,-2.3247,0.0,0.0,0.0,0.0,0.0,0.0,0.0,0.0,0.0,0.0,0.0,0.0,0.0,-2.0889,0.0,-2.0791,0.0,0.0,0.0,0.0,0.0,0.0,0.0,-2.0605,0.0,0.0,0.0,0.0,0.0,0.0,0.0,0.0,0.0,0.0,0.0,-2.0605,-2.0605,-2.0605,-2.0245,-1.9814,-1.9301,-1.8935,-1.8155,-1.6913,-1.6921,-1.6541,-1.5826,-1.5826,-1.5826,-1.5826,-1.5826,-1.5826,-1.5833,-1.6023,-1.6104,-1.6118,-1.6338,-1.6411,-1.6485,-1.7243,-1.7214,-1.686,-1.7349,-1.858,-2.0049,-3.3081,0.0,0.0,0.0,0.0,0.0,0.0,0.0,0.0,0.0,0.0,0.0,-2.9953,-2.9994,0.0,0.0,-2.957,-2.9363,0.0,0.0,-2.8462,0.0,0.0,0.0,0.0,-2.7214,-2.7214,0.0,0.0,0.0,0.0,0.0,0.0,0.0,0.0,-2.4206,-2.4163,0.0,-2.387,-2.437,-2.383,-2.3984,-2.4531,-2.4443,-2.4346,-2.4209,-2.3896,-2.3711,-2.3564,-2.3198,-2.3091,0.0,-2.3091,0.0,0.0,0.0,0.0,0.0,-2.2305,0.0,0.0,0.0,0.0,0.0,0.0,0.0,0.0,0.0,0.0,0.0,0.0,0.0,0.0,0.0,0.0,-2.0944,0.0,0.0,0.0,0.0,0.0,0.0,0.0,0.0,0.0,-2.0905,-2.0712,-2.0605,-2.0605,-2.0605,-2.0333,-1.9696,-1.9657,-1.8926,-1.7423,-1.7188,-1.6624,-1.5748,-1.5506,-1.5389,-1.5389,-1.5389,-1.5389,-1.5396,-1.5679,-1.5739,-1.5796,-1.6023,-1.6277,-1.653,-1.7169,-1.7212,-1.6934,-1.777,-1.8866,-2.0052,-3.3038,-3.3068,0.0,0.0,0.0,0.0,0.0,0.0,0.0,0.0,0.0,0.0,0.0,0.0,0.0,0.0,0.0,-2.9497,-2.9942,0.0,-2.8607,0.0,0.0,-2.7717,0.0,0.0,0.0,0.0,0.0,0.0,0.0,0.0,0.0,0.0,0.0,-2.4206,-2.4163,-2.3677,-2.3523,-2.3499,-2.3261,-2.313,-2.3247,0.0,-2.417,-2.3809,-2.3799,0.0,0.0,-2.3101,-2.3091,0.0,0.0,0.0,0.0,0.0,0.0,0.0,0.0,0.0,0.0,-2.0742,0.0,0.0,0.0,0.0,-2.0605,0.0,0.0,0.0,0.0,0.0,0.0,0.0,0.0,0.0,0.0,0.0,0.0,0.0,0.0,0.0,0.0,0.0,-2.0934,-2.168,-2.1049,-2.0605,-2.0605,-2.0605,-2.0605,-2.0566,-2.0566,-2.0128,-1.9222,-1.8359,-1.7513,-1.6657,-1.5782,-1.5389,-1.5389,-1.5389,-1.5389,-1.5389,-1.5396,-1.5403,-1.5403,-1.5411,-1.5937,-1.6689,-1.673,-1.7221,-1.8044,-1.8693,-1.9571,-2.0385,0.0,0.0,0.0,0.0,0.0,0.0,0.0,-2.9104,0.0,0.0,-2.9901,0.0,0.0,-2.9994,-2.9994,0.0,0.0,-2.9829,-2.9984,-2.9704,0.0,0.0,0.0,-2.8028,0.0,0.0,0.0,0.0,0.0,0.0,0.0,0.0,0.0,0.0,0.0,-2.485,0.0,0.0,0.0,0.0,0.0,-2.3398,-2.3159,0.0,-2.373,-2.3359,-2.3359,-2.3218,0.0,-2.3091,-2.3091,-2.3091,-2.3091,-2.2906,-2.2695,-2.2549,-2.2314,0.0,0.0,0.0,-2.1083,-2.0713,0.0,0.0,0.0,0.0,0.0,0.0,0.0,0.0,0.0,0.0,0.0,0.0,0.0,0.0,0.0,0.0,0.0,0.0,0.0,0.0,0.0,0.0,0.0,-2.1794,-2.1049,-2.0605,-2.0605,-2.0605,-2.0605,-2.0605,-2.0605,-2.0167,-1.9301,-1.9015,-1.8118,-1.6698,-1.6419,-1.5948,-1.5389,-1.5389,-1.5389,-1.5389,-1.5389,-1.5389,-1.5389,-1.5389,-1.5899,-1.678,-1.735,-1.8078,-1.8882,-1.9111,-1.9584,-2.0218,-3.3038,0.0,0.0,0.0,0.0,0.0,0.0,0.0,0.0,0.0,-3.0339,0.0,-3.0047,0.0,-2.9994,0.0,-2.9994,-3.0141,-3.0536,-3.0037,0.0,-2.9698,-2.9183,0.0,0.0,0.0,0.0,0.0,0.0,-2.8668,0.0,0.0,0.0,0.0,0.0,-2.5137,-2.4733,0.0,-2.4349,0.0,0.0,-2.3477,0.0,0.0,-2.3379,-2.3091,0.0,-2.3091,-2.3091,-2.3091,-2.3091,-2.3071,-2.2916,-2.2734,-2.2451,-2.2148,-2.1865,-2.1553,-2.1113,-2.0996,0.0,-2.0674,-2.0605,0.0,-2.0982,0.0,-2.1165,0.0,0.0,0.0,0.0,0.0,0.0,0.0,0.0,0.0,0.0,-2.424,0.0,0.0,0.0,0.0,0.0,0.0,-2.2209,-2.2209,-2.1461,-2.0905,0.0,0.0,-2.0605,-2.0605,-2.0605,-2.0333,-1.9775,-1.946,-1.8567,-1.7147,-1.6862,-1.6221,-1.5389,-1.5389,-1.559,-1.5865,-1.5865,-1.6031,-1.6312,-1.6312,-1.6837,-1.7674,-1.8238,-1.9006,-1.9775,-1.9775,-1.9944,-2.0287,0.0,0.0,0.0,0.0,-3.1784,0.0,0.0,0.0,-3.2448,0.0,-3.1043,-3.1289,-3.0297,-3.0151,-3.0151,-3.0151,-3.0151,-3.0588,-3.1637,-3.0298,0.0,0.0,-3.027,-2.9675,-3.0181,0.0,0.0,0.0,0.0,0.0,0.0,0.0,0.0,0.0,-2.5401,0.0,-2.5788,-2.469,-2.469,-2.5326,-2.3993,-2.3319,-2.3135,-2.3101,-2.3091,-2.3091,-2.3091,-2.3091,-2.3091,-2.3071,-2.3062,-2.2994,-2.2617,-2.2461,-2.2295,-2.1434,-2.1181,-2.1103,-2.0684,-2.0605,-2.0605,-2.0644,-2.0644,0.0,0.0,0.0,-2.1756,0.0,0.0,0.0,0.0,0.0,0.0,0.0,0.0,0.0,0.0,0.0,0.0,0.0,0.0,0.0,0.0,-2.35,-2.3032,-2.2995,-2.2285,-2.1499,0.0,0.0,-2.0644,-2.0605,-2.0605,-2.0605,-2.0605,-1.9775,-1.8935,-1.8037,-1.7229,-1.6378,-1.5506,-1.5506,-1.5982,-1.678,-1.678,-1.722,-1.7997,-1.7997,-1.8527,-1.9301,-1.9301,-1.9814,-2.0605,-2.0605,-2.0605,-2.0605,-3.281,-3.3264,-3.3859,0.0,-3.3902,-3.3242,0.0,0.0,0.0,0.0,-3.26,-3.27,-3.2398,-3.2398,-3.2398,-3.2398,-3.2398,0.0,0.0,0.0,0.0,-3.1708,-3.091,-3.0352,-3.0181,-3.0215,-3.0215,-3.0215,0.0,0.0,-2.9996,0.0,0.0,0.0,0.0,0.0,-2.6659,-2.5105,-2.4454,-2.4444,-2.357,-2.3276,-2.3363,0.0,-2.3091,-2.3091,-2.3091,-2.3091,-2.3052,-2.274,-2.2676,-2.2598,-2.2178,-2.1826,-2.1483,-2.1259,-2.0996,-2.0752,-2.0635,-2.0605,-2.075,-2.1346,-2.1049,-2.0828,0.0,0.0,0.0,0.0,0.0,0.0,0.0,0.0,0.0,0.0,0.0,0.0,0.0,0.0,0.0,-2.5312,0.0,0.0,-2.4981,-2.4264,-2.361,-2.3032,-2.2809,0.0,0.0,0.0,0.0,-2.0605,-2.0605,-2.0605,-2.0605,-2.0372,-1.9814,-1.8975,-1.8727,-1.8167,-1.7318,-1.7318,-1.7432,-1.7674,-1.7674,-1.7796,-1.7997,-1.7997,-1.8527,-1.9301,-1.9301,-1.9814,-2.0605,-2.0605,-2.0605,-2.0605,-3.299,0.0,0.0,-3.5395,0.0,0.0,-3.4044,-3.4288,0.0,-3.33,-3.3598,0.0,-3.325,-3.3201,-3.3201,-3.3201,-3.3201,0.0,-3.3518,0.0,0.0,-3.2645,-3.1698,-3.1229,-3.1448,-3.148,0.0,-3.148,0.0,0.0,-3.058,0.0,0.0,0.0,0.0,-2.711,0.0,-2.5966,-2.4893,-2.3894,-2.3864,-2.3657,0.0,-2.3144,-2.2984,-2.2818,-2.2818,-2.2818,-2.2789,-2.2598,-2.2393,-2.2168,-2.1738,-2.1385,-2.1231,-2.1421,-2.1288,-2.1203,-2.1538,-2.1652,-2.1766,-2.2209,-2.1718,-2.1423,-2.2537,-2.2209,-2.1983,0.0,-2.339,-2.3537,0.0,0.0,0.0,0.0,0.0,0.0,0.0,0.0,0.0,0.0,-2.5312,0.0,-2.5312,-2.4898,-2.4301,-2.3537,-2.3169,0.0,0.0,0.0,0.0,-2.0605,-2.0605,-2.0605,-2.0605,-2.0605,-2.0167,-1.9301,-1.9301,-1.8856,-1.7997,-1.7997,-1.8198,-1.8567,-1.8567,-1.8767,-1.9155,-1.9155,-1.945,-1.9854,-1.9854,-2.0167,-2.0605,-2.0605,-2.0605,-2.0605,-3.3474,0.0,0.0,0.0,0.0,0.0,0.0,-3.581,0.0,-3.3845,0.0,-3.4629,-3.3747,-3.3598,-3.3563,-3.3505,0.0,-3.3676,-3.4063,-3.2771,-3.2565,-3.3821,-3.2546,-3.222,-3.3068,-3.3124,-3.3043,0.0,0.0,0.0,0.0,0.0,0.0,0.0,0.0,0.0,0.0,-2.6976,-2.5746,-2.3917,-2.4541,-2.4157,-2.3221,-2.31,-2.2836,-2.2591,-2.2591,-2.2516,-2.2422,-2.2363,-2.2109,-2.176,-2.14,-2.1262,-2.1382,-2.1803,-2.1956,-2.2096,-2.2809,-2.2995,-2.3021,-2.3132,-2.2547,-2.2312,-2.3781,-2.3537,-2.3206,-2.3938,-2.4671,-2.4755,0.0,0.0,0.0,0.0,0.0,0.0,0.0,0.0,0.0,0.0,0.0,0.0,0.0,0.0,0.0,0.0,0.0,0.0,0.0,0.0,0.0,-2.0605,-2.0605,-2.0605,-2.0605,0.0,-2.0206,-1.946,-1.946,-1.9094,-1.8359,-1.8359,-1.8767,-1.946,-1.946,-1.9893,-2.0605,-2.0605,-2.0605,-2.0605,-2.0605,-2.0605,-2.0605,-2.0605,-2.0605,-2.0605,0.0,0.0,0.0,0.0,0.0,-3.6358,-3.6156,-3.6263,-3.6263,-3.5918,-3.6013,-3.6061,-3.587,-3.581,-3.5637,-3.5145,-3.5108,0.0,0.0,0.0,0.0,-3.3909,-3.3227,-3.2939,-3.3124,-3.3124,-3.2842,0.0,0.0,0.0,0.0,0.0,0.0,0.0,0.0,0.0,-2.6894,-2.7395,0.0,-2.5893,-2.4925,-2.4313,-2.3908,-2.2948,-2.2765,-2.2992,-2.2992,-2.2561,-2.1943,-2.1582,-2.1366,-2.139,-2.1621,-2.1699,-2.1831,-2.2569,-2.2809,-2.2809,-2.2957,-2.2995,-2.3132,-2.3756,-2.3353,-2.3021,-2.3891,-2.3537,-2.3206,-2.3938,-2.4228,-2.4409,-2.4826,0.0,0.0,0.0,0.0,0.0,0.0,0.0,0.0,0.0,0.0,-2.5312,0.0,0.0,0.0,0.0,0.0,0.0,0.0,0.0,0.0,0.0,-2.0605,0.0,0.0,0.0,-2.0527,-2.0362,-2.0362,-2.0284,-2.0118,-2.0118,-2.0245,-2.0362,-2.0362,-2.045,-2.0605,-2.0605,-2.0605,-2.0605,-2.0605,-2.0605,-2.0605,-2.0605,-2.0605,-2.0605,0.0,0.0,0.0,0.0,0.0,0.0,0.0,-3.5504,-3.5717,-3.6329,-3.6119,-3.5931,-3.5931,-3.568,-3.5403,-3.5094,-3.5069,-3.4843,-3.4336,-3.4048,-3.3771,-3.3483,-3.3262,-3.3124,-3.3124,-3.278,-3.2491,-3.2215,0.0,0.0,0.0,0.0,0.0,0.0,0.0,-2.7931,0.0,0.0,0.0,-2.5716,-2.5552,-2.4981,-2.4156,-2.3586,-2.3386,-2.3345,-2.3345,-2.299,-2.2478,-2.2439,-2.2333,-2.2171,-2.2359,-2.2435,-2.2574,-2.3353,-2.3573,-2.3647,-2.4095,-2.4204,-2.4276,-2.4636,-2.412,-2.3756,-2.4564,-2.412,-2.3793,-2.4564,-2.4707,-2.4826,-2.5241,-2.5312,0.0,0.0,0.0,0.0,0.0,0.0,-2.5312,0.0,0.0,0.0,0.0,0.0,0.0,0.0,0.0,0.0,0.0,0.0,0.0,0.0,0.0,0.0,0.0,0.0,0.0,-2.0605,-2.0605,-2.0605,-2.0605,-2.0605,-2.0605,-2.0605,-2.0605,-2.0605,-2.0605,-2.0605,-2.0605,-2.0605,-2.0605,-2.0605,-2.0605,-2.0605,-2.0605,-2.0605,0.0,-3.4462,0.0,0.0,-3.532,0.0,-3.4743,-3.468,-3.5027,-3.594,-3.5629,-3.532,-3.532,-3.4944,-3.4675,-3.4562,-3.455,-3.4311,-3.3759,-3.3721,-3.3533,-3.3136,-3.3124,-3.3061,-3.2893,-3.2441,-3.2102,0.0,0.0,0.0,0.0,0.0,0.0,0.0,0.0,0.0,0.0,0.0,-2.6754,-2.5438,-2.6029,-2.5475,-2.4314,-2.4157,-2.3913,-2.3726,-2.3726,-2.3623,-2.353,-2.3861,-2.3515,-2.3032,-2.3169,-2.3243,-2.339,-2.412,-2.4373,-2.4492,-2.5123,-2.5312,-2.5312,-2.5312,-2.4826,-2.4528,-2.5158,-2.4826,-2.4528,-2.5158,-2.5312,-2.5312,-2.5312,-2.5312,0.0,0.0,0.0,0.0,0.0,0.0,0.0,0.0,0.0,0.0,-2.5312,0.0,0.0,0.0,0.0,0.0,0.0,0.0,0.0,0.0,0.0,-2.0789,-2.0605,0.0,-2.0605,-2.0605,-2.0605,-2.0605,-2.0605,-2.0605,-2.0605,-2.0605,-2.0605,-2.0605,-2.0605,-2.0605,-2.0605,-2.0605,-2.0605,-2.0605,-2.0605,-2.0605,-2.0605,-2.0605,0.0,0.0,0.0,0.0,0.0,0.0,-3.4726,-3.468,-3.4763,-3.4864,-3.4826,-3.4756,-3.4756,-3.4705,-3.4525,-3.4022,-3.3972,-3.3746,-3.3194,-3.3156,-3.3131,-3.3124,-3.3124,-3.283,-3.2303,-3.224,-3.1738,0.0,0.0,-3.0015,0.0,0.0,0.0,0.0,0.0,0.0,0.0,-2.7958,-2.7464,-2.6655,-2.5943,-2.5341,-2.4747,-2.3952,-2.3831,-2.4043,-2.4043,-2.4503,-2.5099,-2.5147,-2.4202,-2.3106,-2.3793,-2.4,-2.4156,-2.4933,-2.5194,-2.5194,-2.5264,-2.5312,-2.5312,-2.5312,-2.5229,-2.5194,-2.5264,-2.5229,-2.5194,-2.5264,-2.5312,-2.5312,-2.5312,-2.5312,-2.5312,0.0,0.0,0.0,0.0,0.0,-2.5312,-2.5312,0.0,0.0,0.0,-2.5312,0.0,0.0,-2.5241,0.0,0.0,0.0,0.0,-2.0673,0.0,-2.1357,-2.0605,-2.0605,-2.0605,-2.0605,-2.0605,-2.0605,-2.0605,-2.0605,-2.0605,-2.0605,-2.0605,-2.0605,-2.0605,-2.0605,-2.0605,-2.0605,-2.0605,-2.0605,-2.0605,-2.0605,-2.0605,-2.0605,0.0,0.0,0.0,0.0,0.0,0.0,0.0,-3.3734,-3.3734,-3.3734,-3.4022,-3.4223,-3.4223,-3.3935,-3.3646,-3.342,-3.3407,-3.3319,-3.3093,-3.3124,-3.2918,-3.2579,-3.2554,-3.2303,-3.1725,-3.1411,-3.1047,0.0,0.0,0.0,0.0,0.0,0.0,0.0,0.0,-2.8229,-2.7527,-2.7388,-2.6961,-2.6393,-2.6048,-2.5569,-2.5097,-2.4759,-2.4703,-2.4826,-2.4826,-2.5052,-2.5312,-2.5312,-2.4898,-2.442,-2.4719,-2.4826,-2.4898,-2.5194,-2.5312,-2.5312,-2.5312,-2.5312,-2.5312,-2.5312,-2.5312,-2.5312,-2.5312,-2.5312,-2.5312,-2.5312,-2.5312,-2.5312,-2.5312,-2.5312,-2.5312,-2.5312,0.0,0.0,0.0,0.0,0.0,-2.5312,0.0,-2.5312,0.0,0.0,0.0,0.0,0.0,0.0,0.0,0.0,0.0,-2.1357,0.0,-2.0944,-2.0605,-2.0605,-2.0605,-2.0605,-2.0605,-2.0605,-2.0605,-2.0605,-2.0605,-2.0605,-2.0605,-2.0605,-2.0605,-2.0605,-2.0605,-2.0605,-2.0605,-2.0605,-2.0605,-2.0605,-2.0605,-2.0605,-3.3176,0.0,-3.3427,0.0,-3.3658,-3.3533,-3.3174,-3.3124,-3.3124,-3.3124,-3.342,-3.3658,-3.3658,-3.3307,-3.3124,-3.3124,-3.3124,-3.3006,-3.283,-3.283,-3.2566,-3.2001,-3.1976,0.0,-3.1091,-3.0716,-3.0401,-3.0238,-2.9811,0.0,0.0,0.0,0.0,0.0,-2.8048,-2.7553,-2.6856,-2.672,-2.637,-2.5865,-2.5865,-2.5636,-2.5312,-2.5312,-2.5312,-2.5312,-2.5312,-2.5312,-2.5312,-2.5312,-2.5312,-2.5312,-2.5312,-2.5312,-2.5312,-2.5312,-2.5312,-2.5312,-2.5312,-2.5312,-2.5312,-2.5312,-2.5312,-2.5312,-2.5312,-2.5312,-2.5312,-2.5312,-2.5312,-2.5312,-2.5312,-2.5312,-2.5312,-2.5312,0.0,0.0,0.0,-2.5312,0.0,0.0,-2.5312,-2.5312,-2.5312,-2.5312,0.0,0.0,0.0,0.0,0.0,0.0,0.0,0.0,0.0,0.0,0.0,-2.0605,-2.0605,-2.0605,-2.0605,-2.0605,-2.0605,-2.0605,-2.0605,-2.0605,-2.0605,-2.0605,-2.0605,-2.0605,-2.0605,-2.0605,-2.0605,-2.0605,-2.0605,-2.0605,-2.0605,-2.0605,-3.2723,-3.2909,-3.3124,-3.3124,-3.3124,-3.3124,-3.3124,-3.3124,-3.3124,-3.3124,-3.3124,-3.3124,-3.3124,-3.3124,-3.3124,-3.3124,-3.3124,-3.283,-3.2265,-3.2227,-3.1976,0.0,0.0,-3.1066,-3.0328,-3.0316,-2.999,-2.9431,0.0,0.0,-2.8724,0.0,-2.7421,-2.7211,-2.7211,-2.6796,-2.6105,-2.6105,-2.5805,-2.5312,-2.5312,-2.5312,-2.5312,-2.5312,-2.5312,-2.5312,-2.5312,-2.5312,-2.5312,-2.5312,-2.5312,-2.5312,-2.5312,-2.5312,-2.5312,-2.5312,-2.5312,-2.5312,-2.5312,-2.5312,-2.5312,-2.5312,-2.5312,-2.5312,-2.5312,-2.5312,-2.5312,-2.5312,-2.5312,-2.5312,-2.5312,-2.5312,-2.5312,-2.5312,0.0,0.0,0.0,0.0,0.0,-2.5312,-2.5312,-2.5312,-2.5312,-2.5312,0.0,0.0,0.0,0.0,0.0,0.0,0.0,-2.1869,-2.2547,0.0,-2.0605,-2.0605,-2.0605,-2.0605,-2.0605,-2.0605,-2.0605,-2.0605,-2.0605,-2.0605,-2.0605,-2.0605,-2.0605,-2.0605,-2.0605,-2.0605,-2.0605,-2.0605,-2.0605,-2.0605,-2.0605,-2.0605,-3.2907,-3.3025,-3.3124,-3.3124,-3.3124,-3.3124,-3.3124,-3.3124,-3.3124,-3.3124,-3.2729,-3.2491,-3.2491,-3.2491,-3.2491,0.0,-3.2026,-3.1656,0.0,-3.1332,-3.1001,-3.0481,-3.0468,-3.0155,-2.9492,-2.9468,-2.9382,-2.9197,0.0,0.0,0.0,-2.7791,-2.7189,-2.6664,-2.6664,-2.6251,-2.5564,-2.5564,-2.5468,-2.5312,-2.5312,-2.5312,-2.5312,-2.5312,-2.5312,-2.5312,-2.5312,-2.5312,-2.5312,-2.5312,-2.5312,-2.5312,-2.5312,-2.5312,-2.5312,-2.5312,-2.5312,-2.5312,-2.5312,-2.5312,-2.5312,-2.5312,-2.5312,-2.5312,-2.5312,-2.5312,-2.5312,-2.5312,-2.5312,-2.5312,-2.5312,-2.5312,-2.5312,-2.5312,-2.5312,0.0,-2.5312,0.0,-2.5312,-2.5312,-2.5312,-2.5312,-2.5312,-2.5312,0.0,0.0,0.0,0.0,0.0,0.0,0.0,0.0,-2.3132,0.0,-2.1423,-2.1423,-2.1126,-2.0605,-2.0605,-2.0605,-2.0605,-2.0605,-2.0605,-2.0605,-2.0605,-2.0905,-2.1385,-2.0828,-2.0934,-2.1346,-2.0828,-2.0605,-2.0605,-2.0605,-2.0605,-2.0683,-3.2378,-3.2441,-3.2441,-3.2441,-3.2441,-3.2441,-3.2441,-3.2441,-3.2441,-3.2441,-3.2127,-3.1901,-3.1901,-3.1642,0.0,-3.1888,-3.1476,-3.1119,-3.092,-3.0732,-3.0362,-2.9791,-2.9687,-2.9447,-2.9013,-2.9013,0.0,-2.9013,-2.8844,-2.8327,-2.748,-2.7275,-2.6761,-2.5997,-2.6068,-2.5803,-2.5312,-2.5312,-2.5312,-2.5312,-2.5312,-2.5312,-2.5312,-2.5312,-2.5312,-2.5312,-2.5312,-2.5312,-2.5312,-2.5312,-2.5312,-2.5312,-2.5312,-2.5312,-2.5312,-2.5312,-2.5312,-2.5312,-2.5312,-2.5312,-2.5312,-2.5312,-2.5312,-2.5312,-2.5312,-2.5312,-2.5312,-2.5312,-2.5312,-2.5312,-2.5312,-2.5312,-2.5312,-2.5312,-2.5312,-2.5312,-2.5312,0.0,-2.5312,0.0,0.0,0.0,0.0,-2.5312,-2.5312,0.0,0.0,0.0,0.0,0.0,0.0,-2.4108,-2.3635,0.0,-2.2247,-2.1945,-2.1538,-2.1049,-2.075,-2.0605,-2.0605,-2.0605,-2.075,-2.1049,-2.1049,-2.1357,-2.1766,-2.128,-2.1165,-2.1308,-2.0789,-2.0789,-2.1049,-2.1049,-2.1242,-2.1576,-3.1386,-3.1386,-3.1386,0.0,-3.1345,0.0,-3.1386,-3.1386,-3.1386,-3.1386,-3.1361,-3.1336,-3.1336,-3.0698,-3.0533,-3.1182,0.0,0.0,0.0,-3.0306,-2.9938,-2.9365,-2.9157,-2.8961,-2.8803,-2.8803,-2.874,-2.8703,-2.8374,-2.7492,-2.6093,-2.6444,-2.6128,-2.5312,-2.55,-2.55,-2.5312,-2.5312,-2.5312,-2.5312,-2.5312,-2.5312,-2.5312,-2.5312,-2.5312,-2.5312,-2.5312,-2.5312,-2.5312,-2.5312,-2.5312,-2.5312,-2.5312,-2.5312,-2.5312,-2.5312,-2.5312,-2.5312,-2.5312,-2.5312,-2.5312,-2.5312,-2.5312,-2.5312,-2.5312,-2.5312,-2.5312,-2.5312,-2.5312,-2.5312,-2.5312,-2.5312,-2.5312,-2.5312,-2.5312,-2.5312,-2.5312,-2.5312,-2.5312,0.0,0.0,0.0,-2.5312,-2.5312,-2.5312,0.0,0.0,0.0,0.0,0.0,-2.4969,-2.4228,-2.4181,-2.3829,-2.3058,-2.2322,-2.1945,-2.1869,-2.1126,-2.075,-2.075,-2.075,-2.1165,-2.1869,-2.1869,-2.1907,-2.1945,-2.1832,-2.1423,-2.0828,-2.0722,-2.1165,-2.1869,-2.1869,-2.236,-2.3032,0.0,0.0,-3.1165,-3.1165,-3.103,-3.0989,-3.1165,-3.1165,-3.1235,-3.1386,-3.1047,-3.0796,-3.0796,-3.0267,-2.99,-2.9882,-2.9737,-2.9581,-2.9458,-2.9275,-2.9016,-2.8749,-2.8669,-2.863,-2.8578,-2.8578,-2.8385,-2.7948,-2.7483,-2.6841,-2.6093,-2.5792,-2.5503,-2.5312,-2.5347,-2.5347,-2.5312,-2.5312,-2.5312,-2.5312,-2.5312,-2.5312,-2.5312,-2.5312,-2.5312,-2.5312,-2.5312,-2.5312,-2.5312,-2.5312,-2.5312,-2.5312,-2.5312,-2.5312,-2.5312,-2.5312,-2.5312,-2.5312,-2.5312,-2.5312,-2.5312,-2.5312,-2.5312,-2.5312,-2.5312,-2.5312,-2.5312,-2.5312,-2.5312,-2.5312,-2.5312,-2.5312,-2.5312,-2.5312,-2.5312,-2.5312,-2.5312,-2.5312,-2.5312,0.0,-2.5312,-2.5312,-2.5312,-2.5312,-2.5312,0.0,0.0,0.0,0.0,-2.5312,-2.5194,-2.5016,-2.5016,-2.4636,-2.3854,-2.3635,-2.3268,-2.2697,-2.251,-2.2435,-2.2435,-2.2435,-2.2547,-2.2734,-2.2734,-2.3021,-2.3452,-2.2274,-2.2387,-2.3158,-2.1983,-2.2021,-2.2734,-2.2734,-2.2846,-2.3058,-3.0411,-3.0393,-3.0285,-3.0217,-3.0084,-3.0044,-3.0177,-3.0177,-3.0205,-3.0313,-3.0117,-2.9903,-2.9903,-2.9551,-2.9326,-2.9275,-2.9236,-2.9197,-2.9091,-2.8922,-2.8764,-2.8657,-2.855,-2.851,-2.851,-2.851,-2.8138,-2.7318,-2.7042,-2.6489,-2.5733,-2.5444,-2.5312,-2.5312,-2.5312,-2.5312,-2.5312,-2.5312,-2.5312,-2.5312,-2.5312,-2.5312,-2.5312,-2.5312,-2.5312,-2.5312,-2.5312,-2.5312,-2.5312,-2.5312,-2.5312,-2.5312,-2.5312,-2.5312,-2.5312,-2.5312,-2.5312,-2.5312,-2.5312,-2.5312,-2.5312,-2.5312,-2.5312,-2.5312,-2.5312,-2.5312,-2.5312,-2.5312,-2.5312,-2.5312,-2.5312,-2.5312,-2.5312,-2.5312,-2.5312,-2.5312,-2.5312,-2.5312,-2.5312,-2.5312,-2.5312,-2.5312,-2.5312,-2.5312,-2.5312,-2.5312,-2.5312,0.0,-2.5312,-2.5312,-2.5312,-2.5312,-2.5312,-2.5087,-2.4636,-2.4264,-2.372,-2.2995,-2.2995,-2.2995,-2.2995,-2.2995,-2.3169,-2.35,-2.35,-2.372,-2.4047,-2.3195,-2.3169,-2.3489,-2.2697,-2.2835,-2.35,-2.35,-2.372,-2.4095,-2.9341,-2.9341,-2.9263,-2.9079,-2.9013,-2.9013,-2.9052,-2.9052,-2.9052,-2.9091,-2.9091,-2.9091,-2.9091,-2.8961,-2.8882,-2.9052,-2.9223,-2.9236,-2.9052,-2.8882,-2.8803,-2.8764,-2.8578,-2.851,-2.851,-2.8426,-2.787,-2.6898,-2.6813,-2.6261,-2.5312,-2.5312,-2.5312,-2.5312,-2.5312,-2.5312,-2.5312,-2.5312,-2.5312,-2.5312,-2.5312,-2.5312,-2.5312,-2.5312,-2.5312,-2.5312,-2.5312,-2.5312,-2.5312,-2.5312,-2.5312,-2.5312,-2.5312,-2.5312,-2.5312,-2.5312,-2.5312,-2.5312,-2.5312,-2.5312,-2.5312,-2.5312,-2.5312,-2.5312,-2.5312,-2.5312,-2.5312,-2.5312,-2.5312,-2.5312,-2.5312,-2.5312,-2.5312,-2.5312,-2.5312,-2.5312,-2.5312,0.0,-2.5312,-2.5312,-2.5312,-2.5312,-2.5312,-2.5312,-2.5312,-2.5312,-2.5312,-2.5312,-2.5312,-2.5312,-2.5312,-2.5312,-2.5312,-2.5312,-2.5312,-2.4636,-2.3975,-2.3364,-2.3364,-2.3364,-2.3364,-2.3364,-2.3683,-2.4264,-2.4264,-2.4264,-2.4264,-2.4156,-2.3793,-2.3327,-2.3206,-2.361,-2.4264,-2.4264,-2.466,-2.5192,-2.917,-2.9,-2.887,-2.8831,-2.8697,-2.8669,-2.8843,-2.8843,-2.8922,-2.9091,-2.9091,-2.9091,-2.9091,-2.9052,-2.9013,-2.8882,-2.8882,-2.8882,-2.8843,-2.8843,-2.8724,-2.855,-2.851,-2.851,-2.851,-2.8077,-2.751,-2.6898,-2.6466,-2.5913,-2.5312,-2.5312,-2.5312,-2.5312,-2.5312,-2.5312,-2.5312,-2.5312,-2.5312,-2.5312,-2.5312,-2.5312,-2.5312,-2.5312,-2.5312,-2.5312,-2.5312,-2.5312,-2.5312,-2.5312,-2.5312,-2.5312,-2.5312,-2.5312,-2.5312,-2.5312,-2.5312,-2.5312,-2.5312,-2.5312,-2.5312,-2.5312,-2.5312,-2.5312,-2.5312,-2.5312,-2.5312,-2.5312,-2.5312,-2.5312,-2.5312,-2.5312,-2.5312,-2.5312,-2.5312,-2.5312,-2.5312,0.0,-2.5312,-2.5312,-2.5312,-2.5312,-2.5312,-2.5312,-2.5312,-2.5312,-2.5312,-2.5312,-2.5312,-2.5312,-2.5312,-2.5312,-2.5312,-2.5312,-2.5312,-2.5194,-2.5052,-2.4945,-2.4945,-2.4945,-2.4945,-2.4945,-2.5016,-2.5123,-2.5123,-2.5123,-2.5052,-2.4373,-2.4409,-2.4862,-2.4192,-2.442,-2.5123,-2.5123,-2.4918,-2.4604,-2.8494,-2.8687,-2.8764,-2.8657,-2.8538,-2.855,-2.8618,-2.8657,-2.8657,-2.8736,-2.8788,-2.8788,-2.8788,-2.8788,-2.8736,-2.8657,-2.8657,-2.8657,-2.8657,-2.8657,-2.8618,-2.851,-2.851,-2.851,-2.851,-2.7993,-2.7426,-2.6898,-2.637,-2.5829,-2.5312,-2.5312,-2.5312,-2.5312,-2.5312,-2.5312,-2.5312,-2.5312,-2.5312,-2.5312,-2.5312,-2.5312,-2.5312,-2.5312,-2.5312,-2.5312,-2.5312,-2.5312,-2.5312,-2.5312,-2.5312,-2.5312,-2.5312,-2.5312,-2.5312,-2.5312,-2.5312,-2.5312,-2.5312,-2.5312,-2.5312,-2.5312,-2.5312,-2.5312,-2.5312,-2.5312,-2.5312,-2.5312,-2.5312,-2.5312,-2.5312,-2.5312,-2.5312,-2.5312,-2.5312,0.0,0.0,-2.5312,-2.5312,-2.5312,-2.5312,-2.5312,-2.5312,-2.5312,-2.5312,-2.5312,-2.5312,-2.5312,-2.5312,-2.5312,-2.5312,-2.5312,-2.5312,-2.5312,-2.5312,-2.5312,-2.5312,-2.5312,-2.5312,-2.5312,-2.5312,-2.5312,-2.5312,-2.5312,-2.5312,-2.5312,-2.5276,-2.4898,-2.4969,-2.524,-2.459,-2.4553,-2.4855,-2.4578,-2.4326,-2.4109,-2.7742,-2.807,-2.8358,-2.8306,-2.833,-2.8366,-2.8498,-2.851,-2.851,-2.851,-2.851,-2.851,-2.851,-2.851,-2.851,-2.851,-2.851,-2.851,-2.851,-2.851,-2.851,-2.851,-2.839,-2.833,-2.833,-2.7681,-2.7152,-2.6693,-2.619,-2.5709,-2.5312,-2.5312,-2.5312,-2.5312,-2.5312,-2.5312,-2.5312,-2.5312,-2.5312,-2.5312,-2.5312,-2.5312,-2.5312,-2.5312,-2.5312,-2.5312,-2.5312,-2.5312,-2.5312,-2.5312,-2.5312,-2.5312,-2.5312,-2.5312,-2.5312,-2.5312,-2.5312,-2.5312,-2.5312,-2.5312,-2.5312,-2.5312,-2.5312,-2.5312,-2.5312,-2.5312,-2.5312,-2.5312,-2.5312,-2.5312,-2.5312,-2.5312,-2.5312,-2.5312,0.0,0.0,0.0,-2.5312,-2.5312,-2.5312,-2.5312,-2.5312,-2.5312,-2.5312,-2.5312,-2.5312,-2.5312,-2.5312,-2.5312,-2.5312,-2.5312,-2.5312,-2.5312,-2.5312,-2.5312,-2.5312,-2.5312,-2.5312,-2.5312,-2.5312,-2.5312,-2.5312,-2.5312,-2.5312,-2.5312,-2.5312,-2.53,-2.518,-2.5119,-2.5071,-2.4554,-2.435,-2.4302,-2.395,-2.3722,-2.3613,-2.6983,-2.7019,-2.72,-2.7654,-2.7777,-2.7945,-2.8438,-2.851,-2.851,-2.851,-2.851,-2.851,-2.851,-2.851,-2.851,-2.851,-2.851,-2.851,-2.851,-2.851,-2.851,-2.851,-2.8002,-2.7777,-2.7777,-2.6755,-2.6202,-2.6154,-2.5624,-2.5348,-2.5312,-2.5312,-2.5312,-2.5312,-2.5312,-2.5312,-2.5312,-2.5312,-2.5312,-2.5312,-2.5312,-2.5312,-2.5312,-2.5312,-2.5312,-2.5312,-2.5312,-2.5312,-2.5312,-2.5312,-2.5312,-2.5312,-2.5312,-2.5312,-2.5312,-2.5312,-2.5312,-2.5312,-2.5312,-2.5312,-2.5312,-2.5312,-2.5312,-2.5312,-2.5312,-2.5312,-2.5312,-2.5312,-2.5312,-2.5312,-2.5312,-2.5312,-2.5312,-2.5312,0.0,0.0,-2.5312,-2.5312,-2.5312,-2.5312,-2.5312,-2.5312,-2.5312,-2.5312,-2.5312,-2.5312,-2.5312,-2.5312,-2.5312,-2.5312,-2.5312,-2.5312,-2.5312,-2.5312,-2.5312,-2.5312,-2.5312,-2.5312,-2.5312,-2.5312,-2.5312,-2.5312,-2.5312,-2.5312,-2.5312,-2.5312,-2.5264,-2.4748,-2.4578,-2.4496,-2.4025,-2.3854,-2.3854,-2.3818,-2.3493,-2.3071,-2.6418,-2.6657,-2.6958,-2.7162,-2.7198,-2.7378,-2.7906,-2.7978,-2.8138,-2.8474,-2.851,-2.851,-2.851,-2.851,-2.851,-2.851,-2.851,-2.8366,-2.8041,-2.7978,-2.7978,-2.7978,-2.7798,-2.7534,-2.7198,-2.649,-2.6093,-2.6093,-2.5564,-2.5312,-2.5312,-2.5312,-2.5312,-2.5312,-2.5312,-2.5312,-2.5312,-2.5312,-2.5312,-2.5312,-2.5312,-2.5312,-2.5312,-2.5312,-2.5312,-2.5312,-2.5312,-2.5312,-2.5312,-2.5312,-2.5312,-2.5312,-2.5312,-2.5312,-2.5312,-2.5312,-2.5312,-2.5312,-2.5312,-2.5312,-2.5312,-2.5312,-2.5312,-2.5312,-2.5312,-2.5312,-2.5312,-2.5312,-2.5312,-2.5312,-2.5312,-2.5312,-2.5312,-2.5312,0.0,-2.5312,-2.5312,-2.5312,-2.5312,-2.5312,-2.5312,-2.5312,-2.5312,-2.5312,-2.5312,-2.5312,-2.5312,-2.5312,-2.5312,-2.5312,-2.5312,-2.5312,-2.5312,-2.5312,-2.5312,-2.5312,-2.5312,-2.5312,-2.5312,-2.5312,-2.5312,-2.5312,-2.5312,-2.5312,-2.5312,-2.5119,-2.4807,-2.4568,-2.4338,-2.4001,-2.3517,-2.3312,-2.3276,-2.2939,-2.2666,-2.2486,-2.5853,-2.6154,-2.6441,-2.6609,-2.6633,-2.6813,-2.7354,-2.7438,-2.757,-2.7969,-2.8017,-2.8017,-2.8017,-2.8017,-2.8017,-2.8017,-2.8017,-2.7822,-2.7462,-2.7438,-2.7438,-2.7438,-2.7308,-2.7043,-2.6683,-2.6129,-2.5853,-2.5853,-2.5492,-2.5312,-2.5312,-2.5312,-2.5312,-2.5312,-2.5312,-2.5312,-2.5312,-2.5312,-2.5312,-2.5312,-2.5312,-2.5312,-2.5312,-2.5312,-2.5312,-2.5312,-2.5312,-2.5312,-2.5312,-2.5312,-2.5312,-2.5312,-2.5312,-2.5312,-2.5312,-2.5312,-2.5312,-2.5312,-2.5312,-2.5192,-2.5107,-2.5264,-2.5312,-2.5312,-2.5312,-2.518,-2.5059,-2.5059,-2.4939,-2.4819,-2.4819,-2.4819,-2.4819,-2.4819,-2.4819,-2.4819,-2.4819,-2.4819,-2.4819,-2.4819,-2.4819,-2.4819,-2.4819,-2.4963,-2.5059,-2.5059,-2.5216,-2.5312,-2.5312,-2.5312,-2.5312,-2.5312,-2.5312,-2.5312,-2.5312,-2.5312,-2.5312,-2.5312,-2.5312,-2.5312,-2.5312,-2.5312,-2.5312,-2.53,-2.5131,-2.482,-2.446,-2.4169,-2.3833,-2.3505,-2.2975,-2.2739,-2.269,-2.233,-2.2197,-2.2197,-2.5312,-2.5312,-2.548,-2.5997,-2.6093,-2.6274,-2.6801,-2.6885,-2.6885,-2.6898,-2.6898,-2.6898,-2.6898,-2.6898,-2.6898,-2.6898,-2.6898,-2.6898,-2.6885,-2.6885,-2.6885,-2.6885,-2.6394,-2.6093,-2.6093,-2.5576,-2.5312,-2.5312,-2.5312,-2.5312,-2.5312,-2.5312,-2.5312,-2.5312,-2.5312,-2.5312,-2.5312,-2.5312,-2.5312,-2.5312,-2.5312,-2.5312,-2.5312,-2.5312,-2.5312,-2.5312,-2.5312,-2.5312,-2.5312,-2.5312,-2.5312,-2.5312,-2.5312,-2.5312,-2.53,-2.53,-2.53,-2.53,-2.53,-2.4915,-2.4604,-2.5168,-2.53,-2.53,-2.53,-2.4891,-2.4472,-2.4472,-2.4109,-2.3806,-2.3806,-2.3806,-2.3806,-2.3806,-2.3806,-2.3806,-2.3806,-2.3806,-2.3806,-2.3806,-2.3806,-2.3806,-2.3806,-2.4218,-2.4472,-2.4472,-2.4999,-2.53,-2.53,-2.53,-2.53,-2.53,-2.5312,-2.5312,-2.5312,-2.5312,-2.5312,-2.5312,-2.5312,-2.5312,-2.5312,-2.53,-2.53,-2.5264,-2.4747,-2.4472,-2.4388,-2.34,-2.3011,-2.2919,-2.2402,-2.2197,-2.2197,-2.2197,-2.2197,-2.2197,-2.5312,-2.5312,-2.536,-2.5516,-2.554,-2.5721,-2.6262,-2.6346,-2.649,-2.6837,-2.6898,-2.6898,-2.6898,-2.6898,-2.6898,-2.6898,-2.6898,-2.6729,-2.637,-2.5997,-2.5793,-2.5793,-2.5985,-2.5925,-2.5552,-2.5384,-2.5312,-2.5312,-2.5312,-2.5312,-2.5312,-2.5312,-2.5312,-2.5312,-2.5312,-2.5312,-2.5312,-2.5312,-2.5312,-2.5312,-2.5312,-2.5312,-2.5312,-2.5312,-2.5312,-2.5312,-2.5312,-2.5312,-2.5312,-2.5312,-2.5312,-2.5312,-2.5312,-2.5059,-2.4759,-2.4759,-2.4506,-2.4263,-2.4263,-2.4143,-2.4121,-2.4626,-2.4482,-2.4263,-2.4263,-2.4109,-2.3989,-2.3989,-2.3914,-2.3806,-2.3806,-2.3806,-2.3806,-2.3806,-2.3806,-2.3806,-2.3806,-2.3806,-2.3806,-2.3806,-2.3806,-2.3806,-2.3806,-2.3938,-2.3989,-2.3989,-2.4167,-2.4263,-2.4263,-2.4566,-2.4759,-2.4759,-2.5107,-2.5312,-2.5312,-2.5312,-2.5312,-2.5312,-2.5312,-2.5312,-2.53,-2.4927,-2.4759,-2.4723,-2.4218,-2.3785,-2.3412,-2.3099,-2.2794,-2.2414,-2.2258,-2.2197,-2.2197,-2.2197,-2.2197,-2.2197,-2.5312,-2.5312,-2.5312,-2.5312,-2.5312,-2.542,-2.5733,-2.5781,-2.5901,-2.6213,-2.6261,-2.6261,-2.6261,-2.6261,-2.6261,-2.6261,-2.6261,-2.6142,-2.5805,-2.5492,-2.5312,-2.5312,-2.5612,-2.5636,-2.5312,-2.5312,-2.5312,-2.5312,-2.5312,-2.5312,-2.5312,-2.5312,-2.5312,-2.5312,-2.5312,-2.5312,-2.5312,-2.5312,-2.5312,-2.5312,-2.5312,-2.5312,-2.5312,-2.5312,-2.5312,-2.5312,-2.5312,-2.5312,-2.5312,-2.5312,-2.5168,-2.4963,-2.4759,-2.4482,-2.4218,-2.4218,-2.4013,-2.3806,-2.3806,-2.3649,-2.3565,-2.3833,-2.3833,-2.3806,-2.3806,-2.3637,-2.3493,-2.3493,-2.3324,-2.318,-2.318,-2.318,-2.318,-2.318,-2.318,-2.318,-2.318,-2.318,-2.318,-2.318,-2.318,-2.318,-2.318,-2.3372,-2.3577,-2.3782,-2.3806,-2.3806,-2.3806,-2.4061,-2.4218,-2.4218,-2.453,-2.4699,-2.4699,-2.4699,-2.4795,-2.4987,-2.4987,-2.4891,-2.4699,-2.4374,-2.4218,-2.4194,-2.3722,-2.3312,-2.2999,-2.2782,-2.2486,-2.2197,-2.2197,-2.2197,-2.2197,-2.2197,-2.2197,-2.2197,-2.5312,-2.5312,-2.5312,-2.5312,-2.5312,-2.5312,-2.5312,-2.5312,-2.5312,-2.5312,-2.5312,-2.5312,-2.5312,-2.5312,-2.5312,-2.5312,-2.5312,-2.5312,-2.5312,-2.5312,-2.5312,-2.5312,-2.5312,-2.5312,-2.5312,-2.5312,-2.5312,-2.5312,-2.5312,-2.5312,-2.5312,-2.5312,-2.5312,-2.5312,-2.5312,-2.5312,-2.5312,-2.5312,-2.5312,-2.5312,-2.5312,-2.5312,-2.5312,-2.5312,-2.5312,-2.53,-2.5252,-2.524,-2.5228,-2.518,-2.4855,-2.4374,-2.395,-2.377,-2.3734,-2.3734,-2.3697,-2.3661,-2.3661,-2.3312,-2.2939,-2.2939,-2.3312,-2.3661,-2.3661,-2.3288,-2.2939,-2.2939,-2.2522,-2.2197,-2.2197,-2.2197,-2.2197,-2.2197,-2.2197,-2.2197,-2.2197,-2.2197,-2.2197,-2.2197,-2.2197,-2.2197,-2.2197,-2.263,-2.3144,-2.3625,-2.3661,-2.3661,-2.3661,-2.371,-2.3734,-2.3734,-2.3782,-2.3806,-2.3806,-2.3806,-2.4001,-2.4458,-2.4458,-2.4206,-2.3806,-2.3758,-2.3734,-2.3697,-2.3168,-2.2939,-2.2903,-2.239,-2.2197,-2.2197,-2.2197,-2.2197,-2.2197,-2.2197,-2.2197,-2.2197,-2.5312,-2.5312,-2.5312,-2.5312,-2.5312,-2.5312,-2.5312,-2.5312,-2.5312,-2.5312,-2.5312,-2.5312,-2.5312,-2.5312,-2.5312,-2.5312,-2.5312,-2.5312,-2.5312,-2.5312,-2.5312,-2.5312,-2.5312,-2.5312,-2.5312,-2.5312,-2.5312,-2.5312,-2.5312,-2.5312,-2.5312,-2.5312,-2.5312,-2.5312,-2.5312,-2.5312,-2.5312,-2.5312,-2.5312,-2.5312,-2.5312,-2.5312,-2.5312,-2.5312,-2.5312,-2.5252,-2.4808,-2.4652,-2.4638,-2.4242,-2.4059,-2.395,-2.3842,-2.3517,-2.318,-2.318,-2.2891,-2.2566,-2.2566,-2.245,-2.2366,-2.2366,-2.245,-2.2566,-2.2566,-2.245,-2.2366,-2.2366,-2.227,-2.2197,-2.2197,-2.2197,-2.2197,-2.2197,-2.2197,-2.2197,-2.2197,-2.2197,-2.2197,-2.2197,-2.2197,-2.2197,-2.2197,-2.2294,-2.2414,-2.2522,-2.2566,-2.2566,-2.2566,-2.2963,-2.318,-2.318,-2.3589,-2.3806,-2.3806,-2.3806,-2.3854,-2.3962,-2.3962,-2.3914,-2.3794,-2.3372,-2.318,-2.3156,-2.2594,-2.2366,-2.2354,-2.2246,-2.2197,-2.2197,-2.2197,-2.2197,-2.2197,-2.2197,-2.2197,-2.2197,-2.5312,-2.5312,-2.5312,-2.5312,-2.5312,-2.5312,-2.5312,-2.5312,-2.5312,-2.5312,-2.5312,-2.5312,-2.5312,-2.5312,-2.5312,-2.5312,-2.5312,-2.5312,-2.5312,-2.5312,-2.5312,-2.5312,-2.5312,-2.5312,-2.5312,-2.5312,-2.5312,-2.5312,-2.5312,-2.5312,-2.5312,-2.5312,-2.5312,-2.5312,-2.5312,-2.5312,-2.5312,-2.5312,-2.5312,-2.5312,-2.5312,-2.5312,-2.5288,-2.5023,-2.4927,-2.4867,-2.435,-2.4157,-2.4085,-2.3601,-2.3421,-2.3384,-2.3132,-2.2823,-2.2606,-2.2606,-2.2402,-2.2197,-2.2197,-2.2197,-2.2197,-2.2197,-2.2197,-2.2197,-2.2197,-2.2197,-2.2197,-2.2197,-2.2197,-2.2197,-2.2197,-2.2197,-2.2197,-2.2197,-2.2197,-2.2197,-2.2197,-2.2197,-2.2197,-2.2197,-2.2197,-2.2197,-2.2197,-2.2197,-2.2197,-2.2197,-2.2197,-2.2197,-2.2197,-2.245,-2.2606,-2.2606,-2.2903,-2.3047,-2.3047,-2.3047,-2.3047,-2.3047,-2.3312,-2.33,-2.3035,-2.2758,-2.2606,-2.2582,-2.2306,-2.2197,-2.2197,-2.2197,-2.2197,-2.2197,-2.2197,-2.2197,-2.2197,-2.2197,-2.2197,-2.2197,-2.5312,-2.5312,-2.5312,-2.5312,-2.5312,-2.5312,-2.5312,-2.5312,-2.5312,-2.5312,-2.5312,-2.5312,-2.5312,-2.5312,-2.5312,-2.5312,-2.5312,-2.5312,-2.5312,-2.5312,-2.5312,-2.5312,-2.5312,-2.5312,-2.5312,-2.5312,-2.5312,-2.5312,-2.5312,-2.5312,-2.5312,-2.5312,-2.5312,-2.5312,-2.5312,-2.5312,-2.5312,-2.5312,-2.5312,-2.5312,-2.5312,-2.5252,-2.5119,-2.4687,-2.4436,-2.4326,-2.3854,-2.3613,-2.3469,-2.2991,-2.2847,-2.2806,-2.233,-2.2197,-2.2197,-2.2197,-2.2197,-2.2197,-2.2197,-2.2197,-2.2197,-2.2197,-2.2197,-2.2197,-2.2197,-2.2197,-2.2197,-2.2197,-2.2197,-2.2197,-2.2197,-2.2197,-2.2197,-2.2197,-2.2197,-2.2197,-2.2197,-2.2197,-2.2197,-2.2197,-2.2197,-2.2197,-2.2197,-2.2197,-2.2197,-2.2197,-2.2197,-2.2197,-2.2197,-2.2197,-2.2197,-2.2197,-2.2197,-2.2197,-2.2197,-2.2197,-2.2197,-2.2197,-2.263,-2.2618,-2.2197,-2.2197,-2.2197,-2.2197,-2.2197,-2.2197,-2.2197,-2.2197,-2.2197,-2.2197,-2.2197,-2.2197,-2.2197,-2.2197,-2.2197,-2.2197,-2.5312,-2.5312,-2.5312,-2.5312,-2.5312,-2.5312,-2.5312,-2.5312,-2.5312,-2.5312,-2.5312,-2.5312,-2.5312,-2.5312,-2.5312,-2.5312,-2.5312,-2.5312,-2.5312,-2.5312,-2.5312,-2.5312,-2.5312,-2.5312,-2.5312,-2.5312,-2.5312,-2.5312,-2.5312,-2.5312,-2.5312,-2.5312,-2.5312,-2.5312,-2.5312,-2.5312,-2.5312,-2.5312,-2.5312,-2.5312,-2.5312,-2.5035,-2.4592,-2.4542,-2.4254,-2.3842,-2.3312,-2.283,-2.2402,-2.233,-2.2306,-2.2294,-2.2209,-2.2197,-2.2197,-2.2197,-2.2197,-2.2197,-2.2197,-2.2197,-2.2197,-2.2197,-2.2197,-2.2197,-2.2197,-2.2197,-2.2197,-2.2197,-2.2197,-2.2197,-2.2197,-2.2197,-2.2197,-2.2197,-2.2197,-2.2197,-2.2197,-2.2197,-2.2197,-2.2197,-2.2197,-2.2197,-2.2197,-2.2197,-2.2197,-2.2197,-2.2197,-2.2197,-2.2197,-2.2197,-2.2197,-2.2197,-2.2197,-2.2197,-2.2197,-2.2197,-2.2197,-2.2197,-2.2258,-2.2258,-2.2197,-2.2197,-2.2197,-2.2197,-2.2197,-2.2197,-2.2197,-2.2197,-2.2197,-2.2197,-2.2197,-2.2197,-2.2197,-2.2197,-2.2197,-2.2197,-2.5312,-2.5312,-2.5312,-2.5312,-2.5312,-2.5312,-2.5312,-2.5312,-2.5312,-2.5312,-2.5312,-2.5312,-2.5312,-2.5312,-2.5312,-2.5312,-2.5312,-2.5312,-2.5312,-2.5312,-2.5312,-2.5312,-2.5312,-2.5312,-2.5312,-2.5312,-2.5312,-2.5312,-2.5312,-2.5312,-2.5312,-2.5312,-2.5312,-2.5312,-2.5312,-2.5312,-2.5312,-2.5312,-2.5131,-2.4867,-2.4867,-2.4554,-2.4073,-2.3773,-2.352,-2.3288,-2.2758,-2.239,-2.2197,-2.2197,-2.2197,-2.2197,-2.2197,-2.2197,-2.2197,-2.2197,-2.2197,-2.2197,-2.2197,-2.2197,-2.2197,-2.2197,-2.2197,-2.2197,-2.2197,-2.2197,-2.2197,-2.2197,-2.2197,-2.2197,-2.2197,-2.2197,-2.2197,-2.2197,-2.2197,-2.2197,-2.2197,-2.2197,-2.2197,-2.2197,-2.2197,-2.2197,-2.2197,-2.2197,-2.2197,-2.2197,-2.2197,-2.2197,-2.2197,-2.2197,-2.2197,-2.2197,-2.2197,-2.2197,-2.2197,-2.2197,-2.2197,-2.2197,-2.2197,-2.2197,-2.2197,-2.2197,-2.2197,-2.2197,-2.2197,-2.2197,-2.2197,-2.2197,-2.2197,-2.2197,-2.2197,-2.2197,-2.2197,-2.2197,-2.2197,-2.2197]}]]